     2              OBSERVATION DATA    GPS                 RINEX VERSION / TYPE
teqc 1997Jun30 19970702                                     PGM / RUN BY / DATE
                                                            COMMENT
Original Marker Name: VERN                                  COMMENT
Campaign Name: HMC San Gabriel Valley 1993-1996             COMMENT
4-Character Station Name: VERN                              COMMENT
6-Character Antenna Code: DMRCHT                            COMMENT
Vertical Measurement Point: BPA                             COMMENT
Vertical Offset to Rinex Ref. Point: 0.0000                 COMMENT
Radial Measurement Point: RRP                               COMMENT
Radial Offset to Rinex Ref. Point: 0.0000                   COMMENT
Antenna Height from Field Measurement: 0.0610 m             COMMENT
Additional Antenna Identification Info.:                    COMMENT
Turborogue and Ashtech Choke Ring                           COMMENT
Original XYZ: -2458894.2918 -4678486.3096 3559398.3106      COMMENT
New XYZ position is based on association with SCEC monument COMMENT
E1D0R2P2+0011. Position of that monument is believed to be  COMMENT
valid to within 1 m horizontally; vertical accuracy         COMMENT
should be no worse than 3-times this value.                 COMMENT
                                                            COMMENT
Revised Rinex header created by UCSD GPS archive for        COMMENT
GSAC on 13-Apr-1999 (1999:103) 21:46:22 GMT                 COMMENT
For assistance contact dagnew@ucsd.edu or hjohnson@ucsd.edu COMMENT
                                                            COMMENT
VERN                                                        MARKER NAME
MGB HARVEY MUDD COLLEGE                                     OBSERVER / AGENCY
263 TURBOROGUE SNR-8000 3.2                                 REC # / TYPE / VERS
329 DORNE-MARGOL. TYPE T                                    ANT # / TYPE
 -2458903.0000 -4678424.0000  3559377.0000                  APPROX POSITION XYZ
        0.0610        0.0000        0.0000                  ANTENNA: DELTA H/E/N
     1     1     0                                          WAVELENGTH FACT L1/2
     5    L1    L2    C1    P2    P1                        # / TYPES OF OBSERV
     0                                                      INTERVAL
  1996     2    16     0     0    0.000000                  TIME OF FIRST OBS
  1996     2    16    21    54   30.000000                  TIME OF LAST OBS
     0                                                      # OF SATELLITES
                                                            END OF HEADER
 96  2 16  0  0  0.0000000  0  8G12G27G19G 2G 9G 4G26G 7
 -18496136.619 4 -14412562.405 4  20798053.041    20798049.964
 -13828837.44244 -10775711.50344  22067673.7704   22067675.9154
   1673458.08844                  24897884.1824
  -9035410.62044  -7040574.08644  21352805.9584   21352808.2374
  -8628637.73244  -6723609.54244  23636144.1454   23636147.2404
  -9831988.93244  -7661283.16844  23251681.4864   23251684.6204
 -13116927.99044 -10220976.93044  22822139.1054   22822141.8464
 -22850751.18644 -17805765.08344  20200228.4514   20200230.7324
 96  2 16  0  0 30.0000000  0  8G12G27G19G 2G 9G 4G26G 7
 -18495532.538 4 -14412091.688 4  20798168.350    20798164.997
 -13733528.34444 -10701444.68844  22085810.4634   22085812.4824
   1782133.47344                  24918563.3474
  -9009410.27044  -7020314.07544  21357753.7404   21357756.1444
  -8720981.67544  -6795565.83544  23618572.0564   23618573.9774
  -9929096.82144  -7736951.62344  23233202.6854   23233205.7434
 -13085770.32644 -10196698.24844  22828068.1124   22828071.1684
 -22841134.13844 -17798271.27444  20202058.3714   20202061.0084
 96  2 16  0  1  0.0000000  0  8G12G27G19G 2G 9G 4G26G 7
 -18495145.432 4 -14411790.048 4  20798241.709    20798238.550
 -13638397.18644 -10627316.53844  22103913.1834   22103915.7244
   1890378.24644                  24939162.6604
  -8983696.48044  -7000277.35944  21362646.7904   21362649.0724
  -8813709.96644  -6867821.62644  23600926.0754   23600929.1504
 -10026596.88444  -7812925.66944  23214649.2264   23214651.4014
 -13054656.15844 -10172453.45444  22833989.1694   22833991.4354
 -22831601.03544 -17790842.87944  20203872.5064   20203874.7854
 96  2 16  0  1 30.0000000  0  8G12G27G19G 2G 9G 4G26G 7
 -18495235.417 4 -14411860.163 4  20798224.559    20798221.520
 -13543709.65444 -10553534.07944  22121931.6154   22121934.4464
   1997934.49544                  24959629.6894
  -8958534.94644  -6980670.97044  21367434.6844   21367437.5724
  -8907086.27744  -6940582.35544  23583157.1794   23583159.5504
 -10124754.90944  -7889412.39944  23195970.3024   23195972.4134
 -13023845.93744 -10148445.51244  22839852.2364   22839854.7144
 -22822427.21444 -17783694.45044  20205618.0414   20205620.2644
 96  2 16  0  2  0.0000000  0  8G12G27G19G 2G 9G 4G26G 7
 -18495060.458 4 -14411723.832 4  20798258.151    20798254.833
 -13448717.09844 -10479513.92344  22140008.0864   22140010.0754
   2105536.39944                  24980106.0714
  -8933203.06144  -6960931.84544  21372255.4254   21372257.7064
  -9000354.49044  -7013258.85344  23565408.8914   23565412.1654
 -10222827.51744  -7965832.58144  23177307.6304   23177310.2054
 -12992629.13044 -10124120.73544  22845792.3394   22845795.1784
 -22812890.71644 -17776263.41244  20207433.0244   20207435.4484
 96  2 16  0  2 30.0000000  0  8G12G27G19G 2G 9G 4G26G 7
 -18494581.740 4 -14411350.810 4  20798348.943    20798345.945
 -13353388.02244 -10405231.54844  22158148.7164   22158151.0294
   2213234.26544                  25000599.4904
  -8907667.69344  -6941034.15144  21377114.7894   21377117.0374
  -9093468.62144  -7085815.28244  23547689.6814   23547692.7294
 -10320777.94544  -8042157.55844  23158668.8774   23158671.1884
 -12960982.24444 -10099460.83844  22851814.7534   22851817.1384
 -22802953.11244 -17768519.82544  20209323.8984   20209326.2174
 96  2 16  0  3  0.0000000  0  8G12G27G19G 2G 9G 4G26G 7
 -18493192.816 4 -14410268.525 4  20798613.376    20798610.279
 -13257123.15444 -10330219.99244  22176467.4724   22176469.6774
   2321621.55244   1809054.08344  25021225.8634
  -8881352.83044  -6920529.06844  21382122.0504   21382125.0384
  -9185831.13244  -7157786.04644  23530113.5754   23530116.9064
 -10418002.83044  -8117917.17844  23140167.2544   23140168.2714
 -12928303.67344 -10073997.03744  22858033.3164   22858036.1654
 -22792005.56744 -17759989.26944  20211407.3264   20211409.7974
 96  2 16  0  3 30.0000000  0  8G12G27G19G 2G 9G 4G26G 7
 -18491191.976 4 -14408709.432 4  20798994.181    20798990.937
 -13160219.70444 -10254710.85044  22194907.4584   22194909.8684
   2430386.38944                  25041923.3464
  -8854588.27044  -6899673.57644  21387215.3054   21387217.8694
  -9277737.21244  -7229401.14244  23512624.9004   23512627.0084
 -10514807.18344  -8193349.13244  23121745.6534   23121748.2384
 -12894908.60244 -10047974.91444  22864388.2364   22864390.6054
 -22780343.15344 -17750901.67544  20213626.4934   20213628.8354
 96  2 16  0  4  0.0000000  0  8G12G27G19G 2G 9G 4G26G 7
 -18488045.421 4 -14406257.571 4  20799592.771    20799589.763
 -13062148.47844 -10178291.75344  22213569.6354   22213572.4524
   2540049.51944                  25062789.6594
  -8826836.29844  -6878048.66344  21392496.3934   21392498.3864
  -9368644.13944  -7300237.68344  23495325.6904   23495327.4844
 -10610657.68744  -8268037.83044  23103506.2584   23103509.0654
 -12860265.53444 -10020980.32944  22870980.4454   22870982.6974
 -22767426.40144 -17740836.67544  20216084.3874   20216087.0604
 96  2 16  0  4 30.0000000  0  8G12G27G19G 2G 9G 4G26G 7
 -18483466.737 4 -14402689.759 4  20800464.112    20800461.114
 -12962639.93444 -10100752.63744  22232505.4984   22232508.2804
   2650899.61744   2065634.12044  25083885.3514
  -8797809.86544  -6855430.66344  21398019.8054   21398022.1374
  -9458277.01944  -7370081.45144  23478269.0814   23478271.2454
 -10705268.02644  -8341760.13744  23085502.5434   23085505.4724
 -12824061.33144  -9992769.26744  22877869.7334   22877872.0394
 -22752963.36544 -17729566.77244  20218836.5454   20218839.3414
 96  2 16  0  5  0.0000000  0  8G12G27G19G 2G 9G 4G26G 7
 -18478632.583 4 -14398922.890 4  20801384.152    20801380.919
 -12862883.46944 -10023020.35244  22251488.4574   22251491.3244
   2761740.66444   2152003.75044  25104978.0774
  -8768690.54144  -6832740.28844  21403560.9394   21403563.9184
  -9547823.33344  -7439857.75744  23461228.6684   23461231.8414
 -10799810.99444  -8415429.97444  23067511.4324   23067513.4334
 -12787463.53944  -9964251.52044  22884834.2974   22884836.7344
 -22738151.79644 -17718025.28544  20221655.2124   20221657.7634
 96  2 16  0  5 30.0000000  0  8G12G27G19G 2G 9G 4G26G 7
 -18474943.385 4 -14396048.194 4  20802086.127    20802083.104
 -12764278.92844  -9946185.67844  22270252.4604   22270255.1634
   2871176.63044                  25125802.7684
  -8740858.13744  -6811052.70944  21408857.3784   21408859.9454
  -9638677.18544  -7510652.92844  23443939.2914   23443942.1204
 -10895677.20744  -8490130.89444  23049268.7694   23049270.4644
 -12751875.34544  -9936520.47444  22891606.5794   22891609.5504
 -22724387.73844 -17707300.04344  20224274.4034   20224276.8294
 96  2 16  0  6  0.0000000  0  8G12G27G19G 2G 9G 4G26G 7
 -18471518.624 4 -14393379.550 4  20802737.664    20802734.616
 -12665948.55144  -9869564.64144  22288964.2014   22288966.1084
   2980101.30544                  25146530.1464
  -8713424.56044  -6789675.89444  21414077.7914   21414080.1224
  -9729960.38944  -7581782.66944  23426568.7424   23426571.9874
 -10991961.30244  -8565157.40744  23030946.5534   23030948.2674
 -12716403.08444  -9908879.76844  22898356.6864   22898358.8474
 -22710782.41444 -17696698.49044  20226863.3984   20226865.7434
 96  2 16  0  6 30.0000000  0  8G12G27G19G 2G 9G 4G26G 7
 -18468498.066 4 -14391025.867 4  20803312.755    20803309.662
 -12568041.96844  -9793273.82244  22307595.0824   22307597.4914
   3088394.77444   2406539.29444  25167137.4854
  -8686533.48744  -6768721.81344  21419194.8654   21419197.5594
  -9821815.98544  -7653358.42344  23409089.6734   23409092.5214
 -11088789.72944  -8640608.09544  23012520.3654   23012522.2344
 -12681191.61644  -9881442.25844  22905056.8584   22905059.0754
 -22697483.83844 -17686335.95844  20229393.8834   20229396.2644
 96  2 16  0  7  0.0000000  0  8G12G27G19G 2G 9G 4G26G 7
 -18465336.720 4 -14388562.488 4  20803914.159    20803910.936
 -12470008.56944  -9716884.18244  22326250.0834   22326252.3444
   3196601.01244   2490855.84544  25187729.7594
  -8659640.95144  -6747766.59844  21424312.5304   21424315.4054
  -9913680.98244  -7724941.49544  23391607.8214   23391610.9874
 -11185613.43344  -8716055.09744  22994095.5034   22994096.9344
 -12645718.29044  -9853800.71744  22911807.5324   22911809.4904
 -22683958.83044 -17675796.98644  20231967.8414   20231970.1804
 96  2 16  0  7 30.0000000  0  8G12G27G19G 2G 9G 4G26G 7
 -18462295.505 4 -14386192.708 4  20804492.692    20804489.892
 -12372104.40344  -9640595.25444  22344880.7274   22344882.7754
   3304462.82944                  25208253.7264
  -8633006.70144  -6727012.63944  21429380.8974   21429383.3744
 -10005799.03244  -7796721.77444  23374078.7364   23374081.8984
 -11282679.69644  -8791691.11944  22975624.5504   22975626.4184
 -12610249.94844  -9826163.06444  22918556.9054   22918559.1964
 -22670458.51144 -17665277.25644  20234536.8694   20234539.2144
 96  2 16  0  8  0.0000000  0  8G12G27G19G 2G 9G 4G26G 7
 -18459053.936 4 -14383666.810 4  20805109.895    20805106.540
 -12274012.00844  -9564159.67244  22363547.3394   22363549.4424
   3412289.22044   2658924.40444  25228773.2394
  -8606323.48544  -6706220.52744  21434458.1944   21434460.8224
 -10097852.85544  -7868452.00344  23356561.2614   23356564.5714
 -11379678.46644  -8867274.56344  22957166.0604   22957168.4014
 -12574471.87344  -9798284.05844  22925365.4304   22925367.6774
 -22656694.16544 -17654551.78744  20237156.2204   20237158.6424
 96  2 16  0  8 30.0000000  0  8G12G27G19G 2G 9G 4G26G 7
 -18455118.904 4 -14380600.559 4  20805858.486    20805855.537
 -12175242.52344  -9487196.47044  22382342.5874   22382344.2654
   3520550.09844                  25249373.4094
  -8579108.14944  -6685013.77644  21439637.3284   21439639.9404
 -10189355.36444  -7939752.63244  23339148.8084   23339152.3724
 -11476134.38944  -8942434.99144  22938811.4224   22938812.5774
 -12537901.02444  -9769787.29144  22932324.6404   22932327.1134
 -22642201.19744 -17643258.56144  20239914.0964   20239916.5734
 96  2 16  0  9  0.0000000  0  8G12G27G19G 2G 9G 4G26G 7
 -18451269.857 4 -14377601.297 4  20806590.863    20806587.842
 -12076563.02344  -9410303.37244  22401120.7954   22401122.6014
   3628435.14944   2827349.74144  25269904.8334
  -8552140.91344  -6664000.34644  21444769.2324   21444771.6634
 -10281087.05344  -8011231.84744  23321693.1684   23321696.0094
 -11572834.57744  -9017785.75044  22920409.1034   22920411.0914
 -12501321.22444  -9741283.57144  22939285.5004   22939287.5054
 -22627754.71344 -17632001.55644  20242663.1464   20242665.4124
 96  2 16  0  9 30.0000000  0  8G12G27G19G 2G 9G 4G26G 7
 -18447566.000 4 -14374715.175 4  20807295.931    20807292.665
 -11978037.13844  -9333529.98644  22419869.4714   22419870.8614
   3735875.36344                  25290350.1774
  -8525471.16344  -6643218.72744  21449844.0214   21449846.7814
 -10373127.92944  -8082951.98844  23304178.7294   23304181.0234
 -11669840.83744  -9093375.02144  22901950.2924   22901952.3424
 -12464797.43544  -9712823.46444  22946235.6894   22946238.8464
 -22613412.16444 -17620825.54444  20245392.4524   20245394.7744
 96  2 16  0 10  0.0000000  0  8G12G27G19G 2G 9G 4G26G 7
 -18444259.855 4 -14372138.964 4  20807924.939    20807921.814
 -11879922.35244  -9257076.94744  22438540.1544   22438541.4144
   3842628.74144                  25310664.6014
  -8499343.33244  -6622859.38744  21454816.2624   21454818.6914
 -10465752.24144  -8155126.75244  23286552.7804   23286554.9714
 -11767419.43844  -9169410.25044  22883381.6394   22883383.3194
 -12428584.04444  -9684605.26944  22953126.9674   22953129.2784
 -22599424.24044 -17609925.86144  20248054.1134   20248056.4814
 96  2 16  0 10 30.0000000  0  8G12G27G19G 2G 9G 4G26G 7
 -18441513.999 4 -14369999.336 4  20808447.384    20808444.417
 -11782387.34144  -9181075.66944  22457100.1354   22457102.4944
   3948531.91544                  25330816.3604
  -8473908.60344  -6603040.11844  21459656.3644   21459658.6254
 -10559114.08644  -8227876.21444  23268786.3014   23268788.4724
 -11865729.10244  -9246015.17144  22864673.5444   22864676.6454
 -12392847.08244  -9656758.27244  22959927.4184   22959929.4744
 -22585924.18744 -17599406.33444  20250623.0924   20250625.4384
 96  2 16  0 11  0.0000000  0  8G12G27G19G 2G 9G 4G26G 7
 -18439266.893 4 -14368248.341 4  20808875.125    20808872.019
 -11685375.76444  -9105482.25744  22475561.0974   22475563.0564
   4053657.08344                  25350821.0664
  -8449084.49744  -6583696.65844  21464380.1434   21464382.3734
 -10653141.88844  -8301144.61144  23250893.1154   23250895.3044
 -11964700.81644  -9323135.96944  22845839.3134   22845842.7094
 -12357532.13144  -9629240.13944  22966647.3674   22966650.2594
 -22572822.24844 -17589197.03144  20253116.4244   20253118.6824
 96  2 16  0 11 30.0000000  0  8G12G27G19G 2G 9G 4G26G 7
 -18437137.722 4 -14366589.251 4  20809280.331    20809277.256
 -11588516.13544  -9030007.26244  22493992.8174   22493995.0704
   4158403.92444                  25370754.0004
  -8424489.79644  -6564531.96344  21469060.2014   21469063.1064
 -10747456.40144  -8374636.41644  23232945.6734   23232948.0984
 -12063941.14144  -9400466.06444  22826955.2884   22826956.8554
 -12322259.09744  -9601754.67044  22973360.0134   22973362.3374
 -22559732.74044 -17578997.41544  20255607.1514   20255609.7534
 96  2 16  0 12  0.0000000  0  7G12G27G 2G 9G 4G26G 7
 -18435536.112 4 -14365341.248 4  20809584.993    20809581.810
 -11492218.48544  -8954970.19144  22512317.6434   22512319.4434
  -8400543.68744  -6545872.66844  21473617.1124   21473619.8694
 -10842448.17244  -8448655.95644  23214869.5434   23214871.8614
 -12163849.88044  -9478316.99044  22807942.9664   22807945.1434
 -12287428.26944  -9574613.78144  22979988.1384   22979990.5904
 -22547058.38444 -17569121.28644  20258019.0024   20258021.4844
 96  2 16  0 12 30.0000000  0  7G12G27G 2G 9G 4G26G 7
 -18434075.418 4 -14364203.044 4  20809862.975    20809859.967
 -11396104.20344  -8880075.97844  22530608.1054   22530609.2754
  -8376871.80944  -6527427.04444  21478121.9764   21478123.9844
 -10937705.74544  -8522882.61744  23196742.2654   23196745.4154
 -12264028.95444  -9556378.56344  22788879.8764   22788881.8464
 -12252666.68844  -9547526.86044  22986603.0884   22986605.9714
 -22534417.78244 -17559271.46544  20260424.2944   20260426.7994
 96  2 16  0 13  0.0000000  0  7G 2G12G27G 9G 4G26G 7
  -8352974.43444  -6508805.71144  21482668.9504   21482671.9944
 -18432241.397 4 -14362773.942 4  20810212.221    20810208.858
 -11299660.56644  -8804925.11544  22548960.6174   22548962.7334
 -11032718.00744  -8596918.12144  23178662.5254   23178664.9074
 -12363950.04344  -9634239.11444  22769864.9014   22769867.1704
 -12217449.58944  -9520084.97944  22993304.2194   22993306.6544
 -22521312.18844 -17549059.30944  20262918.1924   20262920.9404
 96  2 16  0 13 30.0000000  0  8G 2G12G27G15G 9G 4G26G 7
  -8328491.94644  -6489728.46044  21487328.1474   21487330.8074
 -18429652.460 4 -14360756.591 4  20810704.617    20810701.653
 -11202503.70644  -8729218.50344  22567448.6974   22567451.5274
        -0.70854         0.20254  24469661.9424   24469663.8494
 -11127101.49044  -8670463.67444  23160702.2524   23160704.8724
 -12463236.92844  -9711605.49444  22750971.2304   22750973.3234
 -12181393.89844  -9491989.65144  23000165.1084   23000168.1714
 -22507384.89744 -17538206.87244  20265568.8014   20265570.9464
 96  2 16  0 14  0.0000000  0  8G 2G12G27G15G 9G 4G26G 7
  -8303744.20444  -6470444.50344  21492037.4924   21492039.8704
 -18426625.184 4 -14358397.671 4  20811280.770    20811277.648
 -11104967.54744  -8653216.34244  22586009.1564   22586011.1164
     67083.92744     52273.91944  24482429.3284   24482432.5544
 -11221162.43444  -8743757.89344  23142802.9474   23142804.9314
 -12562213.17444  -9788729.81344  22732136.5194   22732139.2214
 -12144817.06044  -9463488.24844  23007125.9734   23007128.9404
 -22492972.15044 -17526976.16044  20268311.2394   20268313.6494
 96  2 16  0 14 30.0000000  0  8G 2G12G27G15G 9G 4G26G 7
  -8278275.87844  -6450599.05644  21496883.8354   21496886.1504
 -18422702.704 4 -14355341.201 4  20812027.415    20812024.188
 -11006600.93344  -8576567.08344  22604727.9014   22604729.4554
    135161.53544    105321.40544  24495382.6064   24495386.3594
 -11314456.35044  -8816454.42744  23125049.5934   23125051.6194
 -12660428.37944  -9865261.12544  22713446.9284   22713449.3804
 -12107257.43344  -9434221.02644  23014273.5464   23014276.6034
 -22477634.89144 -17515025.04644  20271229.9154   20271232.2434
 96  2 16  0 15  0.0000000  0  8G 2G12G27G15G 9G 4G26G 7
  -8252023.51744  -6430142.67644  21501879.8874   21501882.2804
 -18417831.979 4 -14351545.838 4  20812953.972    20812951.029
 -10907348.74544  -8499227.73744  22623615.5954   22623617.3734
    204281.90944    159181.45544  24508537.0044   24508540.1954
 -11406949.04144  -8888526.63644  23107448.8224   23107451.0454
 -12757830.57444  -9941158.91644  22694912.0474   22694914.4354
 -12068652.20344  -9404139.06244  23021619.5854   23021621.4924
 -22461335.34944 -17502324.10644  20274331.8444   20274333.8114
 96  2 16  0 15 30.0000000  0  8G 2G12G27G15G 9G 4G26G 7
  -8225113.09944  -6409173.52044  21507000.7574   21507003.0924
 -18412143.993 4 -14347113.637 4  20814036.449    20814033.539
 -10807350.07444  -8421306.72544  22642644.2334   22642646.7394
    274310.63144    213749.28044  24521861.9024   24521865.8144
 -11498773.75144  -8960078.33344  23089974.7254   23089976.5154
 -12854555.71744 -10016529.13944  22676506.3014   22676508.1824
 -12029154.35444  -9373361.53344  23029135.7864   23029137.9674
 -22444206.57844 -17488977.00844  20277591.0804   20277593.6744
 96  2 16  0 16  0.0000000  0  7G12G27G 2G 9G 4G26G 7
 -18405865.086 4 -14342220.989 4  20815231.388    20815228.333
 -10706843.21244  -8342989.71644  22661770.3284   22661772.2224
  -8197765.67144  -6387863.84244  21512204.7244   21512207.1644
 -11590160.35744  -9031288.65244  23072584.5044   23072586.5804
 -12950823.31444 -10091542.81544  22658187.0384   22658189.2434
 -11989000.63144  -9342072.93144  23036776.9584   23036779.4984
 -22426476.85044 -17475161.63244  20280965.2764   20280967.4314
 96  2 16  0 16 30.0000000  0  7G 2G12G27G 9G 4G26G 7
  -8170493.75144  -6366613.00244  21517394.5904   21517396.5094
 -18399512.517 4 -14337270.937 4  20816440.084    20816437.216
 -10606336.05744  -8264672.51844  22680896.2264   22680897.9954
 -11681624.65744  -9102559.50344  23055179.8244   23055182.6164
 -13047151.75044 -10166603.91344  22639856.3354   22639859.1004
 -11948727.11844  -9310691.01544  23044441.0904   23044444.0054
 -22408655.46744 -17461274.83944  20284356.5234   20284358.7384
 96  2 16  0 17  0.0000000  0  7G 2G12G27G 9G 4G26G 7
  -8143737.88944  -6345764.27844  21522485.8524   21522488.1994
 -18393522.404 4 -14332603.319 4  20817580.108    20817577.211
 -10506270.34144  -8186699.29344  22699937.7434   22699940.1184
 -11773589.25344  -9174220.20144  23037679.2974   23037681.0854
 -13143978.75744 -10242053.49744  22621430.8444   22621433.1594
 -11908798.06644  -9279577.47344  23052038.8584   23052041.3854
 -22391172.51244 -17447651.75544  20287683.1384   20287685.4824
 96  2 16  0 17 30.0000000  0  7G12G27G 2G 9G 4G26G 7
 -18387382.010 4 -14327818.600 4  20818748.585    20818745.508
 -10406137.16044  -8108673.48444  22718992.6024   22718994.6964
  -8116991.87344  -6324923.23944  21527575.1574   21527578.0674
 -11865522.23044  -9245856.26244  23020185.1474   23020186.6534
 -13240800.72644 -10317499.17544  22603005.8634   22603007.9874
 -11868708.43144  -9248338.83044  23059667.9694   23059669.9544
 -22373507.16244 -17433886.54344  20291044.6954   20291047.0904
 96  2 16  0 18  0.0000000  0  7G12G27G 2G 9G 4G26G 7
 -18380571.505 4 -14322511.713 4  20820044.395    20820041.600
 -10305412.56444  -8030186.81244  22738160.0994   22738161.8584
  -8089730.49144  -6303680.60544  21532763.1794   21532764.8534
 -11956893.11444  -9317054.32144  23002797.9984   23002799.9734
 -13337100.71344 -10392538.12244  22584680.7044   22584682.4404
 -11827926.85244  -9216560.99444  23067428.6524   23067430.9414
 -22355140.23744 -17419574.65044  20294540.1024   20294542.3194
 96  2 16  0 18 30.0000000  0  8G12G27G24G 2G 9G 4G26G 7
 -18373252.334 4 -14316808.459 4  20821437.291    20821434.149
 -10204249.00144  -7951358.09344  22757411.0964   22757412.5544
        -0.23954                  25111817.8384
  -8062109.61044  -6282157.84444  21538018.6684   21538021.4914
 -12047868.78944  -9387944.44344  22985485.8194   22985488.4494
 -13433034.67544 -10467291.84044  22566424.4544   22566427.6274
 -11786610.78944  -9184366.67744  23075290.2844   23075292.4714
 -22336231.31944 -17404840.42344  20298138.2174   20298140.6834
 96  2 16  0 19  0.0000000  0  8G12G27G24G 2G 9G 4G26G 7
 -18365175.023 4 -14310514.456 4  20822974.502    20822971.318
 -10102395.79544  -7871991.96644  22776792.6194   22776794.7554
   -109380.15144                  25091146.7534
  -8033881.29044  -6260161.76444  21543390.8284   21543393.3094
 -12138214.98244  -9458344.05544  22968292.9864   22968296.1644
 -13528335.93944 -10541552.54744  22548289.6134   22548292.0444
 -11744495.04844  -9151549.23944  23083304.5794   23083307.4494
 -22316535.59244 -17389493.09744  20301886.0184   20301888.5114
 96  2 16  0 19 30.0000000  0  7G12G27G 2G 9G 4G26G 7
 -18356588.752 4 -14303823.855 4  20824608.141    20824605.119
 -10000114.04944  -7792291.92744  22796256.3174   22796258.9554
  -8005288.48544  -6237881.65844  21548831.7774   21548833.6014
 -12228189.06244  -9528453.70744  22951171.6434   22951173.8094
 -13623232.39644 -10615497.82144  22530231.3074   22530234.3044
 -11701816.24644  -9118293.05044  23091426.4464   23091429.5024
 -22296303.92044 -17373728.15244  20305735.6564   20305738.2774
 96  2 16  0 20  0.0000000  0  8G12G27G24G 2G 9G 4G26G 7
 -18347147.803 4 -14296467.270 4  20826404.940    20826401.747
  -9897065.95444  -7711994.75944  22815866.2294   22815869.1424
        -0.96954         0.23654  25049920.0894
  -7975991.45744  -6215052.80644  21554406.8324   21554409.2384
 -12317460.06144  -9598015.50744  22934184.0334   22934185.8934
 -13717357.58844 -10688842.11644  22512319.9404   22512322.8244
 -11658235.38744  -9084333.96044  23099719.8234   23099722.2454
 -22275192.62744 -17357277.78944  20309753.3614   20309755.6964
 96  2 16  0 20 30.0000000  0  8G12G27G24G 2G 9G 4G26G 7
 -18337137.767 4 -14288667.248 4  20828309.756    20828306.578
  -9793552.35244  -7631334.86144  22835564.0824   22835566.4724
   -108022.90344                  25029364.8654
  -7946280.00544  -6191901.03244  21560060.8424   21560063.0994
 -12406317.45844  -9667255.00544  22917274.8224   22917277.5144
 -13810981.38844 -10761795.72844  22494503.9414   22494506.6584
 -11614051.87944  -9049905.27044  23108127.6244   23108129.9604
 -22253492.81944 -17340368.84844  20313883.0424   20313885.4324
 96  2 16  0 21  0.0000000  0  8G12G27G24G 2G 9G 4G26G 7
 -18326630.864 4 -14280480.047 4  20830309.011    20830306.017
  -9689660.20744  -7550379.98844  22855333.8754   22855335.9124
   -216022.34444   -168327.98644  25008811.9594   25008814.6044
  -7916234.71544  -6168489.12544  21565778.2014   21565780.3904
 -12494821.29644  -9736219.02944  22900433.2334   22900436.0464
 -13904170.66344 -10834410.73844  22476770.7994   22476773.1684
 -11569341.37544  -9015065.92544  23116635.6004   23116637.9314
 -22231279.02844 -17323059.39444  20318109.6864   20318112.3824
 96  2 16  0 21 30.0000000  0  8G12G27G24G 2G 9G 4G26G 7
 -18315349.076 4 -14271689.047 4  20832456.098    20832452.969
  -9585115.95944  -7468916.97044  22875227.9484   22875229.7924
   -323699.90444   -252232.53644  24988322.4964   24988324.4234
  -7885583.83044  -6144605.32244  21571610.7354   21571613.0244
 -12582675.28744  -9804676.66844  22883715.0994   22883717.4964
 -13996659.76744 -10906480.14744  22459170.7494   22459172.9914
 -11523829.80844  -8979602.38944  23125296.2334   23125298.7394
 -22208280.64144 -17305138.56344  20322486.1734   20322488.5724
 96  2 16  0 22  0.0000000  0  8G12G27G24G 2G 9G 4G26G 7
 -18303358.929 4 -14262346.079 4  20834737.656    20834734.460
  -9479959.15644  -7386976.65344  22895238.6464   22895241.4124
   -431119.11344   -335935.71344  24967880.3234
  -7854396.42644  -6120303.45644  21577545.8094   21577548.0874
 -12669927.63744  -9872665.50344  22867110.9754   22867113.8714
 -14088522.74344 -10978061.66444  22441689.8424   22441691.8264
 -11477587.03644  -8943569.08744  23134095.7134   23134098.1764
 -22184571.52844 -17286663.93044  20326998.2004   20327000.0614
 96  2 16  0 22 30.0000000  0  8G12G27G24G 2G 9G 4G26G 7
 -18290519.653 4 -14252341.451 4  20837180.949    20837177.813
  -9374035.74044  -7304438.97044  22915395.2054   22915398.2554
   -538124.80944                  24947520.2544
  -7822531.04144  -6095473.29044  21583609.3054   21583611.9854
 -12756430.35344  -9940070.20044  22850650.5474   22850653.5854
 -14179627.01644 -11049051.98244  22424353.0734   22424354.9894
 -11430475.68944  -8906858.95644  23143060.5514   23143062.8944
 -22160017.93844 -17267531.26344  20331670.5454   20331672.9754
 96  2 16  0 23  0.0000000  0  8G12G27G24G 2G 9G 4G26G 7
 -18276764.409 4 -14241623.076 4  20839798.535    20839795.173
  -9267273.85344  -7221247.93144  22935711.3984   22935714.4014
   -645187.39144                  24927242.4934
  -7789928.61244  -6070068.80844  21589813.5514   21589815.7674
 -12842110.49344 -10006833.92544  22834346.0474   22834349.0564
 -14269922.19244 -11119411.83744  22407170.1234   22407173.0444
 -11382426.54644  -8869418.08444  23152204.1684   23152206.0914
 -22134558.95444 -17247693.08544  20336514.7324   20336517.7794
 96  2 16  0 23 30.0000000  0  8G12G27G24G 2G 9G 4G26G 7
 -18261949.592 4 -14230079.070 4  20842617.763    20842614.461
  -9159530.25144  -7137291.92344  22956214.1874   22956216.3834
   -751831.72144                  24907092.1344
  -7756441.81944  -6043975.19644  21596185.9294   21596188.3384
 -12926829.02744 -10072848.34444  22818224.5164   22818227.1514
 -14359267.34744 -11189031.42344  22390168.5174   22390171.1434
 -11333308.38144  -8831144.19544  23161551.3374   23161553.8144
 -22108051.95144 -17227038.27144  20341559.5404   20341561.4994
 96  2 16  0 24  0.0000000  0  7G27G12G 2G 9G 4G26G 7
  -9050874.14344  -7052624.86444  22976890.6844   22976892.8374
 -18246127.697 4 -14217750.320 4  20845628.409    20845625.161
  -7722114.52544  -6017226.66144  21602718.1094   21602720.4484
 -13010648.24344 -10138162.00944  22802275.0374   22802276.8944
 -14447703.89844 -11257943.00344  22373339.7854   22373341.8644
 -11283195.01344  -8792094.83844  23171087.7664   23171090.4384
 -22080549.88544 -17205608.08944  20346792.7894   20346794.9524
 96  2 16  0 24 30.0000000  0  7G27G12G 2G 9G 4G26G 7
  -8941504.08944  -6967401.45044  22997703.3474   22997705.7184
 -18229457.671 4 -14204760.687 4  20848800.736    20848797.358
  -7687095.09244  -5989938.80044  21609382.2644   21609384.3164
 -13093750.71244 -10202917.15244  22786460.8424   22786463.2534
 -14535402.63144 -11326279.66144  22356651.1784   22356653.0174
 -11232248.96544  -8752396.64044  23180782.4044   23180785.4244
 -22052220.31844 -17183533.09744  20352183.2904   20352186.0224
 96  2 16  0 25  0.0000000  0  7G12G27G 2G 9G 4G26G 7
 -18211821.067 4 -14191017.888 4  20852156.834    20852153.502
  -8831322.22744  -6881545.49344  23018670.2224   23018672.5214
  -7651250.60644  -5962008.02944  21616202.9384   21616205.0334
 -13176021.03044 -10267023.88344  22770804.4964   22770807.7084
 -14622238.69844 -11393944.09644  22340126.4304   22340128.5564
 -11180344.37844  -8711951.53944  23190659.4324   23190661.7874
 -22022933.40244 -17160712.11744  20357756.6314   20357758.9784
 96  2 16  0 25 30.0000000  0  8G12G27G24G 2G 9G 4G26G 7
 -18193486.772 4 -14176731.422 4  20855645.442    20855642.473
  -8720602.51444  -6795270.41744  23039739.9594   23039742.0164
        -0.89954        -0.36254  24827386.3404   24827392.3344
  -7614838.20044  -5933634.73844  21623132.2634   21623134.6214
 -13257731.89144 -10330694.66144  22755256.0554   22755258.5894
 -14708468.40744 -11461136.05744  22323717.7964   22323719.7494
 -11127746.44244  -8670966.14544  23200668.4994   23200671.2544
 -21992951.43544 -17137349.54544  20363462.1194   20363464.6524
 96  2 16  0 26  0.0000000  0  8G12G27G24G 2G 9G 4G26G 7
 -18174402.094 4 -14161860.250 4  20859277.386    20859274.171
  -8609290.02044  -6708533.43244  23060922.1234   23060923.9104
   -103827.90744    -80904.47144  24807629.3554   24807633.9844
  -7577800.25644  -5904774.01144  21630180.3274   21630182.3744
 -13338819.63644 -10393879.89144  22739825.6874   22739827.7894
 -14794047.48044 -11527821.03444  22307432.4674   22307434.7444
 -11074392.62444  -8629391.77144  23210821.6334   23210824.0694
 -21962216.67544 -17113400.37244  20369310.5204   20369313.2534
 96  2 16  0 26 30.0000000  0  8G12G27G24G 2G 9G 4G26G 7
 -18154958.478 4 -14146709.386 4  20862977.310    20862974.196
  -8497766.61444  -6621632.12544  23082143.8934   23082146.8134
   -207683.07044   -161830.49844  24787865.6144   24787870.6544
  -7540536.20544  -5875737.08244  21637271.3624   21637273.5584
 -13419665.59544 -10456876.71144  22724441.3164   22724443.6384
 -14879363.65944 -11594301.15144  22291197.0894   22291199.4414
 -11020658.08944  -8587520.72544  23221046.5254   23221049.5994
 -21931107.64344 -17089159.56644  20375230.3534   20375232.6164
 96  2 16  0 27  0.0000000  0  8G12G27G24G 2G 9G 4G26G 7
 -18135201.472 4 -14131314.316 4  20866736.755    20866733.756
  -8386055.72544  -6534584.75144  23103401.6684   23103403.5984
   -311610.72644   -242813.06144  24768088.9714   24768094.0104
  -7503109.53544  -5846573.45044  21644393.2684   21644395.6644
 -13500293.28844 -10519703.45944  22709097.6304   22709100.9144
 -14964441.13544 -11660595.25844  22275007.4664   22275009.7154
 -10966598.25344  -8545396.20644  23231333.5734   23231336.5274
 -21899657.52444 -17064652.98344  20381215.1284   20381217.5824
 96  2 16  0 27 30.0000000  0  8G12G27G24G 2G 9G 4G26G 7
 -18115284.619 4 -14115794.691 4  20870527.059    20870524.049
  -8274301.56744  -6447503.65044  23124667.9324   23124670.0724
   -415757.30044   -323966.18344  24748270.9334   24748275.8504
  -7465695.94844  -5817420.00744  21651512.8554   21651515.2654
 -13580843.44544 -10582469.79944  22693769.6604   22693772.6424
 -15049442.88844 -11726830.35944  22258832.4934   22258834.3894
 -10912383.51344  -8503150.97144  23241650.3584   23241653.0174
 -21868037.23644 -17040013.79444  20387232.4634   20387235.3184
 96  2 16  0 28  0.0000000  0  8G12G27G24G 2G 9G 4G26G 7
 -18095039.149 4 -14100019.008 4  20874379.513    20874376.563
  -8162339.21244  -6360260.28044  23145973.7494   23145976.8284
   -519957.87844   -405161.42844  24728442.9474   24728445.0014
  -7428127.94644  -5788146.24744  21658661.7094   21658664.0674
 -13661146.14744 -10645043.31344  22678488.6204   22678490.6354
 -15134209.05944 -11792881.89844  22242701.9934   22242703.8664
 -10857867.04844  -8460670.62644  23252024.6944   23252027.2804
 -21836090.99544 -17015120.61144  20393311.4804   20393314.0634
 96  2 16  0 28 30.0000000  0  8G12G27G24G 2G 9G 4G26G 7
 -18074488.786 4 -14084005.737 4  20878290.221    20878287.239
  -8050206.39644  -6272884.08144  23167312.0334   23167313.9914
   -624269.09744   -486442.85044  24708592.2264
  -7390432.19744  -5758772.93444  21665835.0554   21665837.3034
 -13741236.12344 -10707451.05644  22663247.9284   22663250.0454
 -15218748.47944 -11858756.74344  22226615.0224   22226616.6244
 -10803093.02644  -8417989.59744  23262447.9324   23262450.9624
 -21803858.92644 -16990004.71244  20399445.0984   20399447.1234
 96  2 16  0 29  0.0000000  0  8G12G27G24G 2G 9G 4G26G 7
 -18053521.481 4 -14067667.578 4  20882280.073    20882277.086
  -7937794.86044  -6185290.69844  23188703.3224   23188705.3434
   -728602.84644   -567741.87844  24688737.6534
  -7352506.22944  -5729220.22944  21673052.0984   21673054.4454
 -13821005.15344 -10769608.71944  22648068.4594   22648070.9994
 -15302961.22844 -11924377.03044  22210589.9414   22210591.6544
 -10747971.75744  -8375037.97544  23272937.4484   23272940.6354
 -21771252.84344 -16964597.37744  20405649.9594   20405652.2534
 96  2 16  0 29 30.0000000  0  8G12G27G24G 2G 9G 4G26G 7
 -18032570.165 4 -14051341.880 4  20886267.104    20886263.998
  -7825556.61844  -6097832.37544  23210061.7554   23210063.3034
   -833408.12144   -649408.24244  24668795.0344   24668798.1894
  -7314769.52744  -5699815.01844  21680233.2994   21680235.7214
 -13900892.14944 -10831858.29744  22632866.3054   22632869.0944
 -15387292.08844 -11990089.36044  22194542.0574   22194543.6334
 -10692940.29044  -8332156.33744  23283409.8464   23283412.2934
 -21738720.07844 -16939247.15744  20411840.4264   20411843.3084
 96  2 16  0 30  0.0000000  0  8G12G27G24G 2G 9G 4G26G 7
 -18011453.149 4 -14034887.066 4  20890285.520    20890282.323
  -7713332.66344  -6010385.20544  23231417.4394   23231418.7284
   -938513.84944   -731308.77144  24648793.0144   24648796.8074
  -7277031.35944  -5670408.64744  21687414.4064   21687416.4484
 -13980714.33544 -10894057.38744  22617676.7124   22617679.0684
 -15471536.26944 -12055734.14244  22178510.6124   22178512.1894
 -10637808.17844  -8289196.25544  23293900.7024   23293903.7524
 -21706076.30944 -16913810.45544  20418052.4244   20418054.5134
 96  2 16  0 30 30.0000000  0  8G12G27G24G 2G 9G 4G26G 7
 -17990044.448 4 -14018204.962 4  20894359.323    20894356.435
  -7600987.59544  -5922843.63944  23252795.7744   23252798.7334
  -1043785.39744   -813338.53144  24628760.0944   24628767.9954
  -7239188.74044  -5640920.89144  21694615.8474   21694617.8294
 -14060342.32944 -10956105.15344  22602524.3384   22602526.6084
 -15555544.00944 -12121194.68644  22162524.4404   22162526.1564
 -10582427.13044  -8246042.20444  23304439.3264   23304441.6394
 -21673194.18844 -16888188.02044  20424309.4264   20424312.1364
 96  2 16  0 31  0.0000000  0  8G12G27G24G 2G 9G 4G26G 7
 -17968799.126 4 -14001650.165 4  20898402.267    20898399.098
  -7488966.37444  -5835554.42644  23274112.4974   23274115.6304
  -1149644.95644   -895826.39344  24608615.4854   24608619.0934
  -7201697.77844  -5611707.16744  21701749.8764   21701752.5764
 -14140218.38844 -11018346.21844  22587324.3454   22587326.6014
 -15639768.44944 -12186824.08644  22146496.9784   22146498.9664
 -10527239.52744  -8203038.90944  23314941.1484   23314944.0374
 -21640523.08944 -16862730.01344  20430526.6464   20430529.4394
 96  2 16  0 31 30.0000000  0  8G12G27G24G 2G 9G 4G26G 7
 -17947224.615 4 -13984838.867 4  20902507.766    20902504.650
  -7376785.00344  -5748140.39344  23295460.0464   23295463.1964
  -1255575.19544   -978369.39444  24588458.4484
  -7164047.98444  -5582369.66044  21708914.6144   21708916.5074
 -14219846.82444 -11080394.32444  22572171.3154   22572173.3984
 -15723699.33844 -12252224.74744  22130525.3284   22130527.4864
 -10471746.80644  -8159797.84744  23325500.7534   23325503.7124
 -21607566.49844 -16837049.54644  20436798.2504   20436800.7924
 96  2 16  0 32  0.0000000  0  8G12G27G24G 2G 9G 4G26G 7
 -17925571.284 4 -13967966.143 4  20906628.066    20906625.020
  -7264680.25144  -5660786.06444  23316793.4384   23316794.5654
  -1361805.40744  -1061146.15244  24568243.3544   24568249.5934
  -7126499.16944  -5553110.84944  21716059.8204   21716062.0254
 -14299485.40844 -11142450.34144  22557016.5874   22557018.7734
 -15807565.98044 -12317575.35044  22114566.5654   22114567.9964
 -10416197.08944  -8116512.36644  23336071.5364   23336074.0854
 -21574580.80344 -16811346.40144  20443075.0014   20443077.3014
 96  2 16  0 32 30.0000000  0  8G12G27G24G 2G 9G 4G26G 7
 -17903873.622 4 -13951058.878 4  20910757.109    20910754.169
  -7152668.05344  -5573503.86144  23338108.2234   23338111.2614
  -1468358.61944  -1144174.52644  24547966.9794   24547971.8084
  -7089080.34644  -5523953.33244  21723180.6214   21723182.8454
 -14379179.68244 -11204549.75644  22541851.3164   22541853.9564
 -15891410.81844 -12382908.96744  22098611.3374   22098612.5744
 -10360650.97244  -8073229.69044  23346642.0284   23346644.9034
 -21541609.61644 -16785654.56544  20449349.4464   20449351.6284
 96  2 16  0 33  0.0000000  0  8G12G27G24G 2G 9G 4G26G 7
 -17882394.436 4 -13934321.854 4  20914844.518    20914841.333
  -7041028.10844  -5486511.71144  23359352.5494   23359355.6414
  -1575497.09044  -1227658.98444  24527578.6424   24527583.4064
  -7052033.76044  -5495085.86444  21730230.2844   21730232.2464
 -14459191.80644 -11266896.84444  22526625.4924   22526628.5214
 -15975519.77544 -12448448.38044  22082605.9464   22082607.5284
 -10305399.99644  -8030176.99244  23357156.1744   23357158.0624
 -21508916.89644 -16760179.71544  20455570.5244   20455573.2924
 96  2 16  0 33 30.0000000  0  8G12G27G24G 2G 9G 4G26G 7
 -17861071.632 4 -13917706.688 4  20918902.026    20918899.022
  -6929712.48344  -5399772.27344  23380535.2284   23380537.1664
  -1683176.95744  -1311565.32044  24507086.9834
  -7015307.38644  -5466467.92044  21737219.0614   21737221.1924
 -14539464.70144 -11329447.13144  22511349.9204   22511352.3434
 -16059824.34844 -12514140.23044  22066563.1144   22066564.7814
 -10250382.29944  -7987306.08344  23367625.5124   23367629.2314
 -21476449.50444 -16734880.44044  20461748.9674   20461751.6044
 96  2 16  0 34  0.0000000  0  8G12G27G24G 2G 9G 4G26G 7
 -17839462.897 4 -13900868.711 4  20923014.178    20923011.065
  -6818272.46044  -5312935.92344  23401741.8054   23401745.1944
  -1790961.37144  -1395553.09944  24486577.0284
  -6978469.16644  -5437762.81444  21744228.9564   21744231.2704
 -14619555.85744 -11391855.79744  22496109.1204   22496111.6364
 -16143892.50944 -12579647.86144  22050565.4664   22050567.1084
 -10195154.37944  -7944271.36444  23378134.7394   23378137.9254
 -21443760.50844 -16709408.49144  20467969.5484   20467971.7834
 96  2 16  0 34 30.0000000  0  8G12G27G24G 2G 9G 4G26G 7
 -17817516.486 4 -13883767.618 4  20927190.490    20927187.377
  -6706679.05344  -5225980.08144  23422976.7554   23422980.4754
  -1898799.70044  -1479582.79644  24466055.9404
  -6941464.99544  -5408928.41344  21751270.8194   21751272.9044
 -14699402.47744 -11454073.93144  22480914.8524   22480917.3154
 -16227701.86144 -12644953.82344  22034617.1104   22034619.0364
 -10139675.19444  -7901040.85944  23388692.9254   23388695.2504
 -21410782.01944 -16683710.96644  20474245.1694   20474247.2774
 96  2 16  0 35  0.0000000  0  8G12G27G24G 2G 9G 4G26G 7
 -17795287.079 4 -13866446.006 4  20931420.659    20931417.441
  -6595010.55744  -5138965.71944  23444226.6454   23444229.0584
  -2006747.63444                  24445512.8194
  -6904353.61144  -5380010.45244  21758332.6364   21758334.8384
 -14779047.15944 -11516134.70144  22465758.5454   22465761.2344
 -16311309.23544 -12710102.38844  22018706.9864   22018708.8414
 -10083979.23044  -7857641.42544  23399290.6784   23399294.1524
 -21377562.55944 -16657825.66844  20480566.4724   20480568.6434
 96  2 16  0 35 30.0000000  0  8G12G27G24G 2G 9G 4G26G 7
 -17772853.920 4 -13848965.621 4  20935689.501    20935686.515
  -6483343.86644  -5051952.75744  23465476.5514   23465478.0414
  -2114889.46044  -1647964.38244  24424935.0464
  -6867210.11544  -5351067.47144  21765401.1594   21765403.1074
 -14858570.40544 -11578100.84044  22450625.8234   22450628.1824
 -16394786.94244 -12775149.91844  22002822.1974   22002823.3094
 -10028136.61744  -7814127.74244  23409916.9344   23409919.9684
 -21344184.94444 -16631817.13244  20486918.1684   20486920.4934
 96  2 16  0 36  0.0000000  0  8G12G27G24G 2G 9G 4G26G 7
 -17750753.895 4 -13831744.821 4  20939895.069    20939891.900
  -6372215.33744  -4965359.11344  23486622.7684   23486624.7824
  -2223758.93444  -1732797.71544  24404218.7024
  -6830550.48344  -5322501.54144  21772377.0644   21772379.1854
 -14938506.48144 -11640388.66244  22435414.5444   22435417.1264
 -16478685.10644 -12840525.09044  21986856.3594   21986857.9594
  -9972700.82044  -7770931.03544  23420466.6184   23420470.1324
 -21311184.45544 -16606102.46044  20493197.9904   20493200.3804
 96  2 16  0 36 30.0000000  0  8G12G27G24G 2G 9G 4G26G 7
 -17728753.113 4 -13814601.362 4  20944081.745    20944078.501
  -6261407.46844  -4879015.36144  23507709.7164   23507712.1114
  -2333127.56944  -1818019.97644  24383405.8904
  -6794131.89644  -5294123.41844  21779307.4894   21779309.3684
 -15018608.89544 -11702806.10944  22420171.8964   22420174.5834
 -16562756.31544 -12906035.10144  21970857.8904   21970859.6024
  -9917437.92244  -7727869.05244  23430982.6664   23430985.2514
 -21278340.41644 -16580509.70044  20499448.0394   20499450.0464
 96  2 16  0 37  0.0000000  0  8G12G27G24G 2G 9G 4G26G 7
 -17706899.864 4 -13797572.858 4  20948240.034    20948237.063
  -6150951.16644  -4792945.57544  23528728.1074   23528730.4644
  -2443048.41144  -1903672.48744  24362489.6804
  -6757996.05044  -5265965.62244  21786183.8224   21786186.2434
 -15098922.16744 -11765387.85544  22404888.5694   22404890.9354
 -16647010.64144 -12971687.80244  21954824.8284   21954827.1124
  -9862388.66944  -7684973.55644  23441458.8014   23441461.8274
 -21245721.34744 -16555092.24444  20505655.4144   20505657.4794
 96  2 16  0 37 30.0000000  0  8G12G27G24G 2G 9G 4G26G 7
 -17685317.336 4 -13780755.304 4  20952347.076    20952344.028
  -6040956.54444  -4707235.51544  23549659.7374   23549663.0364
  -2553645.25944  -1989851.81544  24341444.0584   24341447.2194
  -6722269.88744  -5238127.06944  21792982.5834   21792984.5284
 -15179568.44344 -11828229.09044  22389542.1614   22389543.9004
 -16731555.32044 -13037566.74044  21938736.5324   21938738.5424
  -9807682.33944  -7642345.25544  23451868.9674   23451872.1794
 -21213457.06544 -16529951.24444  20511794.9844   20511797.3914
 96  2 16  0 38  0.0000000  0  8G12G27G24G 2G 9G 4G26G 7
 -17663931.787 4 -13764091.239 4  20956416.690    20956413.506
  -5931360.08844  -4621835.72644  23570515.5374   23570517.8074
  -2664831.95344  -2076490.76844  24320284.3244   24320287.5394
  -6686891.34744  -5210559.37044  21799714.5644   21799716.5364
 -15260469.77644 -11891269.06444  22374147.2854   22374149.2804
 -16816294.49644 -13103597.25044  21922611.4134   21922613.0464
  -9753257.27844  -7599936.13944  23462225.4754   23462228.5764
 -21181475.60844 -16505030.62044  20517880.7304   20517883.0344
 96  2 16  0 38 30.0000000  0  8G12G27G24G 2G 9G 4G26G 7
 -17642469.208 4 -13747367.158 4  20960500.763    20960497.741
  -5821891.26544  -4536535.42444  23591346.6494   23591349.5994
  -2776317.99244  -2163362.97244  24299070.2114   24299073.5224
  -6651611.51744  -5183068.60044  21806428.2674   21806430.6374
 -15341353.50444 -11954295.32644  22358755.4584   22358757.7404
 -16900939.81744 -13169554.61744  21906503.7384   21906505.8504
  -9698843.25344  -7557535.62644  23472579.9354   23472582.2304
 -21149505.27344 -16480118.66944  20523964.1304   20523966.3104
 96  2 16  0 39  0.0000000  0  8G12G27G24G 2G 9G 4G26G 7
 -17620206.534 4 -13730019.615 4  20964737.009    20964734.067
  -5711820.80344  -4450766.29244  23612291.9164   23612295.1224
  -2887370.79744  -2249897.66844  24277937.1234   24277940.2654
  -6615722.63644  -5155103.24344  21813257.5444   21813259.8064
 -15421514.84044 -12016758.68344  22343501.5244   22343503.8694
 -16984776.64144 -13234881.99044  21890550.3784   21890551.7344
  -9643734.01844  -7514593.35444  23483067.4174   23483069.6254
 -21116815.14644 -16454645.83744  20530185.0044   20530187.4614
 96  2 16  0 39 30.0000000  0  8G12G27G24G 2G 9G 4G26G 7
 -17597456.411 4 -13712292.248 4  20969066.457    20969063.312
  -5601482.24644  -4364788.22644  23633288.7714   23633292.9594
  -2998294.43944  -2336331.62844  24256829.5464
  -6579547.22844  -5126914.61944  21820141.5064   21820143.7614
 -15501270.33844 -12078905.80344  22328324.3994   22328326.4834
 -17068142.78144 -13299842.61244  21874686.4094   21874688.2094
  -9588254.66644  -7471362.71744  23493624.8344   23493627.6594
 -21083709.00144 -16428848.83244  20536485.2634   20536487.8104
 96  2 16  0 40  0.0000000  0  8G12G27G24G 2G 9G 4G26G 7
 -17573938.790 4 -13693966.832 4  20973541.554    20973538.508
  -5490598.60144  -4278385.38144  23654390.5774   23654392.6354
  -3108810.04844  -2422447.61644  24235800.0054   24235804.8584
  -6542797.12344  -5098278.17744  21827134.8974   21827136.6964
 -15580341.23844 -12140519.47344  22313277.6524   22313279.8124
 -17150773.61544 -13364230.24044  21858961.9974   21858963.9544
  -9532144.14644  -7427640.26544  23504301.0554   23504304.0654
 -21049900.13844 -16402504.25244  20542918.6214   20542920.9404
 96  2 16  0 40 30.0000000  0  8G12G27G24G 2G 9G 4G26G 7
 -17550287.340 4 -13675537.127 4  20978042.319    20978039.279
  -5379796.19144  -4192045.86144  23675475.2134   23675478.1064
  -3219554.81544  -2508742.21244  24214724.2894   24214730.9334
  -6506091.95944  -5069676.75044  21834119.7044   21834121.4804
 -15659353.64144 -12202087.56744  22298242.0664   22298244.4354
 -17233320.09144 -13428552.14544  21843253.7264   21843255.5974
  -9476032.75244  -7383917.12844  23514979.0594   23514981.5574
 -21016014.51044 -16376099.86244  20549366.8174   20549369.0454
 96  2 16  0 41  0.0000000  0  8G12G27G24G 2G 9G 4G26G 7
 -17526215.453 4 -13656779.815 4  20982623.071    20982620.081
  -5268782.74844  -4105541.91644  23696600.5654   23696602.1354
  -3330250.58044  -2594998.67744  24193659.7874   24193664.6554
  -6469134.70444  -5040878.90644  21841152.3494   21841154.6614
 -15738004.93344 -12263374.26644  22283275.2624   22283277.6034
 -17315497.47844 -13492586.45044  21827616.0684   21827617.8574
  -9419622.11144  -7339960.81944  23525714.5944   23525716.9334
 -20981768.48944 -16349414.64044  20555883.7454   20555886.4524
 96  2 16  0 41 30.0000000  0  7G12G27G24G 2G 9G 4G 7
 -17501929.937 4 -13637856.031 4  20987244.484    20987241.416
  -5157767.66844  -4019036.73544  23717725.5154   23717728.7664
  -3441107.71744  -2681380.86544  24172564.2414   24172566.0884
  -6432123.59344  -5012039.06844  21848195.4574   21848197.0574
 -15816485.23444 -12324527.73444  22268340.9434   22268343.2634
 -17397504.65844 -13556488.12744  21812010.3734   21812012.6184
 -20947374.46944 -16322614.09844  20562428.4264   20562430.9824
 96  2 16  0 42  0.0000000  0  7G12G27G24G 2G 9G 4G 7
 -17477706.681 4 -13618980.776 4  20991854.111    20991851.161
  -5047028.15544  -3932746.24544  23738798.3884   23738800.6894
  -3552392.48844                  24151385.8914
  -6395331.09344  -4983369.60044  21855196.8004   21855198.8714
 -15895064.27044 -12385758.13844  22253387.5674   22253390.2094
 -17479601.83144 -13620459.92244  21796387.7614   21796389.9054
 -20913124.50644 -16295925.80544  20568946.2154   20568948.4064
 96  2 16  0 42 30.0000000  0  7G12G27G24G 2G 9G 4G 7
 -17453718.268 4 -13600288.505 4  20996418.965    20996415.772
  -4936756.67144  -3846820.47944  23759783.1014   23759784.8874
  -3664269.96744                  24130097.7344
  -6358952.77244  -4955022.86444  21862119.4204   21862121.5574
 -15973912.88144 -12447198.59344  22238383.6774   22238385.6424
 -17561945.63344 -13684623.90344  21780718.5414   21780719.9834
 -20879204.35644 -16269494.51744  20575400.9964   20575403.0334
 96  2 16  0 43  0.0000000  0  7G12G27G24G 2G 9G 4G 7
 -17429419.145 4 -13581354.119 4  21001042.889    21001039.994
  -4826418.46244  -3760842.73544  23780780.0084   23780781.4924
  -3776200.10744  -2942491.74844  24108799.0914
  -6322464.58444  -4926590.51244  21869062.7904   21869064.8674
 -16052497.37444 -12508433.24644  22223429.0994   22223431.9994
 -17643980.98544 -13748547.54044  21765107.6224   21765109.7614
 -20845090.36344 -16242912.18344  20581892.7004   20581895.0784
 96  2 16  0 43 30.0000000  0  7G12G27G24G 2G 9G 4G 7
 -17404466.748 4 -13561910.694 4  21005791.321    21005788.066
  -4715687.73544  -3674559.11344  23801850.4534   23801852.8024
  -3887842.52844  -3029485.75344  24087554.0844   24087560.2014
  -6285517.65344  -4897800.69644  21876093.4994   21876095.9294
 -16130482.33544 -12569200.72944  22208588.8874   22208590.7524
 -17725364.52644 -13811963.24844  21749620.7934   21749622.9264
 -20810445.23344 -16215915.97044  20588485.3614   20588487.9154
 96  2 16  0 44  0.0000000  0  8G12G27G24G 2G 9G 4G 5G 7
 -17378919.316 4 -13542003.608 4  21010652.724    21010649.856
  -4604632.59744  -3588022.64544  23822983.5624   23822985.1064
  -3999263.41044  -3116307.24444  24066351.9734   24066354.8904
  -6248169.30144  -4868698.09544  21883200.6814   21883202.9584
 -16207925.17944 -12629545.78244  22193851.9484   22193854.3314
 -17806161.09444 -13874921.57944  21734246.2064   21734247.6744
        -0.39454                  25299627.5324
 -20775335.14344 -16188557.45644  20595166.5894   20595168.9024
 96  2 16  0 44 30.0000000  0  7G12G27G 2G 9G 4G 5G 7
 -17353067.481 4 -13521859.319 4  21015572.160    21015569.091
  -4493530.17044  -3501449.34044  23844126.2564   23844129.8704
  -6210703.41044  -4839503.89244  21890330.0114   21890332.5884
 -16285111.92644 -12689691.28244  22179164.3914   22179166.6234
 -17886665.96044 -13937652.62544  21718926.4764   21718927.7174
    -83204.37544    -64835.18444  25283792.3154   25283794.5194
 -20740038.04844 -16161053.22444  20601883.3024   20601885.6884
 96  2 16  0 45  0.0000000  0  7G12G27G 2G 9G 4G 5G 7
 -17326619.942 4 -13501250.852 4  21020605.151    21020602.026
  -4382072.14944  -3414598.96044  23865336.0854   23865339.2874
  -6172796.75944  -4809966.24744  21897543.6074   21897545.7194
 -16361747.81444 -12749407.54144  22164580.7804   22164582.8564
 -17966587.04644 -13999928.74844  21703717.2984   21703719.5684
   -166237.45144   -129536.31844  25267992.8194
 -20704263.60744 -16133177.03644  20608690.8944   20608693.0544
 96  2 16  0 45 30.0000000  0  8G12G27G24G 2G 9G 4G 5G 7
 -17299172.724 4 -13479863.417 4  21025828.132    21025825.034
  -4269857.04944  -3327158.68344  23886689.0184   23886693.3354
        -0.17054         0.59754  24002888.8154   24002892.2514
  -6134028.52844  -4779757.24344  21904920.6544   21904923.3274
 -16437423.62044 -12808375.68444  22150179.9274   22150182.1804
 -18045517.60144 -14061433.03444  21688697.6264   21688699.4564
   -248713.21344                  25252300.8694
 -20667599.82944 -16104607.85844  20615668.0174   20615670.2744
 96  2 16  0 46  0.0000000  0  7G12G27G24G 2G 9G 4G 7
 -17271125.275 4 -13458008.266 4  21031165.314    21031162.187
  -4157284.83444  -3239440.13544  23908111.2734   23908113.5944
   -110440.64744    -86056.83244  23981871.4554   23981881.3844
  -6094800.92744  -4749190.28644  21912385.7274   21912388.1004
 -16512551.91444 -12866917.19044  22135883.6564   22135885.9254
 -18123848.00344 -14122469.70044  21673791.7904   21673793.8184
 -20630449.35044 -16075659.42744  20622737.2384   20622740.0994
 96  2 16  0 46 30.0000000  0  7G12G27G24G 2G 9G 4G 7
 -17242468.001 4 -13435677.926 4  21036618.725    21036615.638
  -4044339.86944  -3151431.11344  23929604.4064   23929606.7464
   -220604.44644   -171898.66844  23960909.1404   23960915.0204
  -6055108.70744  -4718261.28944  21919938.9174   21919941.2444
 -16587131.57344 -12925031.19144  22121691.7344   22121693.8224
 -18201543.12144 -14183011.31644  21659007.1824   21659008.8434
 -20592796.80944 -16046319.78144  20629902.3454   20629905.1644
 96  2 16  0 47  0.0000000  0  8G12G27G24G 2G 9G 4G 5G 7
 -17213137.415 4 -13412822.925 4  21042200.016    21042196.981
  -3930981.55044  -3063100.02144  23951175.9944   23951177.6574
   -330411.68044   -257462.70444  23940013.2454   23940018.5264
  -6014898.61544  -4686928.75844  21927590.8484   21927593.0154
 -16661111.44644 -12982677.82744  22107613.6214   22107615.6194
 -18278538.73044 -14243007.86344  21644355.2774   21644356.6164
        -0.91854        -0.55954  25205404.9204
 -20554581.68344 -16016541.75544  20637174.3684   20637177.0044
 96  2 16  0 47 30.0000000  0  8G12G27G24G 2G 9G 4G 5G 7
 -17183199.983 4 -13389495.061 4  21047897.018    21047893.880
  -3817287.84544  -2974507.57244  23972811.5664   23972814.7854
   -439930.20044   -342801.76144  23919171.5024   23919175.0514
  -5974245.16444  -4655250.75744  21935326.8044   21935329.2904
 -16734559.69644 -13039910.21044  22093636.8004   22093638.7514
 -18354912.68144 -14302520.01344  21629821.7844   21629823.5164
    -81797.22344    -63737.88644  25189840.6774
 -20515865.50944 -15986373.30344  20644541.9124   20644544.1474
 96  2 16  0 48  0.0000000  0  8G12G27G24G 2G 9G 4G 5G 7
 -17152797.668 4 -13365804.953 4  21053682.179    21053679.240
  -3703391.60144  -2885757.29644  23994484.7774   23994488.5724
   -549306.54144   -428030.05844  23898357.6174   23898361.9544
  -5933300.56144  -4623345.86844  21943118.1734   21943120.6494
 -16807602.28144 -13096826.49044  22079737.4454   22079739.6484
 -18430803.75444 -14361655.88444  21615379.9644   21615382.0184
   -163583.83444   -127467.65444  25174277.6744
 -20476781.36944 -15955918.13044  20651979.4644   20651981.4754
 96  2 16  0 48 30.0000000  0  8G12G27G24G 2G 9G 4G 5G 7
 -17121901.116 4 -13341729.714 4  21059561.643    21059558.569
  -3589266.59244  -2796828.72444  24016201.2384   24016204.4634
   -658522.13544   -513133.09244  23877575.3924   23877579.7934
  -5892038.45644  -4591193.59844  21950970.1644   21950972.6554
 -16880180.77544 -13153381.14444  22065926.2284   22065927.8134
 -18506198.85144 -14420405.28944  21601032.8814   21601034.4784
   -245327.16344                  25158720.2024
 -20437291.26544 -15925146.61644  20659494.1054   20659496.3394
 96  2 16  0 49  0.0000000  0  8G12G27G24G 2G 9G 4G 5G 7
 -17089877.731 4 -13316776.438 4  21065655.585    21065652.311
  -3474291.65844  -2707237.87744  24038080.9114   24038084.6544
   -766948.50344   -597621.11444  23856941.7354   23856947.1124
  -5849820.32044  -4558296.34844  21959003.7374   21959006.1484
 -16951641.47644 -13209064.79244  22052327.8564   22052329.7974
 -18580487.03444 -14478292.15944  21586896.2284   21586897.7114
   -326389.20844                  25143293.9784
 -20396777.76144 -15893577.64544  20667203.4294   20667206.1164
 96  2 16  0 49 30.0000000  0  8G12G27G24G 2G 9G 4G 5G 7
 -17057073.917 4 -13291215.028 4  21071897.793    21071894.799
  -3358802.48544  -2617246.33144  24060058.4154   24060061.3534
   -874933.54044   -681765.26144  23836394.1954   23836398.6224
  -5806993.99744  -4524925.19644  21967153.3004   21967156.4284
 -17022313.92844 -13264134.21744  22038878.9694   22038881.1724
 -18653997.39444 -14535572.92544  21572907.7514   21572909.2804
   -407124.38644   -317239.39744  25127933.8884   25127937.3634
 -20355601.67244 -15861492.37144  20675039.0884   20675041.6064
 96  2 16  0 50  0.0000000  0  8G12G27G24G 2G 9G 4G 5G 7
 -17023732.185 4 -13265234.453 4  21078242.532    21078239.501
  -3243045.72044  -2527046.34844  24082086.1364   24082088.1244
   -982715.37544   -765751.05144  23815883.6574   23815887.8194
  -5763814.27844  -4491278.66344  21975370.3134   21975372.6664
 -17092432.25544 -13318771.85544  22025536.1034   22025537.6434
 -18726959.24144 -14592426.28044  21559023.4884   21559025.0084
   -487763.27644   -380074.86344  25112587.4194   25112592.4994
 -20314012.12544 -15829084.92244  20682953.3674   20682955.5774
 96  2 16  0 50 30.0000000  0  8G12G27G24G 2G 9G 4G 5G 7
 -16989894.411 4 -13238867.361 4  21084681.716    21084678.599
  -3127074.08644  -2436678.89844  24104153.8934   24104156.4674
  -1090331.06744   -849607.37644  23795404.2624   23795409.8884
  -5720315.09244  -4457383.19444  21983647.9164   21983650.4114
 -17162044.13944 -13373014.86444  22012289.3814   22012291.5634
 -18799411.21344 -14648882.33944  21545236.2304   21545238.0844
   -568332.95844   -442856.34744  25097254.7584   25097257.8224
 -20272074.34444 -15796406.12744  20690934.0554   20690936.1964
 96  2 16  0 51  0.0000000  0  8G12G27G24G 2G 9G 4G 5G 7
 -16955562.559 4 -13212115.272 4  21091214.806    21091211.840
  -3010877.10144  -2346135.83044  24126265.2134   24126269.6914
  -1197778.33444   -933332.48144  23774957.2924   23774963.1724
  -5676495.00844  -4423237.67744  21991986.7844   21991988.8684
 -17231173.50744 -13426881.89244  21999134.2954   21999136.1964
 -18871330.96944 -14704923.68644  21531550.5494   21531552.0484
   -648834.78544   -505584.97644  25081938.7734   25081940.6284
 -20229802.12344 -15763466.72844  20698978.0784   20698979.8964
 96  2 16  0 51 30.0000000  0  8G12G27G24G 2G 9G 4G 5G 7
 -16920705.591 4 -13184953.997 4  21097847.901    21097844.909
  -2894422.00644  -2255391.65944  24148426.8394   24148429.9704
  -1305035.04644  -1016909.08044  23754548.2504   23754552.3424
  -5632327.70744  -4388821.60444  22000391.2914   22000394.0934
 -17299809.42544 -13480364.40544  21986073.4534   21986075.1914
 -18942683.32444 -14760522.89544  21517972.4894   21517974.3584
   -729238.67044   -568237.25744  25066637.2574   25066640.5904
 -20187148.58744 -15730230.20444  20707094.6944   20707096.6864
 96  2 16  0 52  0.0000000  0  8G12G27G24G 2G 9G 4G 5G 7
 -16884813.064 4 -13156985.795 4  21104677.993    21104674.904
  -2777209.48244  -2164057.25644  24170731.3614   24170734.8524
  -1411579.89844  -1099931.00044  23734273.5824   23734276.8784
  -5587288.90544  -4353726.44044  22008962.0574   22008964.3774
 -17367448.36444 -13533070.05344  21973202.1784   21973204.0634
 -19012976.05244 -14815296.41844  21504596.3024   21504598.0604
   -809026.40944   -630409.48144  25051453.0094   25051457.5854
 -20143599.11044 -15696295.54344  20715381.9214   20715384.2784
 96  2 16  0 52 30.0000000  0  8G12G27G24G 2G 9G 4G 5G 7
 -16847965.001 4 -13128273.018 4  21111689.939    21111687.003
  -2659325.05544  -2072199.31844  24193164.2384   24193166.3434
  -1517492.49944  -1182460.27244  23714118.5764   23714123.0994
  -5541444.69244  -4318003.67344  22017686.0584   22017688.3734
 -17434181.94844 -13585070.24244  21960503.1164   21960505.5444
 -19082279.71644 -14869299.25244  21491408.6154   21491409.7654
   -888297.72644   -692179.28744  25036369.5954   25036372.7594
 -20099240.00444 -15661729.99444  20723822.8984   20723825.4594
 96  2 16  0 53  0.0000000  0  8G12G27G24G 2G 9G 4G 5G 7
 -16810342.726 4 -13098956.968 4  21118849.405    21118846.133
  -2540946.90544  -1979956.68644  24215690.9834   24215694.3354
  -1622954.14344  -1264638.16344  23694050.0754   23694055.1414
  -5494989.66644  -4281804.95344  22026526.0234   22026527.9624
 -17500198.49244 -13636511.68944  21947940.6834   21947942.0484
 -19150779.54044 -14922675.70644  21478373.0844   21478374.9234
   -967252.61844   -753702.52744  25021343.7964
 -20054234.28944 -15626660.59844  20732387.6044   20732389.9854
 96  2 16  0 53 30.0000000  0  8G12G27G24G 2G 9G 4G 5G 7
 -16771851.973 4 -13068964.174 4  21126173.736    21126170.724
  -2422005.16744  -1887274.87244  24238324.6474   24238328.5844
  -1727864.88444  -1346386.77344  23674085.5764   23674089.2874
  -5447840.65844  -4245065.46644  22035498.4164   22035500.6094
 -17565387.31044 -13687308.15644  21935535.5414   21935537.4754
 -19218383.61044 -14975354.17144  21465508.5364   21465509.9154
  -1045795.98144                  25006397.7794
 -20008488.34444 -15591014.40444  20741093.0784   20741094.9664
 96  2 16  0 54  0.0000000  0  8G12G27G24G 2G 9G 4G 5G 7
 -16732427.654 4 -13038243.926 4  21133676.107    21133672.820
  -2302440.98044  -1794107.98644  24261077.1384   24261081.4284
  -1832148.41244  -1427646.64744  23654241.4084   23654244.8144
  -5399935.01644  -4207736.39844  22044614.6054   22044617.0264
 -17629667.59144 -13737396.67644  21923303.4004   21923305.7194
 -19285008.83744 -15027269.91944  21452830.1284   21452831.4104
  -1123861.97444   -875735.76144  24991542.7534   24991545.8234
 -19961954.45044 -15554754.22444  20749947.6484   20749949.7514
 96  2 16  0 54 30.0000000  0  8G12G27G24G 2G 9G 4G 5G 7
 -16692093.725 4 -13006814.895 4  21141351.346    21141348.289
  -2182269.55044  -1700467.94944  24283944.7194   24283948.8194
  -1935831.80744  -1508438.88144  23634511.3924   23634514.6324
  -5351319.11244  -4169853.87244  22053865.7774   22053868.1834
 -17693057.20644 -13786791.16844  21911240.8434   21911242.7604
 -19350664.90644 -15078430.46644  21440335.8394   21440337.5074
  -1201478.91144   -936216.43044  24976771.6424   24976775.1344
 -19914651.94744 -15517895.12844  20758948.5774   20758950.8564
 96  2 16  0 55  0.0000000  0  8G12G27G24G 2G 9G 4G 5G 7
 -16650906.917 4 -12974721.279 4  21149188.792    21149185.749
  -2061547.84344  -1606399.13544  24306918.1114   24306921.1754
  -2038964.20744  -1588801.78244  23614885.5944   23614890.3764
  -5302060.55544  -4131470.58844  22063239.3974   22063241.7234
 -17755594.56644 -13835521.56744  21899340.2904   21899342.1404
 -19415425.23244 -15128893.02544  21428012.3504   21428013.9924
  -1278688.06744   -996379.37244  24962078.9034   24962081.7544
 -19866643.06244 -15480485.60244  20768084.7974   20768087.0204
 96  2 16  0 55 30.0000000  0  8G12G27G24G 2G 9G 4G 5G 7
 -16609205.812 4 -12942226.919 4  21157124.413    21157121.428
  -1940626.41344  -1512174.72544  24329927.9514   24329930.7254
  -2141882.25744  -1668997.65144  23595300.1414   23595305.5784
  -5252474.21644  -4092831.87644  22072675.2514   22072677.5784
 -17817598.82244 -13883836.55344  21887541.3124   21887543.5824
 -19479624.94244 -15178918.75844  21415795.7414   21415797.2254
  -1355822.18744  -1056483.82844  24947402.2504   24947404.3474
 -19818287.13644 -15442805.65444  20777286.9254   20777288.9164
 96  2 16  0 56  0.0000000  0  8G12G27G24G 2G 9G 4G 5G 7
 -16567014.387 4 -12909350.486 4  21165152.882    21165150.075
  -1819515.96644  -1417802.97844  24352974.0424   24352977.8084
  -2244612.15944  -1749046.89844  23575752.8894   23575755.9144
  -5202561.61944  -4053938.94444  22082173.4484   22082175.6794
 -17879095.73744 -13931756.21444  21875838.6494   21875841.0384
 -19543296.46944 -15228532.91244  21403679.2474   21403680.9714
  -1432913.55044  -1116554.93844  24932729.7354   24932731.4104
 -19769608.46544 -15404874.21944  20786549.8984   20786552.2294
 96  2 16  0 56 30.0000000  0  8G12G27G24G 2G 9G 4G 5G 7
 -16524344.068 4 -12876100.887 4  21173272.916    21173270.065
  -1698225.05544  -1323290.59744  24376055.3664   24376058.4714
  -2347168.12244  -1828960.59444  23556237.0314   23556240.3394
  -5152323.63244  -4014792.46744  22091733.4064   22091735.7644
 -17940101.03344 -13979292.79544  21864229.6324   21864231.6464
 -19606459.31044 -15277750.68144  21391659.6354   21391661.5154
  -1509976.21344  -1176603.75744  24918065.8274   24918069.6134
 -19720612.36144 -15366695.43444  20795873.5164   20795875.8264
 96  2 16  0 57  0.0000000  0  8G12G27G24G 2G 9G 4G 5G 7
 -16481193.484 4 -12842477.054 4  21181484.345    21181481.329
  -1576765.12244  -1228646.53144  24399168.1984   24399173.6894
  -2449554.41744  -1908742.08044  23536753.6114   23536757.2444
  -5101738.58544  -3975375.55344  22101359.2664   22101361.1024
 -18000614.00544 -14026445.74044  21852714.3204   21852716.6154
 -19669110.72644 -15326569.94444  21379737.5064   21379739.3844
  -1587001.32144  -1236623.26344  24903410.0174   24903412.6654
 -19671306.36444 -15328275.16944  20805256.2044   20805258.3824
 96  2 16  0 57 30.0000000  0  8G12G27G24G 2G 9G 4G 5G 7
 -16437581.984 4 -12808494.075 4  21189783.237    21189780.267
  -1455163.08744  -1133891.76744  24422307.5654   24422312.0144
  -2551797.91444  -1988412.31444  23517296.6994   23517300.1944
  -5050829.81544  -3935706.37944  22111046.9524   22111048.8324
 -18060657.12544 -14073232.57644  21841288.7894   21841291.0414
 -19731250.85944 -15374990.80244  21367912.5834   21367914.1414
  -1664017.61144  -1296635.88744  24888750.8984   24888754.4294
 -19621700.34644 -15289621.12344  20814696.0704   20814698.0714
 96  2 16  0 58  0.0000000  0  8G12G27G24G 2G 9G 4G 5G 7
 -16393617.639 4 -12774236.143 4  21198149.436    21198146.575
  -1333532.68144  -1039114.84444  24445453.2474   24445458.6684
  -2653999.86944  -2068050.19344  23497847.9114   23497851.3324
  -4999728.90244  -3895887.49744  22120771.4634   22120773.3624
 -18120356.09644 -14119751.24444  21829928.3894   21829930.1314
 -19792979.45944 -15423090.97644  21356166.0774   21356167.7774
  -1741127.53944  -1356721.45544  24874079.7404   24874083.8204
 -19571895.15344 -15250811.87344  20824173.4874   20824175.5244
 96  2 16  0 58 30.0000000  0  8G12G27G24G 2G 9G 4G 5G 7
 -16349456.546 4 -12739824.911 4  21206553.104    21206549.822
  -1212031.31744   -944438.49844  24468575.4314   24468579.5894
  -2756304.01244  -2147767.67044  23478380.0834   23478383.6114
  -4948607.78844  -3856052.86344  22130499.5364   22130500.7664
 -18179858.76144 -14166116.93544  21818605.5914   21818607.7544
 -19854441.47944 -15470983.43744  21344470.3024   21344471.7814
  -1818473.65044  -1416991.13544  24859359.6604   24859366.2974
 -19522058.04044 -15211977.75444  20833657.3234   20833659.4744
 96  2 16  0 59  0.0000000  0  8G12G27G24G 2G 9G 4G 5G 7
 -16305541.487 4 -12705605.386 4  21214909.926    21214906.933
  -1091112.79344   -850216.31244  24491584.9914   24491592.6184
  -2859145.01844  -2227903.46544  23458810.4694   23458813.6894
  -4897908.58844  -3816546.99444  22140146.9284   22140148.9414
 -18239596.84444 -14212666.07744  21807237.6684   21807239.8974
 -19916072.35544 -15519007.47144  21332742.4204   21332743.6154
  -1896499.30344  -1477790.28744  24844513.4994   24844515.4824
 -19472636.96044 -15173467.81244  20843061.6624   20843064.1244
 96  2 16  0 59 30.0000000  0  8G12G27G24G 2G 9G 4G 5G 7
 -16261935.158 4 -12671626.427 4  21223207.716    21223204.723
   -970839.81244   -756497.16144  24514470.9034   24514477.3624
  -2962563.55044  -2308489.25644  23439130.3804   23439134.5404
  -4847691.26944  -3777416.62744  22149702.8594   22149704.5064
 -18299628.94744 -14259444.32144  21795813.8154   21795815.7624
 -19977938.95844 -15567215.17744  21320969.7544   21320970.7174
  -1975276.16344  -1539174.81044  24829523.0904   24829526.1994
 -19423687.97744 -15135325.73844  20852376.2394   20852378.7184
 96  2 16  1  0  0.0000000  0  8G12G27G24G 2G 9G 4G 5G 7
 -16218413.565 4 -12637713.514 4  21231489.748    21231486.449
   -850975.34344   -663096.30044  24537281.6214   24537282.9724
  -3066319.99844  -2389338.39244  23419385.4164   23419390.9324
  -4797707.87344  -3738468.53244  22159214.3534   22159216.6174
 -18359729.02544 -14306275.52944  21784377.3234   21784379.4784
 -20039820.17844 -15615434.29344  21309193.9684   21309195.1674
  -2054569.85644  -1600962.06444  24814433.4994   24814438.2484
 -19374991.71744 -15097380.59244  20861643.0704   20861645.2414
 96  2 16  1  0 30.0000000  0  8G12G27G24G 2G 9G 4G 5G 7
 -16175197.700 4 -12604038.819 4  21239713.682    21239710.559
   -731734.47044   -570181.42444  24559972.9894   24559976.4044
  -3170635.00444  -2470622.73744  23399535.6604   23399540.7784
  -4748162.79244  -3699861.98544  22168642.6594   22168645.2234
 -18420099.30344 -14353317.28644  21772889.1244   21772891.1794
 -20101940.91644 -15663840.03544  21297372.6844   21297373.9194
  -2134612.60844  -1663332.96844  24799201.7974   24799206.6564
 -19326760.79644 -15059798.05444  20870821.3594   20870823.2904
 96  2 16  1  1  0.0000000  0  8G12G27G24G 2G 9G 4G 5G 7
 -16132005.402 4 -12570382.480 4  21247932.560    21247929.445
   -612852.19144   -477545.93844  24582595.5954   24582600.1574
  -3275227.42344  -2552123.26944  23379633.4094   23379636.2314
  -4698778.23944  -3661380.52544  22178040.1104   22178042.8504
 -18480466.02044 -14400356.27344  21761401.6784   21761403.7684
 -20164025.02444 -15712217.24344  21285558.2434   21285560.1224
  -2215135.28244  -1726077.83444  24783877.4064   24783883.3434
 -19278694.18944 -15022343.54944  20879968.2094   20879970.1194
 96  2 16  1  1 30.0000000  0  8G12G27G24G 2G 9G 4G 5G 7
 -16089099.358 4 -12536949.205 4  21256097.372    21256094.357
   -494582.94844   -385388.11844  24605100.7074   24605101.4724
  -3380363.56644  -2634047.47044  23359625.5874   23359630.1424
  -4649838.94944  -3623246.02144  22187352.7224   22187355.2794
 -18541102.71344 -14447605.62844  21749862.5474   21749864.6914
 -20226332.38744 -15760768.41444  21273701.5674   21273703.2604
  -2296399.93444  -1789400.94044  24768414.9244   24768416.3644
 -19231059.77844 -14985225.81844  20889032.6304   20889034.4524
 96  2 16  1  2  0.0000000  0  8G12G27G24G 2G 9G 4G 5G 7
 -16046134.387 4 -12503470.012 4  21264273.476    21264270.256
   -376585.12844   -293441.80044  24627555.5644   24627559.0524
  -3485707.80544  -2716133.84044  23339579.1634   23339583.1534
  -4601017.29444  -3585203.17444  22196643.4204   22196645.7204
 -18601669.96544 -14494800.87544  21738337.4994   21738339.5184
 -20288509.27344 -15809217.91644  21261869.9154   21261871.6404
  -2378054.73544  -1853028.00544  24752877.2794   24752882.0634
 -19183532.31844 -14948191.42944  20898076.3204   20898078.5644
 96  2 16  1  2 30.0000000  0  8G12G27G24G 2G 9G 4G 5G 7
 -16002700.960 4 -12469625.790 4  21272538.267    21272535.402
   -258461.01744   -201397.08344  24650033.8874   24650037.9954
  -3590850.22244  -2798062.93744  23319571.5494   23319574.4634
  -4551930.07044  -3546953.40144  22205984.3354   22205987.1754
 -18661768.91944 -14541631.21644  21726900.7364   21726902.7504
 -20350149.99744 -15857249.62144  21250140.0334   21250141.4734
  -2459699.11644  -1916646.98244  24737339.6294   24737344.2544
 -19135715.93644 -14910931.90244  20907175.5874   20907178.1574
 96  2 16  1  3  0.0000000  0  8G12G27G24G 2G 9G 4G 5G 7
 -15958788.396 4 -12435408.211 4  21280894.706    21280891.702
   -140201.88644   -109247.17444  24672538.3914   24672542.0664
  -3695774.80144  -2879822.29744  23299604.9714   23299608.1694
  -4502572.21044  -3508492.73444  22215377.0944   22215379.3094
 -18721402.32944 -14588098.79344  21715553.0004   21715554.8054
 -20411236.21944 -15904849.25244  21238515.9434   21238517.2054
  -2541311.22044  -1980240.75444  24721808.6084   24721812.2154
 -19087622.82544 -14873456.73644  20916327.3984   20916330.1844
 96  2 16  1  3 30.0000000  0  8G12G27G24G 2G 9G 4G 5G 7
 -15914402.964 4 -12400822.167 4  21289340.962    21289337.933
    -21801.91244    -16987.52244  24695068.8434   24695074.8664
  -3800490.79644  -2961419.09744  23279678.1024   23279682.5814
  -4452929.36144  -3469810.00044  22224823.8004   22224825.9374
 -18780569.38544 -14634202.97744  21704294.0294   21704295.8234
 -20471762.07644 -15952012.23044  21226998.1574   21226999.3884
  -2622890.21944  -2043808.75044  24706284.9734   24706286.6864
 -19039284.65444 -14835790.62144  20925526.0384   20925528.1104
 96  2 16  1  4  0.0000000  0  8G12G27G24G 2G 9G 4G 5G 7
 -15869526.176 4 -12365853.248 4  21297880.518    21297877.772
     96747.32144     75388.47544  24717627.9134   24717632.3264
  -3904973.28244  -3042833.96744  23259795.4124   23259798.8144
  -4402956.98844  -3430870.49444  22234333.1554   22234335.3734
 -18839231.77244 -14679913.91644  21693130.7224   21693132.7004
 -20531721.50344 -15998733.83944  21215588.2744   21215589.5244
  -2704408.27044  -2107329.26444  24690772.5614   24690776.4334
 -18990670.43544 -14797909.41144  20934776.7544   20934778.8104
 96  2 16  1  4 30.0000000  0  8G12G27G24G 2G 9G 4G 5G 7
 -15824173.292 4 -12330513.336 4  21306511.120    21306508.244
    215428.44544    167867.20844  24740212.0494   24740215.2694
  -4009236.88244  -3124078.26744  23239954.9904   23239957.6264
  -4352659.07944  -3391677.32044  22243904.8614   22243906.7094
 -18897385.79844 -14725228.72944  21682064.2854   21682066.5294
 -20591130.48944 -16045026.52944  21204282.9654   21204284.5514
  -2785877.79844  -2170811.94144  24675269.5704   24675272.7784
 -18941767.48244 -14759803.20744  20944082.5864   20944085.1194
 96  2 16  1  5  0.0000000  0  8G12G27G24G 2G 9G 4G 5G 7
 -15778411.624 4 -12294854.891 4  21315219.352    21315216.327
    334166.37644    260390.20444  24762808.0754   24762811.2474
  -4113354.17844  -3205208.53144  23220142.2074   23220145.2684
  -4302088.01544  -3352271.30444  22253528.0144   22253530.6524
 -18955072.15344 -14770179.11944  21671087.0194   21671089.3784
 -20650047.67244 -16090936.00144  21193071.3614   21193072.8264
  -2867362.77144  -2234306.65844  24659763.9944   24659767.2144
 -18892622.35744 -14721508.29144  20953434.8274   20953436.9884
 96  2 16  1  5 30.0000000  0  8G12G27G24G 2G 9G 4G 5G 7
 -15732278.551 4 -12258907.054 4  21323998.112    21323995.105
    452905.41844    352914.09544  24785403.5004   24785403.1064
  -4217364.36544  -3286255.38944  23200348.9144   23200353.3154
  -4251277.49244  -3312678.70144  22263197.0304   22263199.1024
 -19012311.42144 -14814781.13544  21660194.7404   21660196.6254
 -20708510.85944 -16136491.70444  21181945.9814   21181947.6804
  -2948904.23344  -2297845.41244  24644247.0504   24644253.7704
 -18843245.64944 -14683032.92844  20962830.9794   20962832.9434
 96  2 16  1  6  0.0000000  0  8G12G27G24G 2G 9G 4G 5G 7
 -15685774.583 4 -12222670.205 4  21332847.582    21332844.450
    571626.59744    445424.04544  24807994.5464   24807997.7354
  -4321263.58944  -3367215.77144  23180577.8774   23180581.7614
  -4200247.44744  -3272915.03044  22272907.6734   22272909.3434
 -19069098.19744 -14859030.55744  21649388.7324   21649390.8284
 -20766518.73344 -16181692.62144  21170907.7004   21170909.1894
  -3030506.01044  -2361431.17844  24628718.1414   24628720.3014
 -18793609.25344 -14644355.21144  20972276.1734   20972278.2694
 96  2 16  1  6 30.0000000  0  8G12G27G24G 2G 9G 4G 5G 7
 -15638877.158 4 -12186126.754 4  21341771.748    21341768.725
    690351.75644    537937.13244  24830586.1104   24830593.2834
  -4425026.95344  -3448070.30244  23160832.5084   23160835.9884
  -4148988.90644  -3232973.30844  22282661.8074   22282664.0094
 -19125424.23944 -14902920.96844  21638670.1744   21638672.1784
 -20824026.88644 -16226504.14544  21159964.3304   21159965.8134
  -3112164.95244  -2425061.48044  24613178.7394   24613180.0454
 -18743705.18044 -14605468.92244  20981772.6084   20981774.5864
 96  2 16  1  7  0.0000000  0  8G12G27G24G 2G 9G 4G 5G 7
 -15591565.886 4 -12149260.827 4  21350774.873    21350771.818
    809103.30344    630470.84844  24853185.0514   24853186.3284
  -4528631.72044  -3528801.25344  23141117.1334   23141120.8744
  -4097478.77744  -3192835.55244  22292463.6994   22292465.8834
 -19181285.09344 -14946448.89344  21628040.0464   21628042.1624
 -20881014.59844 -16270910.13044  21149119.7254   21149121.3034
  -3193866.89044  -2488725.25644  24597630.9034   24597635.4234
 -18693548.45844 -14566385.75444  20991317.4174   20991319.4154
 96  2 16  1  7 30.0000000  0  8G12G27G24G 2G 9G 4G 5G 7
 -15543841.216 4 -12112072.780 4  21359856.803    21359853.461
    927895.33644    723036.02244  24875790.7844   24875795.4444
  -4632073.83444  -3609405.43444  23121431.7674   23121435.9974
  -4045726.14544  -3152508.83744  22302311.7604   22302314.0504
 -19236699.42844 -14989628.88144  21617495.3514   21617497.3434
 -20937484.03944 -16314912.27144  21138373.9434   21138375.4284
  -3275613.89044  -2552424.19044  24582074.6874   24582079.0294
 -18643166.63444 -14527127.18544  21000904.7054   21000906.7164
 96  2 16  1  8  0.0000000  0  8G12G27G24G 2G 9G 4G 5G 7
 -15495694.694 4 -12074556.017 4  21369018.443    21369015.555
   1046762.18744    815659.46944  24898410.1434   24898413.9054
  -4735342.12744  -3689874.19544  23101780.6964   23101783.9214
  -3993733.50044  -3111995.07844  22312205.7334   22312208.0484
 -19291668.70744 -15032462.07044  21607034.7824   21607036.7784
 -20993435.99644 -16358511.17244  21127726.6694   21127728.1424
  -3357388.40344  -2616144.50744  24566513.7584   24566518.9714
 -18592591.04744 -14487717.63244  21010528.9904   21010531.1004
 96  2 16  1  8 30.0000000  0  8G12G27G24G 2G 9G 4G 5G 7
 -15447154.442 4 -12036732.451 4  21378255.449    21378252.431
   1165686.75444    908327.93844  24921040.1804   24921043.0324
  -4838448.94344  -3770217.13544  23082160.5534   23082164.1974
  -3941520.10644  -3071309.31544  22322141.5254   22322144.3344
 -19346220.01144 -15074969.56644  21596654.0664   21596655.9934
 -21048911.66444 -16401738.94444  21117170.1664   21117171.2564
  -3439211.18344  -2679902.50144  24550944.0274   24550946.9304
 -18541879.11244 -14448201.83644  21020178.9724   21020181.3454
 96  2 16  1  9  0.0000000  0  8G12G27G24G 2G 9G 4G 5G 7
 -15398280.627 4 -11998648.954 4  21387555.917    21387552.869
   1284609.74044   1000995.19544  24943670.9164   24943674.5304
  -4941455.06444  -3850481.58044  23062559.4314   23062561.5954
  -3889136.21644  -3030490.71544  22332109.8434   22332112.4934
 -19400410.43844 -15117195.86444  21586342.0814   21586343.8414
 -21103978.76844 -16444648.35444  21106691.1864   21106692.9014
  -3521130.15844  -2743735.42944  24535354.9794   24535357.7574
 -18491088.34244 -14408624.60744  21029844.0464   21029846.7104
 96  2 16  1  9 30.0000000  0  8G12G27G24G 2G 9G 4G 5G 7
 -15348996.820 4 -11960246.001 4  21396934.320    21396931.347
   1403596.07144   1093711.77644  24966313.4654   24966313.5144
  -5044283.77244  -3930607.79444  23042991.4864   23042994.6644
  -3836507.60544  -2989481.41944  22342125.0424   22342126.9244
 -19454145.44544 -15159067.28544  21576116.6244   21576118.4304
 -21158555.94744 -16487176.00644  21096305.4144   21096306.8974
  -3603068.69244  -2807583.60144  24519764.4394   24519767.3754
 -18440112.84244 -14368903.43744  21039544.3844   21039546.6774
 96  2 16  1 10  0.0000000  0  8G12G27G24G 2G 9G 4G 5G 7
 -15299070.846 4 -11921342.646 4  21406434.928    21406431.771
   1522855.60044   1186641.23944  24989007.8794   24989012.2164
  -5146689.46544  -4010404.37644  23023504.2714   23023507.8174
  -3783392.12144  -2948092.71944  22352232.5084   22352234.5154
 -19507176.26044 -15200389.98744  21566025.2244   21566026.9274
 -21212396.21444 -16529129.43344  21086059.9824   21086061.5334
  -3684788.60444  -2871261.38744  24504211.7124   24504215.4304
 -18388699.24444 -14328840.88644  21049328.0634   21049330.1974
 96  2 16  1 10 30.0000000  0  8G12G27G24G 2G 9G 4G 5G 7
 -15248582.610 4 -11882001.165 4  21416042.316    21416039.463
   1642283.12644   1279701.57244  25011733.8064   25011740.1454
  -5248755.45244  -4089936.25944  23004081.6614   23004084.7584
  -3729851.04144  -2906372.40544  22362420.8244   22362422.9874
 -19559581.81944 -15241225.47644  21556052.7164   21556054.7534
 -21265552.51144 -16570549.90244  21075944.5704   21075946.1184
  -3766385.38744  -2934843.26944  24488684.9824   24488688.6284
 -18336897.83444 -14288476.14544  21059185.6614   21059187.6264
 96  2 16  1 11  0.0000000  0  8G12G27G24G 2G 9G 4G 5G 7
 -15197859.351 4 -11842476.553 4  21425694.772    21425691.834
   1761543.77744   1372631.95244  25034427.8504   25034433.3594
  -5350827.60644  -4169472.93844  22984658.2084   22984661.1494
  -3676214.77144  -2864577.92544  22372627.9174   22372630.0674
 -19611689.51344 -15281828.85644  21546137.0114   21546139.0664
 -21318333.56544 -16611677.96944  21065900.5504   21065901.8044
  -3848183.19744  -2998581.77144  24473118.0014   24473123.6394
 -18285030.25344 -14248059.84844  21069055.6934   21069058.0494
 96  2 16  1 11 30.0000000  0  8G12G27G24G 2G 9G 4G 5G 7
 -15146973.839 4 -11802825.512 4  21435377.984    21435374.873
   1880561.29544   1465372.84644  25057077.0094   25057080.3514
  -5452963.59944  -4249059.36744  22965222.6104   22965225.0924
  -3622565.08044  -2822772.96944  22382837.0404   22382838.8134
 -19663563.45344 -15322250.09944  21536265.5074   21536267.6444
 -21370808.39144 -16652567.42444  21055914.9424   21055916.4484
  -3930243.67044  -3062524.92844  24457504.3634   24457506.4804
 -18233174.31644 -14207652.61544  21078923.8294   21078925.7384
 96  2 16  1 12  0.0000000  0  8G12G27G24G 2G 9G 4G 5G 7
 -15095943.462 4 -11763061.586 4  21445088.748    21445085.867
   1999326.93144   1557917.48244  25079677.9584   25079682.4614
  -5555168.28444  -4328699.32744  22945773.1124   22945776.4734
  -3568923.59544  -2780974.41344  22393044.5534   22393047.0534
 -19715229.80044 -15362509.58244  21526433.5004   21526435.5884
 -21422989.27844 -16693227.83144  21045985.2604   21045986.7554
  -4012574.03444  -3126678.41944  24441836.5594   24441839.4394
 -18181367.30044 -14167283.50744  21088782.2804   21088783.9534
 96  2 16  1 12 30.0000000  0  8G12G27G24G 2G 9G 4G 5G 7
 -15044475.566 4 -11722956.728 4  21454882.730    21454879.915
   2118145.09144   1650502.95644  25102288.7414
  -5657155.17844  -4408169.56444  22926365.5604   22926369.0004
  -3515002.71444  -2738958.15144  22403305.2504   22403307.6084
 -19766405.53844 -15402386.76744  21516695.3854   21516697.2864
 -21474600.75844 -16733444.54144  21036164.0964   21036165.2254
  -4094884.71844  -3190816.57544  24426173.8204   24426176.1074
 -18129326.97544 -14126732.60444  21098684.9294   21098686.5864
 96  2 16  1 13  0.0000000  0  8G12G27G24G 2G 9G 4G 5G 7
 -14992459.364 4 -11682424.629 4  21464781.178    21464777.971
   2237140.09744   1743226.28444  25124931.4134   25124934.5604
  -5758788.59644  -4487364.36744  22907025.3534   22907028.9394
  -3460695.63644  -2696640.94544  22413639.6154   22413641.3924
 -19816967.29744 -15441785.53344  21507073.6284   21507075.8084
 -21525551.62244 -16773146.48644  21026468.1124   21026469.6124
  -4177059.40144  -3254848.73944  24410535.4194   24410538.2694
 -18076955.91744 -14085923.97944  21108650.4714   21108652.6374
 96  2 16  1 13 30.0000000  0  8G12G27G24G 2G 9G 4G 5G 7
 -14940020.512 4 -11641563.195 4  21474760.085    21474756.925
   2356186.05844   1835989.38444  25147585.6204
  -5860174.04344  -4566365.96044  22887732.4294   22887735.6374
  -3406125.98344  -2654119.15144  22424023.8924   22424026.0094
 -19867032.51144 -15480797.38144  21497546.6604   21497548.5264
 -21575973.51644 -16812436.24844  21016873.1804   21016874.5184
  -4259232.41744  -3318879.60944  24394898.4744   24394900.4064
 -18024373.44144 -14044950.61044  21118656.7964   21118659.0184
 96  2 16  1 14  0.0000000  0  8G12G27G24G 2G 9G 4G 5G 7
 -14887090.274 4 -11600318.860 4  21484832.311    21484829.073
   2475348.13844   1928842.97744  25170260.8944   25170263.2034
  -5961251.33844  -4645127.44444  22868497.7794   22868501.0904
  -3351226.26244  -2611340.15644  22434470.7374   22434473.2764
 -19916531.65344 -15519368.13044  21488127.2244   21488129.1974
 -21625802.77244 -16851264.21544  21007390.8814   21007392.4394
  -4341350.43144  -3382867.61844  24379272.0034   24379275.1684
 -17971509.94244 -14003758.28144  21128716.3644   21128718.7484
 96  2 16  1 14 30.0000000  0  8G12G27G24G 2G 9G 4G 5G 7
 -14833672.510 4 -11558694.642 4  21494997.386    21494994.107
   2594613.30644   2021776.80744  25192956.9684   25192960.6994
  -6062019.98644  -4723648.41744  22849322.0684   22849326.2154
  -3295996.23644  -2568303.76744  22444980.5924   22444982.8224
 -19965465.34244 -15557498.27144  21478815.6684   21478817.4974
 -21675045.99444 -16889635.53544  20998020.1494   20998021.8224
  -4423426.53444  -3446822.94944  24363653.8664   24363657.1604
 -17918372.47544 -13962352.44944  21138828.0904   21138830.5244
 96  2 16  1 15  0.0000000  0  8G12G27G24G 2G 9G 4G 5G 7
 -14779822.354 4 -11516733.477 4  21505244.501    21505241.739
   2713924.35944   2114746.38044  25215661.0284
  -6162534.96744  -4801971.72344  22830194.9774   22830197.9274
  -3240487.13144  -2525049.92644  22455543.7374   22455546.0144
 -20013872.18744 -15595217.87844  21469603.9154   21469605.8204
 -21723740.60844 -16927579.36544  20988753.9504   20988755.3964
  -4505519.98244  -3510791.81444  24348032.4794   24348034.3644
 -17865022.81844 -13920781.27544  21148980.1904   21148982.6684
 96  2 16  1 15 30.0000000  0  8G12G27G24G 2G 9G 4G 5G 7
 -14725535.494 4 -11474432.028 4  21515575.058    21515572.057
   2833265.78044   2207739.64544  25238371.2034   25238374.8304
  -6262812.59644  -4880110.08844  22811112.7164   22811114.9654
  -3184697.42744  -2481577.43844  22466160.0264   22466162.2254
 -20061760.50444 -15632533.43844  21460491.0814   21460493.0574
 -21771863.62144 -16965077.80344  20979596.5414   20979597.8544
  -4587627.38844  -3574771.57344  24332407.6874   24332410.5744
 -17811453.75044 -13879039.13144  21159174.4024   21159176.5744
 96  2 16  1 16  0.0000000  0  8G12G27G24G 2G 9G 4G 5G 7
 -14670816.828 4 -11431794.113 4  21525987.823    21525984.433
   2952633.31744   2300753.26944  25261084.9364   25261088.1554
  -6362860.70844  -4958069.61744  22792074.0434   22792077.2044
  -3128624.87744  -2437884.55144  22476830.3644   22476832.8474
 -20109134.62144 -15669448.32244  21451476.4944   21451478.3804
 -21819408.17444 -17002125.48744  20970549.0294   20970550.2284
  -4669754.74044  -3638766.84644  24316778.6024   24316784.2134
 -17757680.59244 -13837137.95844  21169406.7524   21169408.8034
 96  2 16  1 16 30.0000000  0  8G12G27G24G 2G 9G 4G 5G 7
 -14615692.737 4 -11388840.286 4  21536477.517    21536474.282
   3072002.87444   2393768.52844  25283801.2934   25283805.3604
  -6462698.49044  -5035865.24444  22773075.3824   22773078.5194
  -3072282.76444  -2393981.61444  22487551.8974   22487554.2134
 -20156017.85144 -15705980.69544  21442554.5454   21442556.2194
 -21866390.85244 -17038735.34344  20961608.5724   20961610.0274
  -4751930.56744  -3702799.88844  24301141.1284   24301144.3824
 -17703722.24144 -13795092.47844  21179674.6874   21179676.5094
 96  2 16  1 17  0.0000000  0  8G12G27G24G 2G 9G 4G 5G 7
 -14560194.118 4 -11345594.617 4  21547038.146    21547035.452
   3191343.72544                  25306511.1134
  -6562366.39544  -5113528.50944  22754109.3684   22754112.5844
  -3015700.50944  -2349891.56644  22498319.2474   22498320.7374
 -20202443.35144 -15742156.36744  21433720.0404   21433721.9654
 -21912836.22644 -17074926.53844  20952770.2654   20952771.3694
  -4834180.31244  -3766890.54444  24285490.1824   24285491.0864
 -17649592.78044 -13752913.66844  21189975.3664   21189977.4634
 96  2 16  1 17 30.0000000  0  8G12G27G24G 2G 9G 4G 5G 7
 -14504326.507 4 -11302061.424 4  21557669.699    21557666.732
   3310642.91044   2579721.65844  25329213.0374
  -6661860.47144  -5191056.29344  22735176.6294   22735179.4854
  -2958897.95444  -2305629.83044  22509128.7714   22509130.9764
 -20248416.51544 -15777979.66644  21424971.6734   21424973.5254
 -21958760.89044 -17110711.93544  20944031.0994   20944032.5344
  -4916499.46144  -3831035.26044  24269825.1714   24269828.0754
 -17595303.65544 -13710610.44844  21200306.0264   21200307.9904
 96  2 16  1 18  0.0000000  0  8G12G27G24G 2G 9G 4G 5G 7
 -14448070.105 4 -11258225.270 4  21568375.096    21568372.013
   3429933.63044   2672675.39744  25351913.2124   25351918.5124
  -6761142.60544  -5268418.95844  22716283.2924   22716285.8914
  -2901865.69844  -2261189.10944  22519981.6294   22519983.9694
 -20293901.93844 -15813422.83544  21416316.0544   21416317.9164
 -22004156.00544 -17146084.73944  20935392.5264   20935393.7374
  -4998859.77144  -3895212.07544  24254151.4864   24254155.3214
 -17540843.45944 -13668173.92544  21210669.1704   21210671.3504
 96  2 16  1 18 30.0000000  0  8G12G27G24G 2G 9G 4G 5G 7
 -14391406.177 4 -11214071.567 4  21579157.502    21579154.761
   3549224.23844                  25374613.4884
  -6860195.01844  -5345602.62244  22697433.7734   22697436.8454
  -2844589.52944  -2216558.33644  22530880.7444   22530882.6034
 -20338894.27444 -15848481.78844  21407754.3334   21407756.2284
 -22049011.35344 -17181036.94644  20926856.9094   20926858.3164
  -5081234.75644  -3959400.30044  24238476.1324   24238479.3414
 -17486186.71744 -13625584.25144  21221070.1114   21221072.1224
 96  2 16  1 19  0.0000000  0  7G12G24G 2G 9G 4G 5G 7
 -14334331.090 4 -11169597.470 4  21590018.698    21590015.916
  -6959014.06144  -5422604.43644  22678629.5994   22678632.6964
  -2787075.10144  -2171741.91444  22541825.4904   22541827.5764
 -20383391.25744 -15883154.75144  21399286.9664   21399288.7934
 -22093318.08644 -17215561.65344  20918425.4914   20918426.6884
  -5163602.20844  -4023582.67644  24222802.5004   24222805.5004
 -17431348.78044 -13582853.38244  21231505.5894   21231507.5274
 96  2 16  1 19 30.0000000  0  7G12G24G 2G 9G 4G 5G 7
 -14276898.677 4 -11124844.941 4  21600947.632    21600944.808
  -7057636.46344  -5499453.01544  22659862.5734   22659865.7694
  -2729368.10044  -2126775.41244  22552806.6544   22552808.6844
 -20427434.50844 -15917474.16144  21390905.6264   21390907.5314
 -22137136.94444 -17249706.19944  20910087.0054   20910088.5414
  -5246010.10444  -4087796.52944  24207120.6084   24207123.9464
 -17376397.82944 -13540034.45244  21241962.4584   21241964.7504
 96  2 16  1 20  0.0000000  0  7G12G24G 2G 9G 4G 5G 7
 -14219082.339 4 -11079793.266 4  21611949.821    21611946.762
  -7156033.43144  -5576125.94744  22641137.9354   22641141.0494
  -2671417.84644  -2081619.30444  22563834.2044   22563836.2044
 -20471013.07944 -15951431.48144  21382612.9004   21382614.9134
 -22180428.09644 -17283439.54844  20901849.2214   20901850.3204
  -5328429.70144  -4152019.55544  24191436.9924   24191439.3244
 -17321286.13644 -13497090.27344  21252450.0834   21252452.3174
 96  2 16  1 20 30.0000000  0  7G12G24G 2G 9G 4G 5G 7
 -14160808.940 4 -11034385.426 4  21623038.992    21623035.976
  -7254127.54044  -5652562.86944  22622471.2604   22622474.4434
  -2613129.42844  -2036199.72344  22574926.1404   22574929.3014
 -20514055.56144 -15984971.06644  21374422.2074   21374423.9824
 -22223108.50044 -17316696.98944  20893727.4624   20893728.5154
  -5410780.75144  -4216189.14144  24175766.3524   24175769.2894
 -17265934.02244 -13453958.75144  21262983.2934   21262985.3684
 96  2 16  1 21  0.0000000  0  7G12G24G 2G 9G 4G 5G 7
 -14102170.063 4 -10988692.809 4  21634197.640    21634194.590
  -7351999.74244  -5728826.89544  22603847.1524   22603850.0234
  -2554597.82644  -1990590.84744  22586064.3294   22586066.9004
 -20556630.11444 -16018146.03644  21366320.5944   21366322.1894
 -22265267.12944 -17349547.85144  20885704.7014   20885705.5984
  -5493157.87544  -4280379.03644  24160089.9334   24160093.4774
 -17210439.48744 -13410716.25244  21273543.6034   21273545.5584
 96  2 16  1 21 30.0000000  0  7G12G24G 2G 9G 4G 5G 7
 -14043173.829 4 -10942721.719 4  21645424.238    21645420.913
  -7449654.40344  -5804921.39344  22585263.6304   22585266.7584
  -2495830.34244  -1944798.00444  22597247.3314   22597250.0204
 -20598741.15044 -16050959.81844  21358307.0434   21358309.0424
 -22306914.50244 -17382000.33344  20877779.6564   20877780.9624
  -5575577.33344  -4344601.93444  24144406.0604   24144410.2404
 -17154799.50444 -13367360.41644  21284131.6744   21284133.4494
 96  2 16  1 22  0.0000000  0  7G12G24G 2G 9G 4G 5G 7
 -13983804.960 4 -10896460.265 4  21656721.650    21656718.491
  -7547077.40244  -5880835.38944  22566724.3914   22566728.0834
  -2436823.96044  -1898819.01644  22608475.8444   22608478.5054
 -20640380.53244 -16083406.07944  21350383.3304   21350385.3804
 -22348015.46244 -17414027.03744  20869958.5474   20869959.4594
  -5658034.47044  -4408854.21144  24128714.8584   24128719.2904
 -17099011.83944 -13323889.50644  21294747.4564   21294749.4934
 96  2 16  1 22 30.0000000  0  7G12G24G 2G 9G 4G 5G 7
 -13924071.126 4 -10849914.430 4  21668088.934    21668085.680
  -7644284.40144  -5956581.05944  22548226.5244   22548230.2134
  -2377603.06844  -1852672.87944  22619745.2764   22619747.2124
 -20681535.31944 -16115474.74044  21342551.8944   21342553.7804
 -22388578.08044 -17445634.25544  20862239.7874   20862240.9064
  -5740543.54344  -4473146.92644  24113014.4914   24113017.4654
 -17043106.52344 -13280326.92044  21305385.6694   21305387.9484
 96  2 16  1 23  0.0000000  0  7G12G24G 2G 9G 4G 5G 7
 -13863977.540 4 -10803088.272 4  21679524.304    21679521.069
  -7741291.81544  -6032171.22544  22529767.0884   22529770.1754
  -2318183.98144  -1806372.28644  22631052.2364   22631054.3324
 -20722212.74844 -16147171.42644  21334811.3044   21334813.2304
 -22428609.83244 -17476827.81144  20854621.7364   20854622.7734
  -5823115.23844  -4537488.46244  24097300.9074   24097304.3974
 -16987088.50744 -13236676.51244  21316045.5534   21316047.6084
 96  2 16  1 23 30.0000000  0  7G12G24G 2G 9G 4G 5G 7
 -13803507.530 4 -10755968.798 4  21691031.225    21691028.021
  -7838085.14044  -6107594.55144  22511347.5154   22511350.6324
  -2258551.50244  -1759905.41844  22642399.8184   22642402.2484
 -20762408.55744 -16178492.82844  21327162.3244   21327164.3074
 -22468086.29344 -17507588.67244  20847109.5024   20847110.7954
  -5905727.86744  -4601861.87944  24081580.4174   24081583.4254
 -16930936.20444 -13192921.46144  21326730.9644   21326733.2164
 96  2 16  1 24  0.0000000  0  7G12G24G 2G 9G 4G 5G 7
 -13742656.876 4 -10708552.698 4  21702610.665    21702607.522
  -7934654.78844  -6182843.58844  22492970.8444   22492974.1774
  -2198700.09944  -1713267.96544  22653789.5964   22653791.6974
 -20802109.55144 -16209428.66044  21319607.3374   21319609.1244
 -22507007.26544 -17537916.68244  20839703.2394   20839704.3854
  -5988384.26644  -4666269.39844  24065850.9224   24065853.2334
 -16874638.58844 -13149053.18444  21337444.4324   21337446.6354
 96  2 16  1 24 30.0000000  0  7G12G24G 2G 9G 4G 5G 7
 -13681382.711 4 -10660806.599 4  21714270.652    21714267.888
  -8030959.33344  -6257886.05344  22474644.6774   22474648.0994
  -2138572.07244  -1666414.96844  22665231.4054   22665233.8794
 -20841259.37944 -16239935.00944  21312157.3524   21312159.2114
 -22545352.11144 -17567795.76144  20832406.4464   20832407.4654
  -6071028.53044  -4730667.47844  24050124.7984   24050128.6814
 -16818129.80744 -13105020.36644  21348197.6394   21348199.8194
 96  2 16  1 25  0.0000000  0  7G12G24G 2G 9G 4G 5G 7
 -13619707.012 4 -10612747.622 4  21726007.480    21726004.399
  -8127001.91744  -6332724.39644  22456368.1944   22456371.7524
  -2078185.68444  -1619360.66044  22676722.4104   22676724.8434
 -20879874.88444 -16270025.01044  21304809.2474   21304811.0474
 -22583149.41044 -17597248.18344  20825213.7144   20825214.9124
  -6153680.72044  -4795071.72644  24034396.7584   24034399.4624
 -16761421.76044 -13060832.27244  21358989.0214   21358990.7434
 96  2 16  1 25 30.0000000  0  7G12G24G 2G 9G 4G 5G 7
 -13557613.464 4 -10564363.042 4  21737823.371    21737820.401
  -8222753.17044  -6407335.73044  22438147.5914   22438151.0534
  -2017518.53644  -1572087.57544  22688267.2224   22688269.2854
 -20917925.35344 -16299674.71844  21297568.3714   21297570.1274
 -22620375.98244 -17626255.88444  20818129.5224   20818130.9684
  -6236331.24744  -4859474.68144  24018667.9104   24018670.5594
 -16704508.00944 -13016483.89044  21369819.5054   21369821.3094
 96  2 16  1 26  0.0000000  0  7G12G24G 2G 9G 4G 5G 7
 -13495081.989 4 -10515637.224 4  21749722.780    21749719.841
  -8318188.31844  -6481700.74144  22419986.7924   22419990.0104
  -1956541.26644  -1524572.83144  22699870.7674   22699872.8724
 -20955374.85444 -16328856.13944  21290441.7844   21290443.6954
 -22657015.01244 -17654805.75944  20811157.2964   20811158.9304
  -6318950.41844  -4923853.18644  24002946.1514   24002948.0444
 -16647383.38044 -12971971.18744  21380689.9304   21380692.2474
 96  2 16  1 26 30.0000000  0  7G12G24G 2G 9G 4G 5G 7
 -13432151.466 4 -10466600.465 4  21761698.043    21761694.952
  -8413343.62044  -6555847.68644  22401879.4254   22401882.6654
  -1895293.26244  -1476847.12544  22711525.9164   22711528.3454
 -20992270.11244 -16357605.68144  21283421.1254   21283422.7664
 -22693092.07644 -17682917.73344  20804292.2274   20804293.5834
  -6401561.77144  -4988225.60944  23987226.1614   23987229.8314
 -16590095.59144 -12927331.34944  21391591.3494   21391593.5464
 96  2 16  1 27  0.0000000  0  7G12G24G 2G 9G 4G 5G 7
 -13368784.907 4 -10417223.930 4  21773756.186    21773753.094
  -8508173.76044  -6629741.25544  22383833.7634   22383836.9424
  -1833751.04344  -1428892.14244  22723237.1074   22723238.8744
 -21028592.24944 -16385908.63544  21276509.0294   21276510.9324
 -22728543.91844 -17710542.51644  20797546.2314   20797547.1644
  -6484131.79644  -5052565.83844  23971512.6044   23971515.0784
 -16532617.93844 -12882543.56144  21402528.7154   21402531.0754
 96  2 16  1 27 30.0000000  0  7G12G24G 2G 9G 4G 5G 7
 -13305094.299 4 -10367594.888 4  21785876.182    21785873.190
  -8602785.31644  -6703464.51244  22365829.5724   22365833.2154
  -1772018.94444  -1380789.21944  22734984.2934   22734986.6964
 -21064471.55544 -16413866.53644  21269681.5964   21269683.5654
 -22763464.25944 -17737753.15144  20790901.2004   20790902.0314
  -6566767.53744  -5116957.26344  23955788.6204   23955790.8834
 -16475066.31944 -12837698.14044  21413480.0704   21413482.3884
 96  2 16  1 28  0.0000000  0  7G12G24G 2G 9G 4G 5G 7
 -13241025.942 4 -10317671.505 4  21798067.949    21798064.758
  -8697123.73444  -6776974.92544  22347877.7384   22347881.0114
  -1710050.74844  -1332502.33844  22746776.3014   22746779.2364
 -21099864.51444 -16441445.46044  21262946.4344   21262947.9174
 -22797802.33444 -17764510.08444  20784366.6094   20784367.6844
  -6649405.26244  -5181350.23944  23940062.1404   23940065.3174
 -16417369.54544 -12792739.60744  21424459.1954   21424461.5784
 96  2 16  1 28 30.0000000  0  7G12G24G 2G 9G 4G 5G 7
 -13176560.656 4 -10267438.818 4  21810335.299    21810332.275
  -8791167.15844  -6850255.47244  22329981.9244   22329985.2084
  -1647818.04444  -1284009.33244  22758618.9374   22758621.8184
 -21134769.12944 -16468643.84744  21256304.2504   21256305.8444
 -22831538.46944 -17790797.96544  20777946.6274   20777947.9444
  -6732034.40244  -5245736.51644  23924338.9434   23924341.7264
 -16359496.50644 -12747643.73044  21435472.0634   21435474.2084
 96  2 16  1 29  0.0000000  0  7G12G24G 2G 9G 4G 5G 7
 -13111768.068 4 -10216951.098 4  21822664.924    21822661.987
  -8884980.06844  -6923356.38944  22312129.8204   22312133.0314
  -1585386.19344  -1235361.13644  22770499.5684   22770501.8544
 -21169251.24644 -16495513.02344  21249742.5084   21249744.4874
 -22864751.58944 -17816678.29344  20771626.3564   20771627.6114
  -6814727.27844  -5310172.48644  23908602.6584   23908605.7084
 -16301522.20044 -12702468.94044  21446504.4434   21446506.1314
 96  2 16  1 29 30.0000000  0  7G12G24G 2G 9G 4G 5G 7
 -13046659.635 4 -10166217.257 4  21835054.701    21835051.528
  -8978574.19044  -6996286.83144  22294319.6034   22294322.6554
  -1522757.90644  -1186559.87044  22782417.3224   22782419.7394
 -21203299.73044 -16522044.31044  21243263.4414   21243265.2204
 -22897477.25444 -17842178.79244  20765399.1624   20765400.2424
  -6897490.87844  -5374663.53144  23892853.2224   23892856.5944
 -16243459.12944 -12657224.98544  21457553.2574   21457555.1684
 96  2 16  1 30  0.0000000  0  7G12G24G 2G 9G 4G 5G 7
 -12981202.514 4 -10115211.715 4  21847510.774    21847507.816
  -9071921.45844  -7069024.93144  22276556.2624   22276559.3464
  -1459899.67344  -1137579.45244  22794378.7614   22794381.4334
 -21236858.13544 -16548193.70944  21236877.3634   21236879.0044
 -22929702.35244 -17867289.23744  20759266.9804   20759267.9804
  -6980294.56144  -5439185.82744  23877096.7924   23877099.8224
 -16185280.20944 -12611890.76144  21468624.8514   21468626.6804
 96  2 16  1 30 30.0000000  0  7G12G24G 2G 9G 4G 5G 7
 -12915372.005 4 -10063915.218 4  21860038.113    21860034.990
  -9164988.27844  -7141544.49644  22258845.8834   22258849.0454
  -1396780.66144  -1088395.82944  22806389.6534   22806392.2894
 -21269900.41644 -16573940.93744  21230589.5784   21230591.6164
 -22961392.95044 -17891983.18844  20753236.2274   20753237.3284
  -7063118.49544  -5503723.90044  23861336.0254   23861338.9594
 -16126985.83144 -12566466.56744  21479718.0794   21479719.7364
 96  2 16  1 31  0.0000000  0  7G12G24G 2G 9G 4G 5G 7
 -12849180.991 4 -10012337.796 4  21872633.519    21872630.690
  -9257778.72544  -7213848.70044  22241188.3594   22241191.5374
  -1333432.90544  -1039033.97144  22818444.4744   22818447.1304
 -21302422.92744 -16599283.14944  21224400.9844   21224402.8414
 -22992552.42944 -17916263.28544  20747306.9244   20747308.0054
  -7145979.16044  -5568290.60044  23845567.7174   23845569.9614
 -16068593.76244 -12520966.24944  21490829.8574   21490831.7054
 96  2 16  1 31 30.0000000  0  7G12G24G 2G 9G 4G 5G 7
 -12782619.388 4  -9960471.626 4  21885300.095    21885296.938
  -9350282.13044  -7285929.22944  22223585.9914   22223588.9304
  -1269845.11344   -989485.05144  22830544.4164   22830547.4334
 -21334411.86944 -16624209.59444  21218313.3574   21218315.2774
 -23023154.68544 -17940109.18544  20741483.4094   20741484.2794
  -7228878.54544  -5632887.46444  23829792.7674   23829795.0464
 -16010087.67144 -12475377.08544  21501963.2924   21501965.1094
 96  2 16  1 32  0.0000000  0  7G12G24G 2G 9G 4G 5G 7
 -12715690.817 4  -9908319.498 4  21898035.881    21898033.011
  -9442502.06944  -7357788.88944  22206037.3354   22206040.4774
  -1206020.12344   -939751.30044  22842690.3374   22842692.4854
 -21365884.97144 -16648734.08344  21212324.5624   21212326.3584
 -23053177.74844 -17963503.75844  20735769.9844   20735771.2694
  -7311828.92744  -5697524.07544  23814007.3144   23814009.7374
 -15951470.69844 -12429701.52144  21513117.2884   21513119.3404
 96  2 16  1 32 30.0000000  0  7G12G24G 2G 9G 4G 5G 7
 -12648354.667 4  -9855849.772 4  21910849.661    21910846.644
  -9534406.37544  -7429402.57844  22188548.2834   22188551.4274
  -1141921.03344   -889803.96044  22854887.9784   22854890.2464
 -21396815.63144 -16672835.89344  21206438.2514   21206440.1224
 -23082564.47444 -17986402.48444  20730178.0984   20730179.3954
  -7394786.89244  -5762166.58344  23798221.2744   23798223.6034
 -15892687.31544 -12383896.28544  21524303.2444   21524305.0304
 96  2 16  1 33  0.0000000  0  7G12G24G 2G 9G 4G 5G 7
 -12580632.831 4  -9803079.526 4  21923736.643    21923733.763
  -9626021.43344  -7500790.90444  22171114.1014   22171117.2004
  -1077568.36844   -839659.03244  22867133.9794   22867136.5174
 -21427211.69744 -16696521.13444  21200654.4984   21200656.1294
 -23111345.81444 -18008829.48344  20724701.2474   20724702.2044
  -7477771.31244  -5826829.72044  23782429.4284   23782431.8804
 -15833738.62444 -12337962.23744  21535520.9814   21535523.1974
 96  2 16  1 33 30.0000000  0  7G12G24G 2G 9G 4G 5G 7
 -12512509.824 4  -9749996.676 4  21936699.894    21936697.143
  -9717339.45344  -7571947.76044  22153736.8804   22153739.9944
  -1012936.31844   -789296.40544  22879432.9144   22879435.3174
 -21457049.85644 -16719771.64244  21194976.4434   21194978.0924
 -23139514.07444 -18030778.76044  20719340.9744   20719341.8184
  -7560753.29444  -5891490.95744  23766639.2814   23766642.4454
 -15774604.79744 -12291883.92844  21546774.2664   21546776.1794
 96  2 16  1 34  0.0000000  0  7G12G24G 2G 9G 4G 5G 7
 -12444006.478 4  -9696617.450 4  21949735.797    21949732.829
  -9808378.69944  -7642887.37744  22136412.8264   22136415.9504
   -948050.47744   -738736.00844  22891780.6264   22891781.8044
 -21486339.83744 -16742594.99744  21189402.6044   21189404.1824
 -23167106.21344 -18052279.11244  20714090.3194   20714091.0904
  -7643731.95944  -5956149.61144  23750848.2544   23750850.3154
 -15715307.27144 -12245678.05944  21558058.2224   21558059.9414
 96  2 16  1 34 30.0000000  0  7G12G24G 2G 9G 4G 5G 7
 -12375096.196 4  -9642921.147 4  21962849.055    21962846.112
  -9899101.64744  -7713580.54344  22119148.5664   22119151.6754
   -882895.44444   -687965.85344  22904178.9344   22904181.5954
 -21515037.18044 -16764956.56144  21183941.6924   21183943.6324
 -23194095.04244 -18073309.35344  20708954.2654   20708955.4954
  -7726666.06944  -6020773.53644  23735066.1024   23735069.1944
 -15655828.93644 -12199331.30044  21569376.5384   21569378.3764
 96  2 16  1 35  0.0000000  0  7G12G24G 2G 9G 4G 5G 7
 -12305785.091 4  -9588912.504 4  21976038.528    21976035.559
  -9989490.09944  -7784013.06144  22101948.2754   22101951.4164
   -817484.32944   -636996.16744  22916626.3514   22916628.6044
 -21543133.76544 -16786849.99944  21178595.1224   21178596.8824
 -23220487.46644 -18093874.85844  20703931.8074   20703933.0014
  -7809554.98244  -6085362.24744  23719293.2744   23719295.4654
 -15596187.92244 -12152857.78444  21580725.7784   21580727.7454
 96  2 16  1 35 30.0000000  0  7G12G24G 2G 9G 4G 5G 7
 -12236050.974 4  -9534574.246 4  21989308.569    21989305.508
 -10079515.05344  -7854162.33144  22084817.2784   22084819.9384
   -751797.11444   -585811.34244  22929126.4034   22929129.5624
 -21570616.70944 -16808265.27444  21173365.2044   21173366.9314
 -23246248.49744 -18113948.36744  20699030.0624   20699031.0574
  -7892372.01644  -6149894.95044  23703533.0844   23703535.0874
 -15536377.77644 -12106252.47344  21592107.0224   21592108.9874
 96  2 16  1 36  0.0000000  0  7G12G24G 2G 9G 4G 5G 7
 -12165949.148 4  -9479949.454 4  22002648.394    22002645.431
 -10169214.79144  -7924058.19244  22067747.9314   22067750.7034
   -685884.72144   -534451.04644  22941668.8874   22941671.4454
 -21597553.41244 -16829254.91144  21168239.3394   21168241.3574
 -23271414.66044 -18133558.35044  20694241.2084   20694242.2394
  -7975176.54944  -6214417.91344  23687777.0874   23687779.6974
 -15476466.93444 -12059568.69944  21603507.6804   21603509.5004
 96  2 16  1 36 30.0000000  0  7G12G24G 2G 9G 4G 5G 7
 -12095457.504 4  -9425020.904 4  22016062.534    22016059.535
 -10258554.17044  -7993673.23844  22050747.3154   22050750.1914
   -619710.40644   -482886.66644  22954261.4174   22954264.0404
 -21623934.91744 -16849811.92544  21163219.0554   21163220.9644
 -23295949.27044 -18152676.21244  20689572.2394   20689573.2724
  -8057952.09644  -6278918.30544  23672023.9664   23672026.5464
 -15416438.74844 -12012793.48444  21614930.4984   21614932.4484
 96  2 16  1 37  0.0000000  0  7G12G24G 2G 9G 4G 5G 7
 -12024529.955 4  -9369752.686 4  22029559.635    22029556.584
 -10347482.03344  -8062967.64544  22033824.7854   22033827.4484
   -553201.59144   -431061.63344  22966918.1314   22966919.7934
 -21649728.54844 -16869910.85744  21158310.7144   21158312.6554
 -23319814.90744 -18171272.79044  20685030.6204   20685031.5494
  -8140644.62044  -6343353.99644  23656288.8824   23656291.2694
 -15356231.53444 -11965878.76844  21626387.2964   21626389.2834
 96  2 16  1 37 30.0000000  0  7G12G24G 2G 9G 4G 5G 7
 -11953251.869 4  -9314211.339 4  22043123.496    22043120.277
 -10436088.58844  -8132011.68744  22016963.3984   22016966.1654
   -486414.02244   -379019.40544  22979626.7174   22979629.9874
 -21675029.15544 -16889625.60944  21153496.4764   21153498.2854
 -23343094.36544 -18189412.61444  20680600.6964   20680601.6964
  -8223343.48444  -6407794.63244  23640550.7304   23640554.2304
 -15295932.65844 -11918892.62744  21637861.5074   21637863.6764
 96  2 16  1 38  0.0000000  0  7G12G24G 2G 9G 4G 5G 7
 -11881623.112 4  -9258396.730 4  22056753.707    22056750.596
 -10524367.04144  -8200800.05544  22000165.0484   22000167.3734
   -419348.67844   -326760.71844  22992389.4094   22992391.1014
 -21699827.30444 -16908948.84044  21148777.1484   21148779.0504
 -23365796.11844 -18207102.27944  20676280.8184   20676281.6554
  -8306041.11944  -6472234.32044  23624815.1144   23624817.6574
 -15235526.78144 -11871823.10844  21649356.6474   21649358.7714
 96  2 16  1 38 30.0000000  0  7G12G24G 2G 9G 4G 5G 7
 -11809631.295 4  -9202299.216 4  22070453.550    22070450.294
 -10612312.15844  -8269328.68044  21983429.0834   21983432.1174
   -351999.22644   -274280.63344  23005205.3134   23005207.8944
 -21724096.94144 -16927860.24144  21144159.2104   21144160.7714
 -23387924.61044 -18224345.23944  20672069.9054   20672071.0144
  -8388722.54644  -6536661.36644  23609081.1274   23609083.4114
 -15174984.09744 -11824646.98644  21660877.1224   21660879.3914
 96  2 16  1 39  0.0000000  0  7G12G24G 2G 9G 4G 5G 7
 -11737246.311 4  -9145895.350 4  22084227.761    22084224.426
 -10699898.24044  -8337577.54244  21966762.1804   21966764.7584
   -284350.80544   -221567.59944  23018078.6234   23018080.4134
 -21747791.83544 -16946323.79044  21139649.7534   21139651.5534
 -23409461.59344 -18241127.28844  20667971.6044   20667972.6284
  -8471363.91144  -6601057.20244  23593354.7694   23593357.5444
 -15114268.18344 -11777335.88144  21672431.3964   21672433.3504
 96  2 16  1 39 30.0000000  0  7G12G24G 2G 9G 4G 5G 7
 -11664626.912 4  -9089308.811 4  22098046.935    22098043.558
 -10787282.33744  -8405669.01744  21950133.3154   21950136.3254
   -216592.27844   -168768.76144  23030972.1364   23030974.0884
 -21771055.64644 -16964451.43344  21135222.9334   21135224.5974
 -23430564.29144 -18257570.93444  20663955.7534   20663956.6384
  -8554142.69044  -6665560.11344  23577602.9024   23577604.6614
 -15053548.52844 -11730021.85844  21683985.7814   21683988.1684
 96  2 16  1 40  0.0000000  0  7G12G24G 2G 9G 4G 5G 7
 -11591646.024 4  -9032440.597 4  22111934.671    22111931.464
 -10874330.17644  -8473498.47444  21933568.4044   21933571.4074
   -148622.19944   -115805.07744  23043906.9204   23043909.0194
 -21793751.08644 -16982136.18444  21130904.2314   21130905.8644
 -23451111.88644 -18273582.03744  20660045.6384   20660046.8004
  -8636928.50744  -6730068.49944  23561849.0764   23561851.6754
 -14992700.29644 -11682607.65344  21695564.8794   21695566.9574
 96  2 16  1 40 30.0000000  0  7G12G24G 2G 9G 4G 5G 7
 -11518301.884 4  -8975289.334 4  22125891.745    22125888.548
 -10961041.97944  -8541066.08044  21917067.4264   21917070.5494
    -80425.48944    -62664.80244  23056883.6714   23056886.1424
 -21815876.03444 -16999376.40344  21126694.0344   21126695.8554
 -23471096.81544 -18289154.69444  20656242.5924   20656243.5664
  -8719725.72444  -6794585.76844  23546093.2334   23546095.8454
 -14931736.19844 -11635103.15744  21707166.1684   21707167.8814
 96  2 16  1 41  0.0000000  0  7G12G24G 2G 9G 4G 5G 7
 -11444648.726 4  -8917897.270 4  22139907.231    22139904.349
 -11047474.59744  -8608416.14844  21900620.2674   21900622.4194
    -12053.02144     -9387.53044  23069895.6084   23069897.3364
 -21837496.09744 -17016223.20344  21122579.9094   21122581.4574
 -23490556.09244 -18304317.75244  20652539.5704   20652540.3904
  -8802594.97944  -6859159.17644  23530323.4144   23530326.6224
 -14870726.60744 -11587563.21144  21718775.5384   21718777.5984
 96  2 16  1 41 30.0000000  0  7G12G24G 2G 9G 4G 5G 7
 -11370576.494 4  -8860178.666 4  22154002.772    22153999.796
 -11133516.89044  -8675462.06344  21884247.1274   21884249.8614
     56615.25244     44120.19444  23082961.4514   23082964.7314
 -21858507.16944 -17032595.46144  21118581.5774   21118583.3314
 -23509363.83044 -18318973.11944  20648960.6024   20648961.7304
  -8885410.76744  -6923690.91044  23514564.1544   23514565.9554
 -14809571.86944 -11539910.16444  21730413.1734   21730415.3264
 96  2 16  1 42  0.0000000  0  7G12G24G 2G 9G 4G 5G 7
 -11296119.151 4  -8802159.964 4  22168171.424    22168168.466
 -11219199.49544  -8742227.69744  21867942.3074   21867944.5624
    125566.28544     97848.26444  23096083.5394   23096084.9434
 -21878948.58944 -17048523.84044  21114691.6104   21114693.3194
 -23527542.91144 -18333138.61944  20645501.0994   20645502.1114
  -8968197.15844  -6988199.75944  23498810.3284   23498812.3824
 -14748301.41244 -11492166.94644  21742073.1544   21742074.7474
 96  2 16  1 42 30.0000000  0  7G12G24G 2G 9G 4G 5G 7
 -11221300.860 4  -8743860.006 4  22182408.817    22182405.934
 -11304552.18644  -8808736.26444  21851700.0834   21851702.6034
    194776.49944    151778.28844  23109252.9744   23109256.2844
 -21898853.32544 -17064034.02444  21110903.9024   21110905.6284
 -23545100.37744 -18346819.74944  20642160.2474   20642161.1284
  -9050975.89644  -7052702.63344  23483057.8354   23483059.9474
 -14686925.40744 -11444341.48144  21753752.4174   21753754.0554
 96  2 16  1 43  0.0000000  0  7G12G24G 2G 9G 4G 5G 7
 -11146130.399 4  -8685285.633 4  22196713.097    22196710.288
 -11389571.12044  -8874984.76144  21835521.2654   21835524.3184
    264232.44844    205899.75444  23122470.5334   23122473.2284
 -21918228.80444 -17079131.79844  21107216.7084   21107218.5184
 -23562046.63744 -18360024.61944  20638935.3454   20638936.3584
  -9133749.08044  -7117201.18544  23467307.0144   23467310.1904
 -14625444.59444 -11396434.35344  21765451.6534   21765453.0714
 96  2 16  1 43 30.0000000  0  7G12G24G 2G 9G 4G 5G 7
 -11070592.487 4  -8626424.935 4  22211087.717    22211084.765
 -11474225.11144  -8940948.88444  21819412.1554   21819415.1894
    333952.68444    260227.19544  23135737.5094   23135739.7324
 -21937046.62244 -17093795.03044  21103635.8584   21103637.6234
 -23578376.18844 -18372748.92344  20635827.8464   20635829.1944
  -9216482.95044  -7181669.10544  23451563.5714   23451566.0734
 -14563829.74944 -11348422.78144  21777176.1734   21777178.2554
 96  2 16  1 44  0.0000000  0  7G12G24G 2G 9G 4G 5G 7
 -10994702.493 4  -8567289.888 4  22225528.984    22225526.160
 -11558530.36344  -9006641.26844  21803369.8734   21803372.6124
    403917.98744    314745.60544  23149051.6644   23149054.5834
 -21955319.56744 -17108033.68844  21100158.6094   21100160.3144
 -23594108.11344 -18385007.54844  20632834.2214   20632835.2534
  -9299197.10044  -7246121.65344  23435823.2094   23435825.8104
 -14502080.78344 -11300306.70244  21788926.6834   21788928.7614
 96  2 16  1 44 30.0000000  0  7G12G24G 2G 9G 4G 5G 7
 -10918474.883 4  -8507891.751 4  22240034.985    22240031.852
 -11642504.32044  -9072075.50044  21787390.0754   21787392.2784
    474116.44744    369445.68544  23162409.7604   23162412.7344
 -21973051.45444 -17121850.74344  21096784.4484   21096786.2404
 -23609267.30244 -18396819.89344  20629949.5954   20629950.5484
  -9381889.93044  -7310557.59044  23420087.4754   23420090.6444
 -14440216.95044 -11252101.11344  21800699.3774   21800701.0304
 96  2 16  1 45  0.0000000  0  7G12G24G 2G 9G 4G 5G 7
 -10841931.882 4  -8448247.867 4  22254600.655    22254597.569
 -11726157.41544  -9137259.71844  21771471.2494   21771473.5594
    544540.05844    424321.19744  23175811.5634   23175813.7364
 -21990256.47044 -17135257.25044  21093510.5394   21093512.3164
 -23623882.85944 -18408208.62844  20627168.3514   20627169.2754
  -9464586.17744  -7374996.19544  23404350.4724   23404352.5094
 -14378284.94744 -11203842.40744  21812484.3374   21812485.9854
 96  2 16  1 45 30.0000000  0  7G12G24G 2G 9G 4G 5G 7
 -10765076.641 4  -8388360.688 4  22269225.816    22269222.632
 -11809490.51544  -9202194.58144  21755613.3444   21755615.7934
    615181.37344    479366.38044  23189253.7264   23189256.1844
 -22006941.27944 -17148258.39944  21090335.5554   21090337.2584
 -23637953.62644 -18419172.84544  20624490.5004   20624491.5744
  -9547294.70644  -7439444.35344  23388611.3794   23388614.5424
 -14316292.67444 -11155536.73144  21824281.5754   21824283.1304
 96  2 16  1 46  0.0000000  0  8G12G26G24G 2G 9G 4G 5G 7
 -10687711.127 4  -8328075.878 4  22283947.719    22283944.856
        -0.50854        -0.88254  25233586.7174   25233591.3974
 -11892297.22444  -9266719.27144  21739855.4024   21739858.3194
    686241.85644    534738.15544  23202776.3734   23202778.4034
 -22022913.48544 -17160704.27744  21087296.1224   21087298.0274
 -23651283.03244 -18429559.37844  20621954.0904   20621954.9174
  -9629825.48944  -7503753.98644  23372906.5654   23372908.8744
 -14254061.75544 -11107045.10644  21836123.8744   21836125.1664
 96  2 16  1 46 30.0000000  0  7G12G24G 2G 9G 4G 5G 7
 -10610022.011 4  -8267538.907 4  22298731.629    22298728.619
 -11974750.53344  -9330968.58544  21724165.3554   21724168.1184
    757538.29344    590293.81244  23216343.5974   23216346.6234
 -22038364.22744 -17172743.81544  21084355.8714   21084357.6034
 -23664063.21244 -18439517.95544  20619522.1604   20619522.9534
  -9712370.17844  -7568074.58144  23357198.4064   23357200.6954
 -14191792.77044 -11058523.81244  21847973.0814   21847974.5574
 96  2 16  1 47  0.0000000  0  7G12G24G 2G 9G 4G 5G 7
 -10532027.156 4  -8206763.724 4  22313573.490    22313570.350
 -12056853.85044  -9394945.17344  21708541.4154   21708544.2324
    829043.39044    646012.03444  23229950.2994   23229952.9264
 -22053314.93544 -17184393.71944  21081510.9294   21081512.6224
 -23676296.43444 -18449050.32144  20617194.2954   20617195.2664
  -9794964.49544  -7632433.73644  23341481.8214   23341485.0044
 -14129491.40544 -11009977.29244  21859828.5874   21859829.8054
 96  2 16  1 47 30.0000000  0  7G12G24G 2G 9G 4G 5G 7
 -10453697.724 4  -8145727.814 4  22328479.120    22328476.046
 -12138584.42244  -9458631.31944  21692988.9434   21692991.1584
    900775.28544    701906.98844  23243600.5784   23243603.0574
 -22067725.99044 -17195623.11344  21078768.5294   21078770.1604
 -23687955.66744 -18458135.42144  20614975.6494   20614976.5154
  -9877560.58744  -7696794.28944  23325763.8814   23325766.3744
 -14067100.45744 -10961360.96244  21871701.0074   21871702.9234
 96  2 16  1 48  0.0000000  0  7G12G24G 2G 9G 4G 5G 7
 -10375068.931 4  -8084458.630 4  22343441.682    22343438.547
 -12219988.12944  -9522062.76844  21677498.6504   21677500.3004
    972701.39444    757953.29844  23257287.7044   23257290.1624
 -22081630.06844 -17206457.46044  21076122.8114   21076124.3864
 -23699078.35844 -18466802.44344  20612858.9524   20612859.7164
  -9960175.13644  -7761169.22844  23310043.1634   23310045.4314
 -14004644.29644 -10912693.82144  21883586.4704   21883587.7664
 96  2 16  1 48 30.0000000  0  7G12G24G 2G 9G 4G 5G 7
 -10296059.012 4  -8022892.467 4  22358476.982    22358473.894
 -12300986.41344  -9585178.30344  21662084.5744   21662087.3544
   1044896.47444    814209.19044  23271026.0464   23271029.1064
 -22094931.27444 -17216822.03544  21073591.5684   21073593.1814
 -23709563.75144 -18474972.86744  20610863.5414   20610864.4224
 -10042722.41144  -7825491.75844  23294335.1934   23294337.6034
 -13942021.04744 -10863896.47744  21895503.0434   21895504.3414
 96  2 16  1 49  0.0000000  0  7G12G24G 2G 9G 4G 5G 7
 -10216716.287 4  -7961066.980 4  22373575.476    22373572.176
 -12381630.10444  -9648017.52444  21646738.4604   21646741.3334
   1117315.59544    870639.67644  23284806.7274   23284808.5854
 -22107660.03844 -17226740.55744  21071169.2684   21071170.9524
 -23719453.90144 -18482679.46944  20608981.6954   20608982.4684
 -10125242.95044  -7889793.44144  23278631.7474   23278634.0754
 -13879278.24744 -10815005.98144  21907442.6354   21907443.9664
 96  2 16  1 49 30.0000000  0  7G12G24G 2G 9G 4G 5G 7
 -10136997.883 4  -7898948.758 4  22388745.269    22388741.927
 -12461876.80544  -9710547.40144  21631468.2014   21631470.7454
   1190008.38244    927283.38944  23298639.7054   23298643.2034
 -22119767.97744 -17236175.31744  21068865.1044   21068866.7934
 -23728721.70744 -18489901.12944  20607218.0514   20607218.9574
 -10207675.82344  -7954026.82144  23262945.3634   23262947.6644
 -13816387.92644 -10766000.53644  21919410.5064   21919411.7804
 96  2 16  1 50  0.0000000  0  7G12G24G 2G 9G 4G 5G 7
 -10056961.370 4  -7836582.646 4  22403975.856    22403972.508
 -12541765.30944  -9772798.15744  21616266.1744   21616268.5234
   1262922.47344    984099.55444  23312514.9554   23312516.7014
 -22131316.83344 -17245174.42144  21066667.6524   21066669.1254
 -23737416.05444 -18496675.92944  20605563.5224   20605564.4204
 -10290101.18244  -8018254.36044  23247260.0704   23247262.7194
 -13753433.52744 -10716945.15644  21931390.1154   21931391.1274
 96  2 16  1 50 30.0000000  0  7G12G24G 2G 9G 4G 5G 7
  -9976564.897 4  -7773936.057 4  22419274.719    22419271.516
 -12621235.16844  -9834722.70344  21601143.1574   21601146.1764
   1336100.38744   1041121.31444  23326439.6674   23326443.3134
 -22142254.51944 -17253697.29144  21064586.1994   21064587.7464
 -23745486.22144 -18502964.36144  20604027.7544   20604028.7424
 -10372495.50344  -8082457.70344  23231581.0874   23231583.4964
 -13690385.83244 -10667817.08144  21943388.0214   21943389.4854
 96  2 16  1 51  0.0000000  0  7G12G24G 2G 9G 4G 5G 7
  -9895862.316 4  -7711050.939 4  22434631.871    22434628.698
 -12700343.90744  -9896365.84544  21586089.3094   21586091.9384
   1409486.67144   1098305.41544  23340405.4084   23340408.2184
 -22152649.63044 -17261797.38044  21062608.0664   21062609.8984
 -23752996.91644 -18508816.84144  20602598.4984   20602599.5244
 -10454899.38244  -8146668.49844  23215899.9474   23215902.1874
 -13627306.49344 -10618664.34044  21955390.9884   21955392.6184
 96  2 16  1 51 30.0000000  0  7G12G24G 2G 9G 4G 5G 7
  -9814804.914 4  -7647889.341 4  22450056.637    22450053.415
 -12779044.04244  -9957690.61044  21571113.6294   21571115.9814
   1483128.62244   1155688.72344  23354418.2224   23354421.3994
 -22162464.96144 -17269445.69044  21060740.2424   21060741.7824
 -23759888.75844 -18514187.09544  20601287.0364   20601288.1564
 -10537260.67344  -8210846.09844  23200227.1514   23200229.2634
 -13564132.71044 -10569438.01344  21967412.5184   21967414.0654
 96  2 16  1 52  0.0000000  0  7G12G24G 2G 9G 4G 5G 7
  -9733408.774 4  -7584463.784 4  22465545.650    22465542.691
 -12857353.71044 -10018711.11444  21556211.5394   21556213.9254
   1557010.76344   1213259.17444  23368478.5024   23368480.8054
 -22171719.82444 -17276657.27144  21058979.1444   21058980.9094
 -23766158.21244 -18519072.37044  20600093.9154   20600095.0754
 -10619603.76544  -8275009.51944  23184557.7234   23184559.3784
 -13500861.22744 -10520135.55544  21979452.6554   21979454.5014
 96  2 16  1 52 30.0000000  0  7G12G24G 2G 9G 4G 5G 7
  -9651648.247 4  -7520754.289 4  22481104.221    22481101.187
 -12935267.59844 -10079423.21244  21541385.1644   21541387.6024
   1631162.73144   1271039.95644  23382588.3834   23382591.4204
 -22180386.74044 -17283410.71244  21057329.9494   21057331.6814
 -23771775.61444 -18523449.55444  20599025.0484   20599025.7194
 -10701879.04544  -8339120.10044  23168901.5254   23168903.6974
 -13437444.61544 -10470720.01344  21991520.1084   21991521.9414
 96  2 16  1 53  0.0000000  0  7G12G24G 2G 9G 4G 5G 7
  -9569538.187 4  -7456772.436 4  22496729.558    22496726.242
 -13012804.29844 -10139841.40244  21526630.1914   21526632.5544
   1705577.97044   1329025.81944  23396749.9474   23396752.0374
 -22188482.77644 -17289719.31244  21055789.2984   21055791.0034
 -23776751.43544 -18527326.81144  20598078.1094   20598079.0214
 -10784084.98444  -8403176.65444  23153257.7564   23153259.9514
 -13373891.10944 -10421197.79844  22003614.2864   22003616.1564
 96  2 16  1 53 30.0000000  0  7G12G24G 2G 9G 4G 5G 7
  -9487080.848 4  -7392519.981 4  22512420.604    22512417.260
 -13089944.59444 -10199950.70144  21511950.8374   21511953.4244
   1780269.70544   1387227.19244  23410962.2344   23410965.8364
 -22196001.78944 -17295578.28444  21054358.5934   21054360.3904
 -23781085.02344 -18530703.62044  20597253.5464   20597254.6424
 -10866237.38744  -8467191.48844  23137625.0294   23137627.2514
 -13310202.73444 -10371570.48844  22015733.9904   22015735.7944
 96  2 16  1 54  0.0000000  0  7G12G24G 2G 9G 4G 5G 7
  -9404276.356 4  -7327997.006 4  22528177.806    22528174.497
 -13166676.57144 -10259741.83044  21497349.3194   21497351.5984
   1855234.90144   1445641.57044  23425227.8664   23425230.8914
 -22202943.75944 -17300987.61044  21053037.3654   21053039.0094
 -23784791.06344 -18533591.42944  20596548.2434   20596549.0984
 -10948331.16044  -8531160.63544  23122003.1024   23122004.7754
 -13246399.23544 -10321853.47544  22027875.3564   22027877.0634
 96  2 16  1 54 30.0000000  0  7G12G24G 2G 9G 4G 5G 7
  -9321123.683 4  -7263202.718 4  22544001.221    22543997.945
 -13242990.16544 -10319206.94344  21482827.0564   21482829.2764
   1930480.31544   1504274.35044  23439547.8624   23439551.3764
 -22209307.86944 -17305946.65744  21051826.5504   21051828.3224
 -23787885.90844 -18536002.98844  20595959.1794   20595959.9154
 -11030353.68444  -8595074.26844  23106394.5534   23106396.7274
 -13182509.05344 -10272068.90844  22040032.5884   22040034.1454
 96  2 16  1 55  0.0000000  0  7G12G24G 2G 9G 4G 5G 7
  -9237709.150 4  -7198204.416 4  22559874.642    22559871.154
 -13318946.51944 -10378393.68944  21468373.1844   21468375.4264
   2005923.18544   1563060.98444  23453902.7424   23453910.1044
 -22215185.89844 -17310526.94244  21050707.8674   21050709.5694
 -23790462.25244 -18538010.52344  20595469.0994   20595469.7914
 -11112399.60644  -8659006.14044  23090781.6954   23090784.1944
 -13118629.65944 -10222292.74844  22052188.1674   22052190.8404
 96  2 16  1 55 30.0000000  0  7G12G24G 2G 9G 4G 5G 7
  -9153978.813 4  -7132960.001 4  22575807.683    22575804.648
 -13394489.72944 -10437258.49844  21453997.9194   21454000.0474
   2081612.17544   1622039.43344  23468307.0354   23468306.3254
 -22220523.80944 -17314686.35144  21049692.1324   21049693.7474
 -23792480.13744 -18539582.89344  20595085.0124   20595085.9854
 -11194416.96344  -8722915.74644  23075174.4524   23075176.4894
 -13054706.00044 -10172482.10044  22064353.3844   22064355.4294
 96  2 16  1 56  0.0000000  0  7G12G24G 2G 9G 4G 5G 7
  -9069864.690 4  -7067416.535 4  22591814.169    22591810.821
 -13469560.93644 -10495755.51544  21439712.3744   21439714.4954
   2157606.55244   1681255.78144  23482767.4384   23482771.2704
 -22225242.71244 -17318363.41444  21048794.0264   21048795.6724
 -23793873.74144 -18540668.80244  20594819.7314   20594821.0624
 -11276328.58544  -8786742.97144  23059587.2364   23059589.8604
 -12990668.35244 -10122582.63244  22076538.3154   22076540.6244
 96  2 16  1 56 30.0000000  0  7G12G24G 2G 9G 4G 5G 7
  -8985432.088 4  -7001624.920 4  22607880.969    22607877.801
 -13544218.03744 -10553929.86344  21425505.5384   21425507.5514
   2233855.90544   1740670.85844  23497278.0434   23497280.8184
 -22229400.07544 -17321602.92144  21048003.0304   21048004.5544
 -23794693.91044 -18541307.88244  20594663.7914   20594664.8094
 -11358208.06544  -8850545.14444  23044005.9094   23044008.0604
 -12926556.89044 -10072625.64544  22088738.7184   22088741.5034
 96  2 16  1 57  0.0000000  0  7G12G24G 2G 9G 4G 5G 7
  -8900681.015 4  -6935585.128 4  22624008.557    22624005.536
 -13618453.27144 -10611775.47144  21411378.8634   21411381.2624
   2310352.58844   1800278.65744  23511833.5534   23511838.7734
 -22232991.19844 -17324401.19544  21047319.6884   21047321.3054
 -23794925.89544 -18541488.64544  20594619.6654   20594620.3694
 -11440051.38144  -8914319.13844  23028431.4084   23028433.0394
 -12862342.88444 -10022588.75244  22100958.9084   22100961.2554
 96  2 16  1 57 30.0000000  0  7G12G24G 2G 9G 4G 5G 7
  -8815626.697 4  -6869309.063 4  22640193.812    22640191.009
 -13692281.95044 -10669304.28644  21397329.5774   21397332.4004
   2387073.74444   1860061.32044  23526435.0574   23526437.8314
 -22236018.30344 -17326759.97644  21046743.3574   21046744.9984
 -23794586.96744 -18541224.53644  20594684.0024   20594684.9834
 -11521865.28644  -8978070.21444  23012862.8424   23012865.3694
 -12798035.92744  -9972479.43444  22113196.2584   22113198.2374
 96  2 16  1 58  0.0000000  0  7G12G24G 2G 9G 4G 5G 7
  -8730285.823 4  -6802809.686 4  22656433.522    22656430.663
 -13765710.37744 -10726521.21644  21383356.2104   21383359.1094
   2464007.43844   1920009.65944  23541074.1934   23541077.7924
 -22238494.70144 -17328689.63844  21046272.4494   21046274.1604
 -23793673.25544 -18540512.53844  20594857.8494   20594859.1904
 -11603655.51844  -9041802.84144  22997299.2214   22997300.8454
 -12733650.40344  -9922308.89044  22125448.5264   22125450.1274
 96  2 16  1 58 30.0000000  0  7G12G24G 2G 9G 4G 5G 7
  -8644643.871 4  -6736075.704 4  22672730.757    22672727.777
 -13838719.48444 -10783411.40344  21369463.2474   21369466.0974
   2541168.07844   1980134.75944  23555757.7794   23555761.6544
 -22240409.96744 -17330182.05844  21045907.7474   21045909.5034
 -23792168.28944 -18539339.82444  20595144.5204   20595145.5114
 -11685401.09544  -9105500.67044  22981742.9934   22981744.7434
 -12669180.17744  -9872072.34844  22137716.7904   22137718.6894
 96  2 16  1 59  0.0000000  0  7G12G24G 2G 9G 4G 5G 7
  -8558722.024 4  -6669123.639 4  22689081.231    22689078.147
 -13911329.33544 -10839990.48844  21355646.4564   21355648.5154
   2618522.44244   2040410.89744  23570477.1574   23570481.9444
 -22241770.88044 -17331242.51344  21045648.9914   21045650.7354
 -23790099.26344 -18537727.59044  20595538.0874   20595538.7444
 -11767115.24744  -9169174.01244  22966193.4874   22966195.5694
 -12604670.80644  -9821805.30644  22149992.2894   22149994.0224
 96  2 16  1 59 30.0000000  0  7G12G24G 2G 9G 4G 5G 7
  -8472498.208 4  -6601936.268 4  22705489.093    22705486.140
 -13983519.52044 -10896242.55744  21341908.8014   21341911.3604
   2696101.52044   2100862.09244  23585239.6124   23585240.6874
 -22242552.37944 -17331851.47644  21045499.9964   21045501.7974
 -23787448.23244 -18535661.84344  20596042.3564   20596043.4104
 -11848791.59144  -9232817.89444  22950650.6504   22950653.0164
 -12540117.84144  -9771504.28644  22162275.7484   22162277.9794
 96  2 16  2  0  0.0000000  0  7G12G24G 2G 9G 4G 5G 7
  -8385942.003 4  -6534489.865 4  22721960.150    22721957.017
 -14055258.39344 -10952142.95544  21328257.2154   21328259.6594
   2773940.58244   2161515.88244  23600052.5444
 -22242723.69944 -17331984.97444  21045467.6304   21045469.2964
 -23784184.25544 -18533118.47444  20596663.5174   20596664.3254
 -11930408.27144  -9296415.28344  22935119.6214   22935122.3654
 -12475499.54444  -9721152.36544  22174572.5394   22174575.4924
 96  2 16  2  0 30.0000000  0  7G12G24G 2G 9G 4G 5G 7
  -8299068.015 4  -6466795.864 4  22738492.089    22738488.664
 -14126565.27844 -11007706.75544  21314687.9804   21314690.5744
   2852023.72444   2222359.92144  23614909.0774
 -22242298.06544 -17331653.31844  21045548.6644   21045550.3934
 -23780339.74944 -18530122.74644  20597395.1364   20597395.9084
 -12011986.34144  -9359982.58444  22919595.9504   22919598.6914
 -12410834.69444  -9670764.16744  22186877.5004   22186879.3194
 96  2 16  2  1  0.0000000  0  7G12G24G 2G 9G 4G 5G 7
  -8211908.114 4  -6398879.078 4  22755077.695    22755074.758
 -14197469.57544 -11062956.84244  21301195.2014   21301198.0124
   2930320.79944   2283370.61944  23629810.3614
 -22241320.55944 -17330891.62744  21045734.5854   21045736.2854
 -23775941.82444 -18526695.78244  20598232.1034   20598232.9324
 -12093550.68944  -9423539.19144  22904074.9504   22904077.0784
 -12346136.19644  -9620349.74744  22199189.4314   22199191.4054
 96  2 16  2  1 30.0000000  0  7G12G24G 2G 9G 4G 5G 7
  -8124402.780 4  -6330693.090 4  22771729.214    22771726.249
 -14267926.52044 -11117858.33844  21287787.7894   21287790.4134
   3008883.06544   2344587.94944  23644760.4544   23644762.2914
 -22239748.19944 -17329666.41344  21046033.9574   21046035.4614
 -23770931.91644 -18522791.94444  20599185.3354   20599186.3224
 -12175033.50544  -9487032.28244  22888569.2484   22888571.0644
 -12281325.39244  -9569847.81644  22211522.1694   22211524.6834
 96  2 16  2  2  0.0000000  0  7G12G24G 2G 9G 4G 5G 7
  -8036553.229 4  -6262238.910 4  22788446.255    22788443.644
 -14337938.97344 -11172413.47144  21274464.9824   21274467.4034
   3087699.92044   2406003.62844  23659758.6104   23659761.5064
 -22237585.09644 -17327980.87944  21046445.3744   21046447.1814
 -23765316.11444 -18518415.98644  20600254.2214   20600254.9174
 -12256415.73944  -9550446.99444  22873082.7524   22873084.8054
 -12216386.54144  -9519246.11444  22223879.6774   22223881.8234
 96  2 16  2  2 30.0000000  0  7G12G24G 2G 9G 4G 5G 7
  -7948415.356 4  -6193560.057 4  22805218.334    22805215.582
 -14407554.17644 -11226659.06744  21261217.7044   21261220.0464
   3166722.37744   2467579.61244  23674796.6384   23674798.4764
 -22234897.55544 -17325886.69444  21046956.7474   21046958.4474
 -23759141.51944 -18513604.60444  20601428.9794   20601430.0234
 -12337732.01444  -9613810.31044  22857608.5814   22857611.3874
 -12151363.98244  -9468579.18244  22236253.2684   22236254.6974
 96  2 16  2  3  0.0000000  0  7G12G24G 2G 9G 4G 5G 7
  -7859964.490 4  -6124637.321 4  22822050.434    22822047.203
 -14476734.69644 -11280565.94244  21248053.0964   21248055.3584
   3245976.82544   2529336.28044  23689878.0574   23689881.3864
 -22231658.20744 -17323362.53044  21047573.2414   21047574.9874
 -23752369.88044 -18508327.98944  20602717.5204   20602718.5804
 -12418950.58244  -9677097.49144  22842152.9984   22842155.7604
 -12086226.53244  -9417822.71744  22248648.2344   22248650.7304
 96  2 16  2  3 30.0000000  0  7G12G24G 2G 9G 4G 5G 7
  -7771206.579 4  -6055475.322 4  22838940.497    22838937.422
 -14545477.08544 -11334131.42344  21234971.8324   21234974.3144
   3325465.33744   2591275.34244  23705004.1664   23705007.3904
 -22227859.40044 -17320402.42544  21048296.1944   21048298.0644
 -23745005.14144 -18502589.22144  20604119.1064   20604120.0264
 -12500087.62444  -9740321.14244  22826713.1534   22826715.7714
 -12020982.80844  -9366983.46044  22261064.4154   22261065.9294
 96  2 16  2  4  0.0000000  0  7G12G24G 2G 9G 4G 5G 7
  -7682129.693 4  -5986064.800 4  22855890.984    22855888.243
 -14613739.14444 -11387322.62344  21221982.2014   21221984.3924
   3405226.55844   2653426.88144  23720182.4414   23720182.8634
 -22223484.52444 -17316993.43544  21049128.7554   21049130.4044
 -23737027.56744 -18496372.92444  20605637.3174   20605638.0804
 -12581125.66644  -9803467.64844  22811292.3404   22811294.2114
 -11955623.01944  -9316053.74944  22273502.1474   22273503.2154
 96  2 16  2  4 30.0000000  0  7G12G24G 2G 9G 4G 5G 7
  -7592774.930 4  -5916437.707 4  22872894.423    22872891.927
 -14681560.06044 -11440170.06844  21209076.0714   21209078.5194
   3485229.61544   2715766.92344  23735406.3434   23735409.5004
 -22218563.23744 -17313158.67344  21050065.1944   21050066.8574
 -23728464.64844 -18489700.51244  20607266.5654   20607267.5684
 -12662115.25744  -9866576.40144  22795880.4634   22795882.5844
 -11890197.43044  -9265072.76444  22285951.9044   22285953.1134
 96  2 16  2  5  0.0000000  0  7G12G24G 2G 9G 4G 5G 7
  -7503171.912 4  -5846617.161 4  22889945.813    22889942.663
 -14748977.72544 -11492703.29244  21196247.2364   21196249.4074
   3565432.03444   2778262.30044  23750667.7764   23750671.2104
 -22213106.61544 -17308906.76044  21051103.7074   21051105.3264
 -23719341.30144 -18482591.39544  20609002.5694   20609003.6854
 -12743104.74444  -9929685.07644  22780468.8704   22780470.4844
 -11824742.29744  -9214068.76344  22298408.0794   22298409.9504
 96  2 16  2  5 30.0000000  0  7G12G24G 2G 9G 4G 5G 7
  -7413283.712 4  -5776574.449 4  22907051.139    22907047.540
 -14815955.92544 -11544894.07844  21183501.4054   21183503.7604
   3645872.86444   2840943.45544  23765975.7324   23765978.9304
 -22207073.75044 -17304205.83144  21052251.7414   21052253.2614
 -23709627.43244 -18475022.14044  20610851.2964   20610851.8904
 -12824057.04144  -9992764.77244  22765064.3134   22765065.9044
 -11759230.21144  -9163020.38244  22310874.2004   22310876.1634
 96  2 16  2  6  0.0000000  0  7G12G24G 2G 9G 4G 5G 7
  -7323101.121 4  -5706302.309 4  22924211.845    22924209.076
 -14882485.44744 -11596735.24044  21170841.3954   21170843.6984
   3726562.51844   2903818.47944  23781331.0284   23781331.5844
 -22200454.95844 -17299048.33744  21053511.2744   21053512.8304
 -23699320.27544 -18466990.58644  20612812.4794   20612813.2284
 -12904954.07244 -10055801.40444  22749669.8204   22749672.2324
 -11693672.39244  -9111936.36744  22323349.0824   22323351.1604
 96  2 16  2  6 30.0000000  0  7G12G24G 2G 9G 4G 5G 7
  -7232632.854 4  -5635807.559 4  22941427.467    22941424.563
 -14948588.77344 -11648244.31544  21158262.4844   21158264.2764
   3807482.74844   2966873.17844  23796728.9524   23796732.0894
 -22193255.54244 -17293438.41044  21054881.4654   21054883.0964
 -23688417.85844 -18458495.18544  20614887.3424   20614888.1714
 -12985806.15544 -10118803.00644  22734284.4914   22734286.6034
 -11628089.58244  -9060832.87344  22335829.5444   22335831.6074
 96  2 16  2  7  0.0000000  0  8G12G20G24G 2G 9G 4G 5G 7
  -7141775.691 4  -5565009.792 4  22958717.584    22958714.195
        -0.48154                  25211823.8244
 -15014153.67544 -11699333.83344  21145785.8014   21145788.1664
   3888738.42044   3030189.25744  23812192.2824   23812195.2324
 -22185380.39944 -17287301.94044  21056379.8044   21056381.3364
 -23676820.49144 -18449458.26844  20617094.4174   20617095.1574
 -13066489.76244 -10181673.33144  22718930.5894   22718933.0624
 -11562381.07544  -9009631.44444  22348333.2184   22348334.9034
 96  2 16  2  7 30.0000000  0  8G12G20G24G 2G 9G 4G 5G 7
  -7050604.718 4  -5493967.489 4  22976066.872    22976063.855
    -95145.88344                  25193721.0694
 -15079243.11144 -11750052.86244  21133399.6514   21133401.7544
   3970265.28744   3093716.64644  23827705.5704   23827708.4494
 -22176922.99944 -17280711.76444  21057988.9644   21057990.4874
 -23664608.42044 -18439942.36644  20619418.2124   20619418.9804
 -13147054.81344 -10244451.27644  22703599.5704   22703601.7894
 -11496614.65144  -8958384.87544  22360848.3144   22360850.2994
 96  2 16  2  8  0.0000000  0  8G12G20G24G 2G 9G 4G 5G 7
  -6959218.480 4  -5422757.453 4  22993457.024    22993453.678
   -190410.39244                  25175593.3994
 -15143955.19844 -11800477.84444  21121085.1434   21121087.3844
   4051962.54644   3157376.84544  23843252.0914   23843255.5034
 -22167979.55944 -17273742.85344  21059690.9584   21059692.5734
 -23651864.58444 -18430012.10044  20621843.1054   20621844.0444
 -13227591.94744 -10307207.46844  22688273.6494   22688275.8844
 -11430883.89044  -8907166.09344  22373356.5024   22373357.4964
 96  2 16  2  8 30.0000000  0  8G12G20G24G 2G 9G 4G 5G 7
  -6867572.836 4  -5351345.286 4  23010896.360    23010893.357
   -285740.80344                  25157450.3684
 -15208245.59544 -11850574.24344  21108850.9584   21108853.4454
   4133868.22544   3221199.43244  23858838.4794   23858841.2224
 -22158503.57444 -17266358.97444  21061493.8914   21061495.5754
 -23638543.71044 -18419632.18744  20624377.9894   20624378.9584
 -13308051.10644 -10369902.89544  22672962.7204   22672964.8314
 -11365119.31344  -8855920.96644  22385870.8714   22385872.5934
 96  2 16  2  9  0.0000000  0  8G12G20G24G 2G 9G 4G 5G 7
  -6775667.175 4  -5279730.479 4  23028385.610    23028382.646
   -381124.57744   -296980.13244  25139300.6934
 -15272103.20544 -11900333.40544  21096699.2814   21096701.6004
   4215975.62644   3285179.17844  23874462.4374   23874464.8404
 -22148491.11044 -17258557.05844  21063399.3274   21063401.2494
 -23624664.79744 -18408817.44244  20627018.9924   20627020.1824
 -13388429.16944 -10432535.13344  22657667.1444   22657669.5644
 -11299306.28544  -8804638.08544  22398394.8244   22398396.5164
 96  2 16  2  9 30.0000000  0  8G12G20G24G 2G 9G 4G 5G 7
  -6683483.585 4  -5207899.124 4  23045927.367    23045924.196
   -476545.01444                  25121143.4014
 -15335508.84544 -11949740.38544  21084633.5864   21084635.9744
   4298301.40944   3349329.10744  23890128.8654   23890132.0824
 -22137916.27444 -17250316.93444  21065411.8944   21065413.6544
 -23610219.94144 -18397561.69744  20629767.6954   20629768.8274
 -13468721.14744 -10495100.29444  22642388.1844   22642390.2914
 -11233421.19244  -8753299.04944  22410932.0754   22410933.5684
 96  2 16  2 10  0.0000000  0  8G12G20G24G 2G 9G 4G 5G 7
  -6591020.124 4  -5135849.673 4  23063522.528    23063519.682
   -572018.18444                  25102974.5594
 -15398458.88744 -11998792.34644  21072654.5504   21072656.9494
   4380849.95944   3413652.67644  23905837.5914   23905838.1694
 -22126762.89044 -17241625.98744  21067534.2814   21067535.9724
 -23595220.23344 -18385873.60644  20632621.9404   20632622.9554
 -13548938.51744 -10557607.32044  22627123.1914   22627125.1814
 -11167454.16744  -8701896.16644  22423485.1794   22423487.2644
 96  2 16  2 10 30.0000000  0  8G12G20G24G 2G 9G 4G 5G 7
  -6498278.910 4  -5063583.796 4  23081170.967    23081167.690
   -667548.38944                  25084795.6914
 -15460945.35444 -12047483.07944  21060764.0534   21060766.2334
   4463623.29644   3478151.33144  23921588.9394   23921591.3404
 -22115040.88144 -17232491.96144  21069765.1134   21069766.7354
 -23579675.21044 -18373760.59544  20635580.2274   20635581.1504
 -13629083.74544 -10620058.12644  22611872.2314   22611874.2634
 -11101402.48344  -8650427.32644  22436054.3664   22436056.2564
 96  2 16  2 11  0.0000000  0  8G12G20G24G 2G 9G 4G 5G 7
  -6405278.911 4  -4991116.289 4  23098868.124    23098865.534
   -763147.53844   -594660.04944  25066603.2294
 -15522972.19744 -12095815.66844  21048960.6404   21048963.0534
   4546595.13544   3542804.65644  23937377.9174   23937381.1054
 -22102767.64544 -17222928.40144  21072100.6754   21072102.3284
 -23563602.13944 -18361236.11344  20638638.8364   20638639.8824
 -13709168.99144 -10682462.19944  22596632.7754   22596634.9154
 -11035297.77244  -8598917.15844  22448634.3074   22448635.7404
 96  2 16  2 11 30.0000000  0  8G12G20G24G 2G 9G 4G 5G 7
  -6312004.331 4  -4918434.802 4  23116617.578    23116614.909
   -858799.08944                  25048402.7414
 -15584508.12144 -12143765.72244  21037250.7894   21037252.8914
   4629787.41444   3607629.80244  23953209.2054   23953211.9864
 -22089927.39444 -17212923.02144  21074543.9504   21074545.5454
 -23546970.66644 -18348276.51344  20641803.7704   20641804.6254
 -13789178.44144 -10744807.20544  22581407.3774   22581409.4254
 -10969119.81644  -8547349.91744  22461226.7884   22461228.9184
 96  2 16  2 12  0.0000000  0  8G12G20G24G 2G 9G 4G 5G 7
  -6218452.729 4  -4845537.450 4  23134419.904    23134416.713
   -954501.03544   -743766.53044  25030189.9224   25030190.6744
 -15645545.42044 -12191327.23944  21025635.6404   21025638.0484
   4713201.89244   3672628.10444  23969081.8084   23969084.9474
 -22076528.54344 -17202482.35844  21077093.6404   21077095.2874
 -23529751.69344 -18334859.12644  20645080.2894   20645080.9834
 -13869092.02844 -10807077.51544  22566200.2504   22566202.3264
 -10902858.23144  -8495717.50944  22473835.6124   22473838.4644
 96  2 16  2 12 30.0000000  0  8G12G20G24G 2G 9G 4G 5G 7
  -6124635.446 4  -4772433.092 4  23152272.967    23152269.698
  -1050259.01244   -818383.09844  25011968.6674   25011970.9054
 -15706094.22244 -12238508.11744  21014113.7204   21014115.7544
   4796826.54344   3737790.11244  23984995.6524   23984997.8974
 -22062569.33244 -17191605.05344  21079750.0294   21079751.7044
 -23511941.67544 -18320981.18244  20648469.4444   20648470.3464
 -13948907.54244 -10869271.40444  22551011.7734   22551013.8834
 -10836536.81144  -8444038.47744  22486455.9594   22486459.0224
 96  2 16  2 13  0.0000000  0  8G12G20G24G 2G 9G 4G 5G 7
  -6030557.674 4  -4699125.762 4  23170175.511    23170171.884
  -1146086.81644   -893053.99644  24993732.3914   24993734.8504
 -15766163.84544 -12285315.60644  21002682.7714   21002684.9974
   4880658.74844   3803113.84844  24000948.2174   24000949.6494
 -22048046.87944 -17180288.86244  21082513.3614   21082515.2294
 -23493551.45444 -18306651.13644  20651969.1084   20651969.8724
 -14028627.83044 -10931391.09244  22535841.7444   22535843.5114
 -10770162.32244  -8392318.08944  22499086.8514   22499089.2494
 96  2 16  2 13 30.0000000  0  8G12G20G24G 2G 9G 4G 5G 7
  -5936213.542 4  -4625610.871 4  23188128.437    23188124.907
  -1241987.67344   -967781.90244  24975483.7234   24975486.8514
 -15825757.73044 -12331752.38444  20991342.3444   20991344.7194
   4964726.33044   3868621.05744  24016945.4214   24016947.6324
 -22032958.68844 -17168531.83244  21085384.7344   21085386.2234
 -23474565.23744 -18291856.67244  20655581.8444   20655582.8004
 -14108255.59444 -10993438.67844  22520688.9354   22520690.5514
 -10703723.22744  -8340547.36844  22511730.2654   22511732.0264
 96  2 16  2 14  0.0000000  0  8G 9G12G20G24G 2G 4G 5G 7
 -22017317.75544 -17156344.09944  21088360.9884   21088362.7724
  -5841620.860 4  -4551902.294 4  23206128.625    23206125.674
  -1337972.78444  -1042575.41744  24957218.5924   24957222.5634
 -15884910.72544 -12377845.61344  20980085.9284   20980088.2154
   5049023.35244   3934307.02944  24032986.7304   24032989.8354
 -23455014.00844 -18276621.93844  20659302.1404   20659303.3574
 -14187801.18144 -11055422.23544  22505551.7374   22505553.4484
 -10637252.34744  -8288751.87044  22524378.6584   22524380.8584
 96  2 16  2 14 30.0000000  0  8G 9G12G20G24G 2G 4G 5G 7
 -22001106.97844 -17143712.32944  21091445.5504   21091447.4114
  -5746770.293 4  -4477992.780 4  23224178.271    23224175.164
  -1434017.31544  -1117415.24744  24938941.6414   24938944.3714
 -15943606.85644 -12423582.84344  20968916.5874   20968918.9624
   5133550.15444   4000172.05644  24049071.6104   24049074.7834
 -23434912.27944 -18260958.23944  20663127.5754   20663128.5094
 -14267260.44244 -11117338.52944  22490430.9584   22490433.0864
 -10570763.82044  -8236942.62744  22537031.4974   22537033.4224
 96  2 16  2 15  0.0000000  0  8G 9G12G20G24G 2G 4G 5G 7
 -21984301.18444 -17130616.91444  21094643.7434   21094645.5204
  -5651604.757 4  -4403837.811 4  23242287.646    23242284.454
  -1530054.69344  -1192249.48944  24920665.7654   24920671.2814
 -16001781.84044 -12468913.98344  20957846.0344   20957848.4744
   5218366.49744   4066262.68844  24065211.3284   24065214.6464
 -23414199.42044 -18244818.34844  20667069.2814   20667069.8994
 -14346575.91044 -11179142.77344  22475337.9244   22475340.0984
 -10504194.78344  -8185070.65544  22549698.9934   22549701.2084
 96  2 16  2 15 30.0000000  0  8G 9G12G20G24G 2G 4G 5G 7
 -21966900.24344 -17117057.74744  21097955.0964   21097956.8024
  -5556121.947 4  -4329435.632 4  23260457.240    23260454.112
  -1626062.68044  -1267060.83544  24902396.5064   24902399.8514
 -16059426.34844 -12513831.76544  20946876.6924   20946879.0614
   5303468.70144   4132576.05344  24081405.9874   24081409.2044
 -23392869.11544 -18228197.32844  20671127.9224   20671128.9564
 -14425738.96044 -11240828.25544  22460273.5844   22460276.1184
 -10437540.96244  -8133132.61144  22562382.9284   22562385.0054
 96  2 16  2 16  0.0000000  0  8G 9G12G20G24G 2G 4G 5G 7
 -21948974.55144 -17103089.68544  21101366.2954   21101368.2414
  -5460396.558 4  -4254844.454 4  23278673.342    23278669.941
  -1722105.94344  -1341899.71944  24884119.0854   24884119.9054
 -16116604.62944 -12558386.25244  20935996.2024   20935998.3984
   5388765.23244   4199040.87244  24097637.7764   24097640.5924
 -23371008.64044 -18211163.18244  20675288.0314   20675289.1644
 -14504806.78944 -11302439.53244  22445227.4384   22445229.7144
 -10370873.92544  -8081184.26544  22575069.3884   22575070.2694
 96  2 16  2 16 30.0000000  0  8G 9G12G20G24G 2G 4G 5G 7
 -21930529.25644 -17088716.73744  21104876.0924   21104877.8904
  -5364431.143 4  -4180066.221 4  23296935.233    23296932.009
  -1818191.98744                  24865835.6054
 -16173300.96344 -12602565.20444  20925207.1574   20925209.4574
   5474242.68244   4265646.65944  24113903.0254   24113906.1564
 -23348604.77444 -18193705.61744  20679551.4924   20679552.1894
 -14583788.28744 -11363983.54544  22430197.7144   22430200.0834
 -10304175.88244  -8029211.75944  22587761.4544   22587762.6464
 96  2 16  2 17  0.0000000  0  8G 9G12G20G24G 2G 4G 5G 7
 -21911536.00944 -17073916.81244  21108490.5934   21108492.4704
  -5268213.373 4  -4105091.357 4  23315244.454    23315241.274
  -1914324.71744  -1491680.44644  24847541.2874   24847544.7434
 -16229506.06944 -12646361.37744  20914511.4504   20914513.9014
   5559932.55144   4332417.94544  24130209.1034   24130212.7624
 -23325633.09544 -18175805.60544  20683922.5904   20683923.6794
 -14662669.02344 -11425449.03744  22415187.4554   22415189.4724
 -10237407.32044  -7977184.29644  22600467.3814   22600468.5904
 96  2 16  2 17 30.0000000  0  8G 9G12G20G24G 2G 4G 5G 7
 -21891957.38644 -17058660.74844  21112216.3614   21112218.0174
  -5171743.771 4  -4029920.256 4  23333602.334    23333599.024
  -2010511.87944  -1566631.48144  24829238.3704
 -16285216.99744 -12689772.47344  20903909.8044   20903912.3134
   5645830.94444   4399351.73344  24146555.3584   24146558.4384
 -23302102.64544 -18157470.17644  20688400.2324   20688401.3804
 -14741449.92744 -11486836.74144  22400195.7934   22400197.6444
 -10170566.68044  -7925100.69044  22613186.1294   22613188.6034
 96  2 16  2 18  0.0000000  0  8G 9G12G20G24G 2G 4G 5G 7
 -21871803.34844 -17042956.31044  21116051.4034   21116053.2634
  -5075041.650 4  -3954567.975 4  23352004.357    23352001.032
  -2106779.23444  -1641644.91544  24810918.0054   24810921.8854
 -16340443.74844 -12732806.29544  20893400.6844   20893403.0634
   5731925.56144   4466438.47344  24162938.6954   24162940.2514
 -23278029.39444 -18138711.79544  20692981.3674   20692982.0524
 -14820152.82544 -11548163.66044  22385219.2464   22385221.0954
 -10103673.51244  -7872976.13744  22625916.1874   22625917.9454
 96  2 16  2 18 30.0000000  0  8G 9G12G20G24G 2G 4G 5G 7
 -21851059.37244 -17026792.18444  21119998.9644   21120000.8794
  -4978097.731 4  -3879027.239 4  23370451.831    23370448.346
  -2203114.25844  -1716711.08344  24792586.8724   24792589.9884
 -16395186.70844 -12775463.13144  20882983.4894   20882985.6494
   5818238.97244   4533695.64044  24179362.9934   24179367.4204
 -23253396.60444 -18119517.41144  20697668.7524   20697669.6434
 -14898767.66144 -11609421.96044  22370259.2474   22370261.0344
 -10036721.77244  -7820805.94844  22638655.4354   22638657.6994
 96  2 16  2 19  0.0000000  0  8G 9G12G20G24G 2G 4G 5G 7
 -21829739.16644 -17010179.04144  21124056.0484   21124057.7144
  -4880920.140 4  -3803304.456 4  23388944.188    23388941.023
  -2299508.96944  -1791823.80444  24774243.0374   24774246.0034
 -16449461.05644 -12817754.82244  20872655.3944   20872657.7074
   5904770.00244   4601122.40644  24195829.4244   24195834.1044
 -23228210.93144 -18099892.20544  20702461.5174   20702462.6994
 -14977283.19344 -11670602.88244  22355318.2424   22355320.1784
  -9969739.99944  -7768612.36144  22651402.7614   22651404.5954
 96  2 16  2 19 30.0000000  0  8G 9G12G20G24G 2G 4G 5G 7
 -21807847.69644 -16993120.75944  21128221.9354   21128223.7074
  -4783492.904 4  -3727387.139 4  23407484.245    23407480.081
  -2395925.18044  -1866953.25844  24755895.4954   24755898.9074
 -16503241.77244 -12859661.85944  20862421.0914   20862423.4584
   5991538.51044   4668734.20944  24212341.5544   24212343.8854
 -23202455.23044 -18079822.81544  20707362.5584   20707363.6174
 -15055673.95744 -11731686.57944  22340401.0434   22340402.9914
  -9902724.77144  -7716392.71044  22664155.0704   22664157.2854
 96  2 16  2 20  0.0000000  0  8G 9G12G20G24G 2G 4G 5G 7
 -21785406.27044 -16975633.94044  21132492.1664   21132493.8924
  -4685811.656 4  -3651271.894 4  23426072.091    23426068.890
  -2492354.12944  -1942092.62144  24737545.8544   24737550.2164
 -16556531.40244 -12901186.23044  20852280.5514   20852282.8594
   6078555.54744   4736539.67944  24228900.3964   24228904.0814
 -23176115.24644 -18059298.15244  20712374.8304   20712375.8084
 -15133918.42344 -11792656.27644  22325511.6004   22325513.5304
  -9835662.20144  -7664136.15344  22676916.5004   22676918.1184
 96  2 16  2 20 30.0000000  0  8G 9G12G20G24G 2G 4G 5G 7
 -21762430.82844 -16957731.01144  21136864.2774   21136866.2294
  -4587891.159 4  -3574970.225 4  23444705.494    23444702.567
  -2588812.63444  -2017255.00344  24719191.2714   24719195.1474
 -16609352.25344 -12942345.32544  20842229.0634   20842231.3344
   6165807.91944   4804528.51744  24245503.6464   24245506.6004
 -23149192.87144 -18038319.66944  20717498.1224   20717499.2674
 -15212018.75344 -11853513.66344  22310649.3874   22310651.0044
  -9768558.90044  -7611847.86444  22689685.9434   22689687.2164
 96  2 16  2 21  0.0000000  0  8G 9G12G20G24G 2G 4G 5G 7
 -21738938.88044 -16939425.60844  21141334.7564   21141336.8354
  -4489748.084 4  -3498495.098 4  23463382.232    23463378.475
  -2685314.41744  -2092451.15144  24700826.1384   24700830.0794
 -16661702.19044 -12983137.47244  20832267.1784   20832269.5234
   6253273.11844   4872683.18844  24262148.2274   24262151.4224
 -23121706.17644 -18016901.46444  20722728.7104   20722729.3654
 -15289995.16744 -11914274.48644  22295810.7564   22295813.1284
  -9701422.35444  -7559533.66544  22702461.7884   22702462.5374
 96  2 16  2 21 30.0000000  0  8G 9G12G20G24G 2G 4G 5G 7
 -21714918.90744 -16920708.75244  21145905.6044   21145907.4774
  -4391384.138 4  -3421847.883 4  23482100.156    23482096.403
  -2781869.88644  -2167689.10644  24682452.7814   24682457.8614
 -16713575.26944 -13023558.04144  20822396.0584   20822398.3554
   6340943.86944   4940998.02544  24278831.2214   24278832.4884
 -23093663.48144 -17995050.00744  20728065.1044   20728066.0144
 -15367851.50044 -11974941.74544  22280995.3774   22280997.6284
  -9634229.64144  -7507175.70644  22715248.7624   22715249.8434
 96  2 16  2 22  0.0000000  0  8G 9G12G20G24G 2G 4G 5G 7
 -21690345.08944 -16901560.32744  21150581.7704   21150583.6484
  -4292788.502 4  -3345020.143 4  23500861.497    23500858.902
  -2878467.51744  -2242959.91244  24664070.2694   24664071.6294
 -16764960.64844 -13063598.58344  20812617.7274   20812619.8334
   6428816.78044   5009470.38744  24295552.5644   24295554.2734
 -23065055.98744 -17972758.44644  20733508.8744   20733509.7984
 -15445588.10444 -12035515.70744  22266202.6124   22266204.7464
  -9566964.02744  -7454760.94944  22728047.5284   22728049.8674
 96  2 16  2 22 30.0000000  0  8G 9G12G20G24G 2G 4G 5G 7
 -21665217.28544 -16881980.23144  21155363.4384   21155365.3734
  -4193961.518 4  -3268012.127 4  23519668.104    23519664.528
  -2975090.44244  -2318250.44244  24645684.1634   24645687.4544
 -16815837.53244 -13103242.89944  20802935.8824   20802938.2264
   6516891.01644   5078099.63444  24312312.6804   24312317.0344
 -23035892.62544 -17950033.74144  20739058.5584   20739059.3594
 -15523222.72444 -12096010.20644  22251429.1794   22251431.2374
  -9499642.80144  -7402302.84744  22740859.5824   22740861.0114
 96  2 16  2 23  0.0000000  0  8G 9G12G20G24G 2G 4G 5G 7
 -21639551.64644 -16861981.04244  21160247.5084   21160249.2934
  -4094905.407 4  -3190825.556 4  23538518.065    23538513.890
  -3071730.29044  -2393554.16944  24627294.2984   24627300.7074
 -16866199.52944 -13142486.00244  20793352.5054   20793354.8414
   6605165.85944   5146885.23944  24329111.2444   24329114.1474
 -23006198.97144 -17926895.82744  20744708.8474   20744709.6024
 -15600765.72944 -12156433.31144  22236673.1524   22236675.2464
  -9432279.11544  -7349811.66444  22753678.0294   22753679.6644
 96  2 16  2 23 30.0000000  0  8G12G20G24G 2G 9G 4G 5G 7
  -3995601.633 4  -3113445.999 4  23557414.745    23557411.479
  -3168371.66644  -2468859.10444  24608903.5654   24608906.2794
 -16916037.88944 -13181321.07444  20783868.6254   20783871.0334
   6693661.39244   5215842.74844  24345950.5734   24345953.2784
 -21613338.96844 -16841555.58944  21165235.6824   21165237.3634
 -22975963.68844 -17903335.85844  20750462.3714   20750463.2904
 -15678204.81444 -12216775.44144  22221936.9664   22221939.0984
  -9364864.34844  -7297280.67844  22766506.9754   22766507.6204
 96  2 16  2 24  0.0000000  0  8G12G20G24G 2G 9G 4G 5G 7
  -3896058.664 4  -3035880.075 4  23576357.040    23576354.043
  -3265017.98544  -2544167.83044  24590512.4494   24590518.4344
 -16965361.81444 -13219755.29644  20774482.6714   20774484.8444
   6782376.70344   5284971.52744  24362832.8934   24362836.5714
 -21586594.64144 -16820715.85744  21170324.9654   21170326.6384
 -22945202.65544 -17879366.21844  20756316.2634   20756317.2384
 -15755550.24544 -12277044.59444  22207218.6614   22207220.7254
  -9297421.87344  -7244728.09444  22779339.8144   22779341.2114
 96  2 16  2 24 30.0000000  0  8G12G20G24G 2G 9G 4G 5G 7
  -3796281.136 4  -2958131.352 4  23595344.236    23595341.238
  -3361680.02644  -2619488.88244  24572118.1434   24572119.0184
 -17014180.31044 -13257795.67244  20765192.6484   20765194.9114
   6871308.75444   5354269.25044  24379756.7474   24379758.6514
 -21559324.25544 -16799466.21544  21175514.1424   21175515.8614
 -22913929.69344 -17854997.66844  20762266.9774   20762268.1864
 -15832786.06044 -12337228.32944  22192521.3154   22192523.2984
  -9229947.04544  -7192150.30244  22792180.1964   22792183.1884
 96  2 16  2 25  0.0000000  0  8G12G20G24G 2G 9G 4G 5G 7
  -3696268.774 4  -2880199.663 4  23614375.752    23614372.949
  -3458362.31244  -2694825.63344  24553720.3684   24553723.4034
 -17062497.32544 -13295445.28444  20755998.3294   20756000.5754
   6960456.71344   5423735.21844  24396721.0374   24396722.6904
 -21531514.51744 -16777796.29544  21180806.3464   21180808.1334
 -22882138.36244 -17830225.19644  20768316.6134   20768317.4784
 -15909891.62444 -12397310.57444  22177848.5504   22177850.3654
  -9162423.05644  -7139534.21744  22805029.2964   22805032.2614
 96  2 16  2 25 30.0000000  0  8G12G20G24G 2G 9G 4G 5G 7
  -3596031.618 4  -2802092.804 4  23633450.525    23633447.071
  -3555065.70244  -2770178.88444  24535318.0034   24535321.7534
 -17110310.53944 -13332702.31844  20746899.6064   20746902.0404
   7049814.84244   5493364.88444  24413725.1494   24413726.9984
 -21503161.64444 -16755703.16044  21186201.6914   21186203.3674
 -22849828.40344 -17805048.60444  20774465.2864   20774466.2594
 -15986854.62544 -12457281.72644  22163202.8494   22163204.7384
  -9094849.97544  -7086879.86544  22817887.5734   22817889.4014
 96  2 16  2 26  0.0000000  0  8G12G20G24G 2G 9G 4G 5G 7
  -3495588.946 4  -2723825.799 4  23652564.584    23652560.647
  -3651798.32644  -2845554.86344  24516910.3324   24516913.4034
 -17157632.04444 -13369576.20444  20737894.5484   20737897.0944
   7139366.96644   5563145.69744  24430766.3184   24430768.9964
 -21474268.96044 -16733189.39044  21191699.6574   21191701.4574
 -22817010.01944 -17779475.82744  20780710.3094   20780711.4204
 -16063663.75644 -12517132.98244  22148586.4814   22148588.3474
  -9027232.62844  -7034191.01644  22830756.0924   22830756.9904
 96  2 16  2 26 30.0000000  0  8G12G20G24G 2G 9G 4G 5G 7
  -3394950.409 4  -2645406.188 4  23671715.049    23671711.137
  -3748565.27744  -2920957.64644  24498495.2734   24498498.2924
 -17204463.48644 -13406068.22344  20728982.9424   20728985.2614
   7229102.63344   5633069.55644  24447842.5114   24447845.4614
 -21444839.06744 -16710257.01744  21197300.2354   21197302.0514
 -22783680.61044 -17753504.85444  20787052.8034   20787053.5514
 -16140319.37444 -12576864.62244  22133999.6374   22134001.7774
  -8959571.54144  -6981468.09744  22843630.8294   22843633.0644
 96  2 16  2 27  0.0000000  0  8G12G20G24G 2G 9G 4G 5G 7
  -3294107.516 4  -2566827.336 4  23690904.921    23690901.229
  -3845348.32144  -2996372.95344  24480078.9744   24480082.3354
 -17250790.33544 -13442167.05644  20720167.1154   20720169.3694
   7319034.94144   5703146.67644  24464955.6564   24464958.8614
 -21414865.92944 -16686901.33844  21203003.8064   21203005.6064
 -22749813.46444 -17727114.86744  20793497.4134   20793498.1514
 -16216816.51344 -12636472.77144  22119442.5244   22119444.5734
  -8891869.01844  -6928712.86744  22856514.2184   22856515.9434
 96  2 16  2 27 30.0000000  0  8G12G20G24G 2G 9G 4G 5G 7
  -3193083.556 4  -2488107.373 4  23710128.983    23710125.988
  -3942167.99344  -3071816.80444  24461654.3544   24461657.3454
 -17296647.05344 -13477899.55644  20711440.9194   20711443.0884
   7409135.74344   5773355.06344  24482101.4564   24482104.1544
 -21384370.91044 -16663138.98944  21208806.8674   21208808.7234
 -22715432.56344 -17700324.54744  20800039.8884   20800040.7124
 -16293177.06944 -12695974.49344  22104911.7674   22104913.7344
  -8824140.25944  -6875937.20244  22869402.1114   22869404.9084
 96  2 16  2 28  0.0000000  0  8G12G20G24G 2G 9G 4G 5G 7
  -3091864.783 4  -2409235.626 4  23729389.994    23729386.683
  -4039016.42444  -3147283.06444  24443224.3074   24443226.8754
 -17342022.62844 -13513257.13444  20702806.4304   20702808.6654
   7499418.88944   5843705.51544  24499282.2494   24499284.9014
 -21353341.82944 -16638960.48744  21214711.6164   21214713.5114
 -22680508.04944 -17673110.63544  20806685.9274   20806686.8734
 -16369399.53444 -12755368.61344  22090407.1354   22090408.8084
  -8756367.71244  -6823127.43844  22882298.6764   22882301.8744
 96  2 16  2 28 30.0000000  0  8G12G20G24G 2G 9G 4G 5G 7
  -2990445.686 4  -2330207.781 4  23748689.559    23748686.394
  -4135889.88844  -3222768.81444  24424790.4374   24424794.0864
 -17386898.07544 -13548225.00144  20694266.8314   20694269.0014
   7589893.94144   5914205.53944  24516499.4534   24516501.7194
 -21321792.07444 -16614376.27044  21220715.2244   21220717.1064
 -22645026.83444 -17645462.92544  20813437.3754   20813438.4744
 -16445489.23744 -12814659.28444  22075927.7164   22075929.7364
  -8688553.10744  -6770284.89844  22895205.5584   22895205.4814
 96  2 16  2 29  0.0000000  0  8G12G20G24G 2G 9G 4G 5G 7
  -2888827.149 4  -2251024.504 4  23768026.990    23768023.829
  -4232785.82444  -3298272.07844  24406351.4574   24406355.6684
 -17431271.37744 -13582801.58944  20685823.0354   20685825.2134
   7680561.34844   5984855.44344  24533752.7834   24533754.5904
 -21289726.10544 -16589389.80844  21226817.2144   21226819.0174
 -22608989.69644 -17617382.03344  20820295.1124   20820295.8274
 -16521445.31344 -12873845.82544  22061473.5644   22061475.7264
  -8620704.07444  -6717415.50944  22908114.2604   22908115.6834
 96  2 16  2 29 30.0000000  0  8G12G20G24G 2G 9G 4G 5G 7
  -2787015.441 4  -2171690.716 4  23787401.304    23787397.858
  -4329714.49344  -3373800.87444  24387906.6634   24387909.3064
 -17475135.23144 -13616981.19944  20677476.0184   20677478.1434
   7771422.41144   6055656.20244  24551042.4554   24551044.4134
 -21257142.92844 -16564000.32644  21233017.5334   21233019.3484
 -22572411.29344 -17588879.38044  20827255.7624   20827256.8914
 -16597277.40844 -12932935.76444  22047043.1904   22047045.2064
  -8552831.47644  -6664527.76744  22921031.1794   22921033.0414
 96  2 16  2 30  0.0000000  0  8G12G20G24G 2G 9G 4G 5G 7
  -2684998.948 4  -2092197.360 4  23806814.664    23806810.913
  -4426674.82944  -3449354.32144  24369455.0094   24369460.1084
 -17518468.36144 -13650747.26344  20669229.9364   20669232.0884
   7862495.18244   6126622.00744  24568373.8754   24568376.0144
 -21224028.89944 -16538197.19844  21239318.9764   21239320.8884
 -22535280.86244 -17559946.56844  20834321.3194   20834322.5944
 -16672975.07944 -12991920.95544  22032638.6404   22032640.2084
  -8484940.24644  -6611625.52144  22933950.7394   22933951.7354
 96  2 16  2 30 30.0000000  0  8G12G20G24G 2G 9G 4G 5G 7
  -2582772.710 4  -2012540.590 4  23826267.379    23826264.135
  -4523655.78144  -3524923.85044  24351001.0814   24351004.7734
 -17561275.60344 -13684103.54344  20661083.8734   20661086.0654
   7953772.72944   6197747.35344  24585743.1924   24585745.8944
 -21190371.71744 -16511970.83644  21245723.8594   21245725.7344
 -22497617.36544 -17530598.38244  20841488.6174   20841489.4424
 -16748524.76744 -13050790.83844  22018261.9414   22018263.6514
  -8417032.99044  -6558710.76744  22946873.1264   22946874.1164
 96  2 16  2 31  0.0000000  0  8G12G20G24G 2G 9G 4G 5G 7
  -2480333.191 4  -1932717.594 4  23845760.937    23845757.579
  -4620648.99344  -3600502.93544  24332544.2974   24332547.0904
 -17603560.54944 -13717052.84144  20653037.0264   20653039.3554
   8045252.50444   6269030.28144  24603150.7794   24603155.2344
 -21156152.51344 -16485306.53544  21252235.4404   21252237.0664
 -22459429.42344 -17500841.54544  20848755.5044   20848756.4564
 -16823916.62344 -13109537.72944  22003915.2864   22003917.2874
  -8349104.23444  -6505779.27044  22959798.8414   22959800.4924
 96  2 16  2 31 30.0000000  0  8G12G20G24G 2G 9G 4G 5G 7
  -2377674.579 4  -1852723.873 4  23865296.062    23865293.172
  -4717644.74944  -3676083.96544  24314085.9464   24314089.2264
 -17645314.53444 -13749588.40044  20645091.7164   20645094.0394
   8136946.49944   6340480.04944  24620599.5994   24620597.7214
 -21121371.12044 -16458204.16244  21258854.0654   21258855.9114
 -22420716.38644 -17470675.53944  20856122.2974   20856123.3944
 -16899129.36744 -13168145.04944  21989602.6454   21989604.4894
  -8281127.99944  -6452810.78944  22972734.6824   22972736.3224
 96  2 16  2 32  0.0000000  0  8G12G20G24G 2G 9G 4G 5G 7
  -2274823.423 4  -1772580.154 4  23884868.231    23884864.867
  -4814652.94844  -3751674.74444  24295626.2614   24295629.3774
 -17686557.72144 -13781725.93944  20637243.3814   20637245.6644
   8228829.17744   6412076.91644  24638084.1304   24638087.2024
 -21086067.31144 -16430694.71244  21265572.4064   21265573.9834
 -22381509.71844 -17440124.88244  20863583.2074   20863584.2314
 -16974167.83844 -13226616.57844  21975323.4104   21975325.2964
  -8213112.91044  -6399812.01844  22985677.2554   22985679.1564
 96  2 16  2 32 30.0000000  0  8G12G20G24G 2G 9G 4G 5G 7
  -2171776.395 4  -1692283.792 4  23904477.835    23904474.631
  -4911646.24044  -3827253.89344  24277168.6654   24277171.8484
 -17727265.89044 -13813446.58244  20629496.9114   20629499.2184
   8320909.32144   6483827.71944  24655606.5244   24655609.7364
 -21050249.67844 -16402784.88544  21272388.0944   21272389.8384
 -22341801.32444 -17409183.27544  20871139.4394   20871140.5334
 -17049022.32944 -13284944.74244  21961078.9824   21961080.9154
  -8145045.54044  -6346772.48844  22998630.1104   22998632.6174
 96  2 16  2 33  0.0000000  0  8G12G20G24G 2G 9G 4G 5G 7
  -2068487.644 4  -1611799.078 4  23924133.056    23924129.508
  -5008571.37444  -3902779.93344  24258724.6274   24258726.2464
 -17767380.56844 -13844704.75544  20621863.2354   20621865.6004
   8413245.35944   6555777.86244  24673177.2684   24673182.3234
 -21013882.23944 -16374446.62944  21279308.4954   21279310.3134
 -22301530.58744 -17377803.47144  20878802.7494   20878803.7694
 -17123640.37344 -13343088.65944  21946879.6234   21946881.6304
  -8076865.05044  -6293644.85144  23011603.9354   23011606.9404
 96  2 16  2 33 30.0000000  0  8G12G20G24G 2G 9G 4G 5G 7
  -1965023.366 4  -1531177.578 4  23943821.218    23943817.963
  -5105496.98244  -3978306.33544  24240280.1344   24240281.3484
 -17806964.40844 -13875549.29344  20614330.4694   20614333.0504
   8505775.80944   6627879.46744  24690785.3114   24690788.4554
 -20977024.43544 -16345726.26444  21286322.2504   21286324.0914
 -22260755.30944 -17346030.52144  20886561.9244   20886562.7844
 -17198091.29044 -13401102.34844  21932712.0164   21932714.0044
  -8008633.85144  -6240477.68844  23024588.2594   23024590.4884
 96  2 16  2 34  0.0000000  0  8G12G20G24G 2G 9G 4G 5G 7
  -1861390.307 4  -1450424.582 4  23963541.883    23963538.249
  -5202425.87644  -4053835.31344  24221835.9424   24221839.1124
 -17846030.97344 -13905990.76644  20606896.5264   20606898.8324
   8598489.50744   6700123.85544  24708429.0464   24708427.1034
 -20939671.45544 -16316620.05844  21293430.4984   21293432.3464
 -22219476.89144 -17313865.52144  20894416.6944   20894417.9744
 -17272391.73844 -13458998.79044  21918573.2854   21918575.1654
  -7940375.87144  -6187289.62744  23037576.8664   23037578.3334
 96  2 16  2 34 30.0000000  0  8G12G20G24G 2G 9G 4G 5G 7
  -1757595.998 4  -1369545.886 4  23983293.797    23983290.106
  -5299375.37244  -4129380.31244  24203386.2454   24203387.9774
 -17884605.58344 -13936048.89144  20599555.9094   20599558.1374
   8691372.69244   6772500.32444  24726104.2514   24726106.7304
 -20901820.66244 -16287125.94044  21300633.1444   21300635.0264
 -22177698.29144 -17281310.76544  20902367.0814   20902368.1414
 -17346553.11644 -13516786.86344  21904460.7624   21904462.7194
  -7872103.26444  -6134090.19944  23050568.7924   23050570.4074
 96  2 16  2 35  0.0000000  0  8G12G20G24G 2G 9G 4G 5G 7
  -1653640.617 4  -1288541.693 4  24003075.541    24003072.479
  -5396354.33644  -4204948.31444  24184931.6634   24184934.0444
 -17922703.85444 -13965735.84644  20592306.0464   20592308.3414
   8784426.83644   6845010.05244  24743811.4254   24743811.4414
 -20863458.91344 -16257233.68144  21307933.2234   21307935.0304
 -22135427.87444 -17248372.77044  20910410.8304   20910411.8884
 -17420566.59844 -13574459.69844  21890376.3984   21890378.3274
  -7803813.04944  -6080877.04944  23063564.7924   23063566.1014
 96  2 16  2 35 30.0000000  0  8G12G20G24G 2G 9G 4G 5G 7
  -1549523.851 4  -1207411.776 4  24022888.052    24022884.967
  -5493360.83944  -4280537.75944  24166471.7684   24166474.3224
 -17960317.30744 -13995045.02444  20585148.4214   20585150.6774
   8877651.83144   6917652.87744  24761550.8314   24761552.0864
 -20824576.45844 -16226935.67244  21315332.0994   21315333.9294
 -22092683.01844 -17215065.08444  20918545.1684   20918545.8314
 -17494428.28244 -13632014.24644  21876321.1324   21876323.1434
  -7735522.79844  -6027663.87344  23076559.3144   23076561.7324
 96  2 16  2 36  0.0000000  0  8G12G20G24G 2G 9G 4G 5G 7
  -1445230.785 4  -1126144.490 4  24042734.768    24042731.328
  -5590364.46044  -4356124.96644  24148012.6074   24148015.8924
 -17997417.21344 -14023954.02744  20578088.5054   20578090.9104
   8971061.20744                  24779326.2554
 -20785174.99344 -16196233.23344  21322829.9554   21322831.8804
 -22049452.99444 -17181379.35144  20926771.3284   20926772.2594
 -17568113.02844 -13689430.92444  21862299.0664   21862301.0914
  -7667222.31544  -5974442.71244  23089556.1824   23089557.8824
 96  2 16  2 36 30.0000000  0  8G12G20G24G 2G 9G 4G 5G 7
  -1340703.741 4  -1044694.860 4  24062625.553    24062622.400
  -5687299.69744  -4431658.85344  24129566.2324   24129569.5494
 -18033931.82644 -14052406.95544  20571140.2004   20571142.4124
   9064703.50344                  24797145.5254
 -20745201.65844 -16165085.18744  21330436.9054   21330438.8214
 -22005685.37844 -17147274.71044  20935100.1464   20935101.2014
 -17641565.18744 -13746666.35844  21848321.7254   21848323.6644
  -7598852.03844  -5921167.17244  23102567.2734   23102570.1214
 96  2 16  2 37  0.0000000  0  8G12G20G24G 2G 9G 4G 5G 7
  -1235974.791 4   -963087.908 4  24082554.440    24082551.570
  -5784182.76044  -4507152.11844  24111130.0524   24111132.6044
 -18069869.79844 -14080410.56244  20564301.6994   20564303.7574
   9158538.63144   7136525.62344  24815002.6324
 -20704689.13444 -16133517.00444  21338146.0394   21338147.8954
 -21961411.85244 -17112775.84844  20943525.1144   20943526.0114
 -17714820.74844 -13803748.60644  21834381.8254   21834383.6804
  -7530449.52444  -5867866.52944  23115583.1424   23115586.0494
 96  2 16  2 37 30.0000000  0  8G12G20G24G 2G 9G 4G 5G 7
  -1131064.877 4   -881339.948 4  24102518.301    24102515.028
  -5881022.19044  -4582611.36844  24092702.4714   24092704.5394
 -18105247.61944 -14107977.68844  20557569.3704   20557571.4114
   9252545.29544   7209777.53444  24832891.6514   24832890.4004
 -20663668.44744 -16101552.84444  21345952.2114   21345954.1254
 -21916641.64044 -17077889.96544  20952044.7624   20952045.3084
 -17787906.91144 -13860698.85344  21820474.2274   21820476.0044
  -7462028.50844  -5814551.43844  23128604.6144   23128606.2754
 96  2 16  2 38  0.0000000  0  8G12G20G24G 2G 9G 4G 5G 7
  -1026012.864 4   -799481.253 4  24122509.796    24122506.212
  -5977852.02844  -4658063.13744  24074276.1424   24074279.2554
 -18140112.95444 -14135145.47044  20550934.7354   20550936.8764
   9346690.35844   7283137.27544  24850806.9294   24850807.2924
 -20622184.65744 -16069227.82044  21353846.3914   21353848.0384
 -21871383.49944 -17042623.88144  20960656.9554   20960657.5434
 -17860858.17144 -13917543.98644  21806591.8944   21806593.4314
  -7393604.63844  -5761234.14744  23141624.2614   23141627.0274
 96  2 16  2 38 30.0000000  0  8G12G20G24G 2G 9G 4G 5G 7
   -920841.141 4   -717529.297 4  24142522.629    24142519.293
  -6074699.39644  -4733528.57844  24055846.8894   24055850.3364
 -18174505.61844 -14161944.94044  20544390.0024   20544392.0904
   9440956.29444   7356591.24644  24868745.5504   24868748.9024
 -20580245.25844 -16036547.76944  21361826.8434   21361828.6594
 -21825666.72744 -17007000.41444  20969356.4424   20969357.3554
 -17933692.53044 -13974298.01744  21792732.0294   21792733.6614
  -7325188.60044  -5707922.95644  23154643.8344   23154646.0924
 96  2 16  2 39  0.0000000  0  8G12G20G24G 2G 9G 4G 5G 7
   -815508.714 4   -635452.099 4  24162566.643    24162563.174
  -6171523.84344  -4808976.17744  24037421.6164   24037423.7174
 -18208392.66744 -14188350.42344  20537941.5234   20537943.6144
   9535403.56244   7430186.53544  24886718.3414   24886722.3874
 -20537804.57544 -16003477.12044  21369903.2734   21369905.1054
 -21779448.71844 -16970986.37244  20978152.0914   20978152.6294
 -18006345.51044 -14030910.72444  21778906.7134   21778908.2324
  -7256723.95544  -5654573.88644  23167672.1294   23167673.6274
 96  2 16  2 39 30.0000000  0  8G12G20G24G 2G 9G 4G 5G 7
   -710026.543 4   -553258.186 4  24182639.816    24182636.119
  -6268337.85044  -4884415.62244  24018998.3244   24019001.4464
 -18241791.55844 -14214375.51944  20531585.9544   20531588.1084
   9630045.27244                  24904727.6584
 -20494871.88544 -15970023.09244  21378073.3214   21378074.8444
 -21732733.55744 -16934584.94844  20987041.0064   20987042.0234
 -18078814.42244 -14087379.99244  21765116.2824   21765118.3114
  -7188214.47244  -5601189.87444  23180709.8794   23180711.1694
 96  2 16  2 40  0.0000000  0  8G12G20G24G 2G 9G 4G 5G 7
   -604375.596 4   -470932.783 4  24202744.087    24202741.311
  -6365119.62044  -4959829.94644  24000581.0844   24000583.7164
 -18274668.90344 -14239994.21744  20525329.7014   20525331.6944
   9724898.75044                  24922777.8294
 -20451420.40844 -15936164.81044  21386341.7824   21386343.4634
 -21685514.16644 -16897790.60644  20996026.3904   20996027.8074
 -18151072.85144 -14143685.25544  21751365.9364   21751367.5894
  -7119656.33744  -5547767.95544  23193754.6794   23193758.0174
 96  2 16  2 40 30.0000000  0  8G12G20G24G 2G 9G 4G 5G 7
   -498533.566 4   -388458.518 4  24222884.901    24222882.728
  -6461842.28544  -5035198.22844  23982175.9514   23982177.3694
 -18306984.13544 -14265174.91044  20519180.2704   20519182.1564
   9819977.49244   7651932.37044  24940869.8624
 -20407419.96644 -15901878.75644  21394714.9364   21394716.6334
 -21637788.49144 -16860601.77244  21005108.7044   21005109.5624
 -18223096.63544 -14199807.67144  21737660.2084   21737661.7414
  -7051032.62944  -5494294.96244  23206813.4914   23206815.3774
 96  2 16  2 41  0.0000000  0  8G12G20G24G 2G 9G 4G 5G 7
   -392559.503 4   -305881.351 4  24243051.067    24243048.900
  -6558564.86644  -5110566.43044  23963770.1514   23963772.7794
 -18338771.94644 -14289944.62144  20513131.0794   20513133.1884
   9915222.76744   7726149.44444  24958994.1784
 -20362935.51044 -15867215.55644  21403179.7324   21403181.2774
 -21589604.34844 -16823055.68244  21014277.7604   21014278.7764
 -18294945.79544 -14255794.01044  21723987.7504   21723989.4804
  -6982400.96744  -5440815.75044  23219874.4924   23219875.6164
 96  2 16  2 41 30.0000000  0  8G12G20G24G 2G 9G 4G 5G 7
   -286447.388 4   -223196.582 4  24263243.751    24263241.251
  -6655283.86844  -5185931.85944  23945365.2994   23945367.1924
 -18370009.06744 -14314285.22244  20507186.6824   20507188.9404
  10010628.12944   7800491.34144  24977150.0814   24977153.1654
 -20317971.15244 -15832178.41044  21411736.1244   21411737.8954
 -21540951.20744 -16785144.13944  21023536.2934   21023537.2374
 -18366621.95244 -14311645.55044  21710348.2014   21710350.2664
  -6913762.25044  -5387331.02044  23232935.1644   23232937.2424
 96  2 16  2 42  0.0000000  0  8G12G20G24G 2G 9G 4G 5G 7
   -180214.254 4   -140417.547 4  24283459.612    24283456.510
  -6752017.12944  -5261308.39744  23926957.2434   23926959.1124
 -18400705.26644 -14338204.32644  20501345.5274   20501347.6414
  10106158.30844   7874930.43544  24995329.0324   24995329.5314
 -20272541.43244 -15796778.63944  21420381.6244   21420383.2894
 -21491854.21544 -16746886.74244  21032879.1574   21032879.7944
 -18438147.92544 -14367380.06844  21696736.9714   21696738.9554
  -6845125.43844  -5333847.80744  23245996.8154   23245998.9734
 96  2 16  2 42 30.0000000  0  8G12G20G24G 2G 9G 4G 5G 7
    -73870.393 4    -57552.214 4  24303695.439    24303691.743
  -6848779.06944  -5336707.26944  23908544.3744   23908547.5924
 -18430882.90744 -14361719.36544  20495603.0104   20495604.9514
  10201803.28544                  25013529.5614
 -20226659.77244 -15761026.70644  21429112.3004   21429113.9474
 -21442324.39944 -16708292.07844  21042304.3114   21042304.9914
 -18509527.89244 -14423000.81744  21683153.7704   21683155.4794
  -6776483.20044  -5280360.35444  23259059.1934   23259061.7224
 96  2 16  2 43  0.0000000  0  8G12G20G24G 2G 9G 4G 5G 7
     32630.345 4     25435.377 4  24323962.314    24323959.110
  -6945524.21044  -5412093.04844  23890133.3864   23890135.4484
 -18460508.60944 -14384804.32144  20489965.3334   20489967.5744
  10297620.84044                  25031762.6174
 -20180296.87744 -15724899.77944  21437934.7614   21437936.5474
 -21392310.83644 -16669320.46244  21051821.3284   21051822.5244
 -18580707.70444 -14478465.59244  21669608.8154   21669610.6164
  -6707792.85044  -5226835.40944  23272131.0184   23272132.5004
 96  2 16  2 43 30.0000000  0  8G12G20G24G 2G 9G 4G 5G 7
    139311.223 4    108563.288 4  24344263.508    24344260.501
  -7042211.14644  -5487433.47144  23871735.1174   23871737.6534
 -18489569.72844 -14407449.32744  20484435.2364   20484437.3984
  10393639.34244                  25050033.7974
 -20133424.41144 -15688375.78044  21446854.4784   21446856.3854
 -21341792.72344 -16629955.69244  21061434.8164   21061435.4554
 -18651652.26044 -14533747.05644  21656108.5574   21656110.3504
  -6639037.09744  -5173259.47544  23285214.4934   23285215.3164
 96  2 16  2 44  0.0000000  0  8G12G20G24G 2G 9G 4G 5G 7
    246148.766 4    191813.302 4  24364593.780    24364590.718
  -7138848.41544  -5562735.21244  23853345.1414   23853347.6254
 -18518113.12544 -14429690.91944  20479003.7114   20479005.6814
  10489844.90744                  25068342.0564
 -20086057.05844 -15651466.16544  21455868.2864   21455869.9564
 -21290797.08244 -16590218.83044  21071138.8154   21071139.6354
 -18722380.79644 -14588860.19244  21642649.2774   21642651.2884
  -6570226.62444  -5119640.93744  23298308.9014   23298310.7564
 96  2 16  2 44 30.0000000  0  8G12G20G24G 2G 9G 4G 5G 7
    353137.069 4    275180.815 4  24384952.169    24384949.236
  -7235434.98144  -5637997.44344  23834966.2514   23834970.1134
 -18546159.49744 -14451545.23244  20473666.7294   20473668.4694
  10586242.68844                  25086685.3054
 -20038211.07344 -15614183.58244  21464972.8114   21464974.5344
 -21239322.70844 -16550108.92344  21080934.1814   21080935.1394
 -18792880.55044 -14643795.05044  21629233.8184   21629235.5084
  -6501375.08644  -5065990.39444  23311410.7804   23311411.7664
 96  2 16  2 45  0.0000000  0  8G12G20G24G 2G 9G 4G 5G 7
    460268.393 4    358659.747 4  24405338.646    24405336.294
  -7331967.62744  -5713217.65744  23816595.7614   23816598.1774
 -18573709.74644 -14473012.95344  20468423.7984   20468425.8624
  10682822.97444                  25105064.2964
 -19989887.34044 -15576528.74244  21474168.9384   21474170.7354
 -21187365.79344 -16509623.00944  21090821.4724   21090822.0114
 -18863149.79744 -14698550.29644  21615861.9184   21615863.5724
  -6432498.74444  -5012320.52144  23324518.0374   23324518.8284
 96  2 16  2 45 30.0000000  0  8G12G20G24G 2G 9G 4G 5G 7
    567531.506 4    442241.344 4  24425751.523    24425748.068
  -7428454.50344  -5788402.22544  23798235.4054   23798238.4744
 -18600770.85844 -14494099.52244  20463274.2494   20463276.5464
  10779566.65944   8399664.14544  25123474.3764   25123476.8674
 -19941073.66444 -15538492.13044  21483457.2594   21483458.9324
 -21134936.22844 -16468768.79744  21100798.0834   21100798.8264
 -18933197.27444 -14753132.73144  21602532.2584   21602533.9994
  -6363602.48644  -4958635.12244  23337627.9724   23337628.7444
 96  2 16  2 46  0.0000000  0  8G12G20G24G 2G 9G 4G 5G 7
    674922.094 4    525922.283 4  24446187.677    24446183.520
  -7524903.59544  -5863557.30844  23779881.1614   23779882.7754
 -18627341.03944 -14514803.54444  20458218.1134   20458220.3534
  10876458.75444                  25141912.6834
 -19891779.29544 -15500080.94644  21492837.8574   21492839.8714
 -21082042.19844 -16427552.66544  21110863.8364   21110864.3704
 -19003021.21944 -14807540.98944  21589245.0584   21589247.2994
  -6294680.22944  -4904929.48044  23350743.1094   23350743.1714
 96  2 16  2 46 30.0000000  0  8G12G20G24G 2G 9G 4G 5G 7
    782415.136 4    609683.089 4  24466642.292    24466638.221
  -7621340.65944  -5938703.02444  23761530.6804   23761533.6274
 -18653407.06344 -14535114.71944  20453257.7174   20453259.9044
  10973467.23144                  25160372.0684
 -19842029.14344 -15461314.59744  21502305.0904   21502307.0664
 -21028708.55744 -16385993.97944  21121012.6614   21121013.6734
 -19072633.76944 -14861784.52744  21575998.2494   21576000.2194
  -6225763.43644  -4851228.09344  23363857.8904   23363859.6154
 96  2 16  2 47  0.0000000  0  8G12G20G24G 2G 9G 4G 5G 7
    890052.630 4    693556.445 4  24487125.288    24487120.603
  -7717723.18644  -6013806.25844  23743189.1714   23743191.7284
 -18678905.70644 -14554983.78344  20448405.5334   20448407.6964
  11070638.26144                  25178862.9694
 -19791769.35544 -15422151.13544  21511869.2694   21511871.3164
 -20974895.97344 -16344062.08744  21131252.6904   21131253.6994
 -19142007.18044 -14915841.71544  21562797.0584   21562798.7304
  -6156798.51144  -4797489.19044  23376980.9284   23376982.0624
 96  2 16  2 47 30.0000000  0  8G12G20G24G 2G 9G 4G 5G 7
    997827.997 4    777537.225 4  24507634.309    24507630.708
  -7814050.23944  -6088866.27844  23724858.6894   23724861.6154
 -18703833.11844 -14574407.73744  20443662.1354   20443664.1844
  11167980.73744                  25197386.9974
 -19741003.78644 -15382593.56844  21521529.4114   21521531.3944
 -20920618.38344 -16301767.86244  21141581.5064   21141582.2924
 -19211161.50344 -14969728.19044  21549637.0914   21549638.9324
  -6087777.54544  -4743706.63144  23390115.3564   23390117.7604
 96  2 16  2 48  0.0000000  0  8G12G20G24G 2G 9G 4G 5G 7
   1105712.371 4    861602.928 4  24528163.605    24528160.601
  -7910336.88944  -6163894.79644  23706536.1924   23706538.8864
 -18728209.72444 -14593402.48444  20439023.1224   20439025.6584
  11265479.84344   8778297.66344  25215940.9064   25215942.7214
 -19689774.39244 -15342674.57444  21531277.8944   21531279.9024
 -20865912.37244 -16259139.79544  21151991.4144   21151992.4504
 -19280119.80344 -15023461.92044  21536514.8684   21536516.7774
  -6018726.03844  -4689900.24944  23403254.6434   23403257.1414
 96  2 16  2 48 30.0000000  0  8G12G20G24G 2G 9G 4G 5G 7
   1213689.899 4    945741.279 4  24548710.798    24548706.803
  -8006604.55844  -6238908.53544  23688216.9874   23688220.6294
 -18752053.93244 -14611982.37044  20434485.7144   20434488.0504
  11363132.25744                  25234523.4414
 -19638086.82444 -15302398.54744  21541113.9544   21541115.9654
 -20810792.15944 -16216188.98044  21162480.8394   21162481.4044
 -19348904.84544 -15077060.64944  21523425.7274   21523427.4844
  -5949671.17344  -4636091.28544  23416396.7544   23416398.7984
 96  2 16  2 49  0.0000000  0  8G12G20G24G 2G 9G 4G 5G 7
   1321741.106 4   1029937.028 4  24569272.356    24569268.814
  -8102876.49044  -6313925.58644  23669896.1934   23669898.8284
 -18775402.90344 -14630176.36544  20430042.8924   20430044.8554
  11460928.63544                  25253133.6094
 -19585962.55444 -15261782.23744  21551032.6634   21551034.7264
 -20755289.59644 -16172940.22444  21173042.3634   21173043.4984
 -19417540.04544 -15130542.61444  21510364.8674   21510366.6904
  -5880625.19544  -4582289.23444  23429534.5544   23429537.2104
 96  2 16  2 49 30.0000000  0  7G12G20G24G 9G 4G 5G 7
   1429896.952 4   1114214.266 4  24589854.009    24589850.478
  -8199116.13744  -6388917.49344  23651583.3704   23651585.0174
 -18798225.82744 -14647960.45844  20425699.6654   20425701.8714
 -19533381.18944 -15220809.76044  21561038.5034   21561040.6394
 -20699374.70444 -16129370.17344  21183682.7624   21183683.4864
 -19485966.65444 -15183862.04144  21497343.9624   21497345.6354
  -5811558.90444  -4528471.34244  23442678.4164   23442680.2904
 96  2 16  2 50  0.0000000  0  7G12G20G24G 9G 4G 5G 7
   1538177.701 4   1198588.824 4  24610459.145    24610455.585
  -8295318.55144  -6463880.38844  23633275.9864   23633278.0644
 -18820498.80844 -14665316.01144  20421461.2894   20421463.2944
 -19480338.05644 -15179477.45744  21571132.6224   21571134.4814
 -20643015.55544 -16085453.95544  21194407.4904   21194408.4684
 -19554151.01844 -15236992.70344  21484368.7564   21484370.5964
  -5742463.63444  -4474630.87444  23455826.2174   23455826.7524
 96  2 16  2 50 30.0000000  0  7G12G20G24G 9G 4G 5G 7
   1646548.009 4   1283033.180 4  24631081.653    24631077.167
  -8391530.99544  -6538851.09244  23614967.7494   23614970.8844
 -18842258.19344 -14682271.37044  20417320.8444   20417322.7484
 -19426888.59244 -15137828.53444  21581304.0914   21581305.8594
 -20586237.44444 -16041211.26344  21205211.8964   21205212.8974
 -19622132.79644 -15289965.51044  21471432.1924   21471434.0244
  -5673374.50244  -4420795.20044  23468973.1734   23468975.2014
 96  2 16  2 51  0.0000000  0  8G12G20G24G 6G 9G 4G 5G 7
   1755029.517 4   1367564.205 4  24651724.882    24651721.714
  -8487708.59944  -6613794.64344  23596666.0194   23596668.9014
 -18863470.94944 -14698800.78344  20413284.0414   20413286.1124
        -0.32254         0.56954  25490680.5594
 -19373029.59644 -15095860.50244  21591552.5244   21591554.4324
 -20529006.11444 -15996615.42044  21216102.8584   21216103.5174
 -19689872.42144 -15342749.62744  21458541.7534   21458543.6924
  -5604257.49844  -4366937.79744  23482126.6594   23482127.2244
 96  2 16  2 51 30.0000000  0  8G12G20G24G 6G 9G 4G 5G 7
   1863641.671 4   1452197.041 4  24672393.440    24672389.351
  -8583811.71744  -6688680.17344  23578378.0944   23578381.1284
 -18884117.97044 -14714889.35944  20409355.0094   20409357.2094
    -73660.71744    -57397.04444  25476663.4624
 -19318743.09244 -15053559.34744  21601882.9784   21601884.6604
 -20471280.66644 -15951634.54844  21227087.3694   21227088.5004
 -19757343.69144 -15395324.63644  21445702.4964   21445704.0614
  -5535103.38244  -4313051.47144  23495286.1854   23495287.9734
 96  2 16  2 52  0.0000000  0  8G12G20G24G 6G 9G 4G 5G 7
   1972368.968 4   1536919.608 4  24693083.213    24693078.809
  -8679836.47144  -6763504.63144  23560105.1424   23560108.2604
 -18904232.18344 -14730562.76244  20405527.2064   20405529.4844
   -147263.10444                  25462657.3444
 -19264050.38844 -15010941.66944  21612290.8794   21612292.8104
 -20413093.37944 -15906293.79444  21238160.2274   21238161.3164
 -19824570.72344 -15447709.32744  21432909.5564   21432910.9064
  -5465926.22144  -4259147.20344  23508450.1574   23508451.4784
 96  2 16  2 52 30.0000000  0  8G12G20G24G 6G 9G 4G 5G 7
   2081226.952 4   1621744.021 4  24713797.755    24713793.942
  -8775734.96844  -6838230.70344  23541856.8224   23541859.8394
 -18923813.42644 -14745820.86244  20401801.1814   20401803.4014
   -220777.40444                  25448668.5914
 -19208913.80444 -14967978.10044  21622783.2704   21622785.0414
 -20354441.48144 -15860591.01644  21249321.3074   21249322.2364
 -19891521.39044 -15499878.66944  21420169.2364   21420170.8934
  -5396701.69044  -4205206.01344  23521622.7564   23521624.4894
 96  2 16  2 53  0.0000000  0  8G12G20G24G 6G 9G 4G 5G 7
   2190224.763 4   1706677.379 4  24734539.267    24734536.648
  -8871470.37044  -6912829.69844  23523638.7234   23523641.7494
 -18942845.24244 -14760650.84044  20398179.6634   20398181.8534
   -294178.33644   -229228.57244  25434700.2634
 -19153285.76844 -14924631.58944  21633369.0344   21633371.0404
 -20295323.31344 -15814524.90844  21260571.1444   21260572.0534
 -19958173.06044 -15551815.03144  21407485.6694   21407487.7844
  -5327423.07944  -4151222.71844  23534807.0254   23534807.5334
 96  2 16  2 53 30.0000000  0  8G12G20G24G 6G 9G 4G 5G 7
   2299343.703 4   1791705.077 4  24755304.180    24755300.964
  -8967069.75544  -6987322.69944  23505446.2644   23505448.1704
 -18961357.60444 -14775076.04244  20394656.6254   20394658.9024
   -367489.80844                  25420749.0754
 -19097169.51044 -14880904.65044  21644046.8724   21644048.7464
 -20235775.41744 -15768123.94144  21271902.7114   21271903.5214
 -20024552.15844 -15603538.99744  21394854.1044   21394856.5764
  -5258111.43944  -4097213.63244  23547995.8434   23547996.7174
 96  2 16  2 54  0.0000000  0  8G12G20G24G 6G 9G 4G 5G 7
   2408575.322 4   1876820.619 4  24776090.433    24776086.899
  -9062552.64044  -7061724.92344  23487276.9364   23487279.3404
 -18979348.83844 -14789095.17344  20391233.2434   20391235.1984
   -440741.24644   -343433.47744  25406809.1414   25406815.2334
 -19040562.95944 -14836795.66544  21654818.8384   21654821.2594
 -20175811.82644 -15721399.05944  21283313.3844   21283314.2174
 -20090659.57444 -15655051.25944  21382274.6334   21382276.6804
  -5188761.59144  -4043174.81144  23561191.9834   23561193.9164
 96  2 16  2 54 30.0000000  0  8G12G20G24G 6G 9G 4G 5G 7
   2517885.181 4   1961997.146 4  24796891.117    24796887.691
  -9157975.11344  -7136080.06244  23469118.2054   23469121.3444
 -18996824.23144 -14802712.35744  20387907.7484   20387909.7874
   -513962.33344   -400488.76844  25392875.8714
 -18983477.50544 -14792313.51044  21665681.9244   21665683.7314
 -20115442.78544 -15674358.24844  21294801.1924   21294802.0094
 -20156530.51344 -15706379.25644  21369740.0744   21369741.7764
  -5119403.41244  -3989129.48344  23574390.9344   23574391.7694
 96  2 16  2 55  0.0000000  0  8G12G20G24G 6G 9G 4G 5G 7
   2627236.125 4   2047205.650 4  24817700.065    24817696.242
  -9253393.32144  -7210431.88744  23450961.2624   23450964.6114
 -19013805.28844 -14815944.33744  20384676.1884   20384678.2814
   -587192.57044   -457551.28644  25378940.5924
 -18925965.75344 -14747499.16244  21676626.1164   21676628.1894
 -20054707.78444 -15627032.26944  21306359.0654   21306359.7384
 -20222211.99144 -15757559.61944  21357241.1024   21357242.7704
  -5050065.24144  -3935099.74044  23587586.1344   23587587.0604
 96  2 16  2 55 30.0000000  0  8G12G20G24G 6G 9G 4G 5G 7
   2736682.457 4   2132488.478 4  24838527.212    24838523.899
  -9348770.36144  -7284751.63444  23432811.5314   23432814.0014
 -19030239.69744 -14828750.35944  20381549.0314   20381550.8684
   -660377.93444   -514578.79244  25365014.1514
 -18867990.48544 -14702323.63944  21687658.9364   21687660.8114
 -19993552.94844 -15579379.15444  21317996.2024   21317996.9074
 -20287650.25944 -15808550.47044  21344788.2174   21344790.0044
  -4980677.57244  -3881031.43544  23600789.7504   23600791.6094
 96  2 16  2 56  0.0000000  0  8G12G20G24G 6G 9G 4G 5G 7
   2846202.841 4   2217829.000 4  24859367.818    24859364.871
  -9444122.85244  -7359052.26644  23414666.5894   23414668.8724
 -19046126.59544 -14841129.75244  20378525.9164   20378527.8974
   -733518.33544   -571571.31744  25351096.8044
 -18809573.21844 -14656803.70144  21698775.2294   21698777.0934
 -19932000.43544 -15531416.15544  21329709.4264   21329709.9634
 -20352858.08444 -15859361.76044  21332379.5264   21332381.2464
  -4911253.51944  -3826934.79544  23614001.2914   23614002.5174
 96  2 16  2 56 30.0000000  0  8G12G20G24G 6G 9G 4G 5G 7
   2955803.904 4   2303232.425 4  24880225.007    24880220.930
  -9539430.55644  -7433317.97444  23396529.9874   23396532.2464
 -19061456.68044 -14853075.26344  20375608.6624   20375610.6254
   -806591.94544   -628511.75644  25337189.9014
 -18750721.81744 -14610945.49044  21709974.0784   21709976.1234
 -19870044.65544 -15483138.92444  21341499.3214   21341499.9284
 -20417832.82844 -15909991.42144  21320015.7884   21320017.1864
  -4841787.38644  -3772805.34144  23627220.4624   23627221.4604
 96  2 16  2 57  0.0000000  0  8G12G20G24G 6G 9G 4G 5G 7
   3065461.430 4   2388679.838 4  24901092.141    24901088.940
  -9634694.41044  -7507549.54844  23378402.0984   23378404.3754
 -19076260.91844 -14864611.01544  20372791.5444   20372793.6804
   -879635.00444   -685428.41744  25323291.8364   25323295.4534
 -18691476.58744 -14564780.40044  21721248.2654   21721250.4134
 -19807715.91444 -15434571.06444  21353359.4404   21353360.8914
 -20482583.76144 -15960446.68544  21307694.2234   21307695.7954
  -4772306.95944  -3718664.76744  23640441.1054   23640444.0194
 96  2 16  2 57 30.0000000  0  8G12G20G24G 6G 9G 4G 5G 7
   3175135.716 4   2474140.277 4  24921961.550    24921959.234
  -9729939.00844  -7581766.09744  23360277.2574   23360280.2784
 -19090580.07344 -14875768.78444  20370066.7104   20370068.7774
   -952697.12044                  25309387.8214
 -18631880.54344 -14518341.93744  21732589.2324   21732591.0624
 -19745043.47944 -15385735.39344  21365286.0674   21365286.5494
 -20547139.81744 -16010750.09844  21295409.1434   21295411.0294
  -4702862.94044  -3664552.55644  23653655.9124   23653657.8404
 96  2 16  2 58  0.0000000  0  8G12G20G24G 6G 9G 4G 5G 7
   3284882.525 4   2559657.220 4  24942845.916    24942843.819
  -9825096.15544  -7655914.49044  23342169.0984   23342171.2984
 -19104354.67644 -14886502.23144  20367445.5604   20367447.4494
  -1025723.74744   -799263.74244  25295491.4734   25295492.4114
 -18571889.01544 -14471595.30844  21744005.0254   21744006.7654
 -19681961.24244 -15336580.40744  21377289.7494   21377291.2214
 -20611429.76144 -16060846.15644  21283175.4214   21283177.2334
  -4633415.99644  -3610438.06044  23666870.9034   23666872.7394
 96  2 16  2 58 30.0000000  0  8G12G20G24G 6G 9G 4G 5G 7
   3394711.354 4   2645238.080 4  24963746.098    24963742.982
  -9920147.39744  -7729980.37344  23324081.5164   23324084.5514
 -19117586.26144 -14896812.55144  20364927.5724   20364929.4784
  -1098712.63644                  25281602.7154
 -18511501.41944 -14424540.04144  21755496.0554   21755497.8274
 -19618450.68844 -15287091.65244  21389375.4414   21389376.7634
 -20675441.09044 -16110725.10844  21270994.6544   21270996.0124
  -4563961.20244  -3556317.45644  23680088.3774   23680090.3114
 96  2 16  2 59  0.0000000  0  8G12G20G24G 6G 9G 4G 5G 7
   3504617.413 4   2730879.167 4  24984660.352    24984657.171
 -10015090.23744  -7803961.80144  23306014.4784   23306016.4404
 -19130285.08944 -14906707.73444  20362511.0374   20362513.0734
  -1171659.21344   -912979.72444  25267721.0494   25267728.1894
 -18450711.10044 -14377170.96244  21767064.3284   21767065.7784
 -19554528.85644 -15237282.42744  21401539.7604   21401540.6984
 -20739168.16744 -16160382.56244  21258867.5664   21258869.2924
  -4494509.25544  -3502199.05944  23693305.7204   23693307.0124
 96  2 16  2 59 30.0000000  0  8G12G20G24G 6G 9G 4G 5G 7
   3614619.297 4   2816594.909 4  25005592.591    25005590.554
 -10109909.78444  -7877847.14244  23287970.7224   23287973.8724
 -19142435.00544 -14916175.18944  20360199.0674   20360200.9584
  -1244523.50844   -969757.13644  25253855.5894   25253857.7644
 -18389484.57644 -14329462.00144  21778715.5814   21778717.6374
 -19490184.41744 -15187143.90644  21413784.2294   21413784.9894
 -20802588.80844 -16209801.23744  21246799.0234   21246800.7474
  -4425034.17444  -3448062.64944  23706524.3564   23706525.5834
 96  2 16  3  0  0.0000000  0  8G12G20G24G 6G 9G 4G 5G 7
   3724703.821 4   2902375.000 4  25026541.249    25026538.349
 -10204610.79744  -7951640.11144  23269950.3404   23269952.3084
 -19154047.20144 -14925223.64744  20357989.3354   20357991.2404
  -1317299.77244  -1026465.91244  25240006.3244   25240009.5284
 -18327816.62644 -14281409.07044  21790450.8334   21790452.3244
 -19425433.17044 -15136688.38444  21426105.5524   21426107.1064
 -20865717.91744 -16258992.74444  21234785.9664   21234787.6074
  -4355532.27844  -3393905.32344  23719751.6344   23719752.6564
 96  2 16  3  0 30.0000000  0  8G12G20G24G 6G 9G 4G 5G 7
   3834879.718 4   2988226.330 4  25047507.994    25047503.829
 -10299178.14944  -8025328.93544  23251954.6654   23251956.5834
 -19165117.72344 -14933850.02144  20355882.5164   20355884.4384
  -1389981.97244  -1083101.34544  25226174.3004   25226177.4614
 -18265680.69944 -14232991.47344  21802274.9354   21802277.0204
 -19360268.36144 -15085910.60644  21438505.8684   21438507.4244
 -20928552.50844 -16307954.75444  21222828.7034   21222830.3784
  -4285977.79844  -3339707.03844  23732986.2904   23732989.3914
 96  2 16  3  1  0.0000000  0  8G12G20G24G 6G 9G 4G 5G 7
   3945132.546 4   3074137.604 4  25068488.520    25068485.002
 -10393635.75744  -8098932.23744  23233980.5074   23233983.0264
 -19175667.95844 -14942070.97244  20353874.8874   20353876.8664
  -1462583.01044  -1139673.58244  25212359.3414   25212361.2344
 -18203088.39844 -14184218.25744  21814185.8904   21814187.6754
 -19294705.37944 -15034822.56744  21450982.7074   21450983.2914
 -20991094.80144 -16356689.00544  21210927.6814   21210929.2944
  -4216367.32444  -3285465.13844  23746233.9064   23746233.5074
 96  2 16  3  1 30.0000000  0  8G12G20G24G 6G 9G 4G 5G 7
   4055435.407 4   3160087.859 4  25089477.110    25089474.874
 -10488024.44744  -8172481.83844  23216018.6304   23216020.0334
 -19185717.53344 -14949901.80344  20351962.6204   20351964.3874
  -1535138.32144  -1196210.17444  25198552.6234   25198555.4694
 -18140084.34144 -14135124.20344  21826174.6254   21826176.3444
 -19228749.90144 -14983428.69044  21463533.3794   21463534.1514
 -21053371.29044 -16405216.13344  21199076.6634   21199078.1954
  -4146708.77144  -3231185.71844  23759488.7664   23759489.7594
 96  2 16  3  2  0.0000000  0  8G12G20G24G 6G 9G 4G 5G 7
   4165782.678 4   3246072.673 4  25110476.554    25110472.720
 -10582347.18844  -8245980.05944  23198069.4224   23198071.4664
 -19195261.06844 -14957338.31944  20350146.4324   20350148.2634
  -1607668.02644  -1252726.86044  25184750.4844   25184753.4534
 -18076693.85444 -14085729.01644  21838237.4034   21838239.0304
 -19162400.38644 -14931727.76544  21476159.1364   21476160.4254
 -21115392.82144 -16453544.59444  21187274.6284   21187276.0114
  -4077004.44944  -3176870.71044  23772753.7324   23772756.2734
 96  2 16  3  2 30.0000000  0  8G12G20G24G 6G 9G 4G 5G 7
   4276167.298 4   3332086.666 4  25131481.375    25131477.950
 -10676618.56844  -8319438.24544  23180129.7394   23180132.5134
 -19204309.39244 -14964388.95144  20348424.4064   20348426.3204
  -1680194.01244                  25170949.6224
 -18012939.25244 -14036050.11844  21850369.6144   21850371.2244
 -19095675.00044 -14879733.95844  21488856.8164   21488857.6804
 -21177168.62944 -16501681.58044  21175518.7124   21175520.2984
  -4007264.23944  -3122527.69744  23786024.3604   23786025.6604
 96  2 16  3  3  0.0000000  0  8G12G20G24G 6G 9G 4G 5G 7
   4386602.857 4   3418140.284 4  25152496.596    25152493.147
 -10770824.59544  -8392845.51144  23162203.0914   23162205.5914
 -19212836.90244 -14971033.75544  20346801.7484   20346803.6794
  -1752692.43744  -1365732.85244  25157153.3244   25157154.7144
 -17948807.88844 -13986077.62944  21862573.2314   21862575.7444
 -19028571.67744 -14827445.65544  21501625.7034   21501626.8384
 -21238683.56244 -16549615.28744  21163812.6224   21163814.2914
  -3937484.00344  -3068153.49844  23799302.9814   23799303.9274
 96  2 16  3  3 30.0000000  0  8G12G20G24G 6G 9G 4G 5G 7
   4497105.086 4   3504245.888 4  25173524.966    25173521.125
 -10864927.04944  -8466172.08844  23144296.0404   23144298.4414
 -19220811.99644 -14977248.10944  20345284.3464   20345286.1904
  -1825147.87144  -1422191.61344  25143366.0734   25143369.7354
 -17884279.19444 -13935795.54344  21874853.0804   21874854.8644
 -18961071.64844 -14774848.22844  21514471.0854   21514471.8354
 -21299919.94844 -16597331.94544  21152160.1284   21152161.6174
  -3867672.20644  -3013754.73444  23812587.5324   23812589.5734
 96  2 16  3  4  0.0000000  0  8G12G20G24G 6G 9G 4G 5G 7
   4607652.565 4   3590386.709 4  25194559.775    25194558.352
 -10958920.76544  -8539413.92644  23126409.8164   23126412.0174
 -19228259.43644 -14983051.29944  20343867.0894   20343868.9574
  -1897571.91844  -1478625.92744  25129584.0944   25129585.1624
 -17819354.23544 -13885204.67244  21887207.6514   21887209.6014
 -18893214.98544 -14721972.90244  21527383.4954   21527384.7564
 -21360885.25744 -16644837.37744  21140558.7704   21140560.3694
  -3797865.78244  -2959360.10344  23825872.0024   23825872.8904
 96  2 16  3  4 30.0000000  0  8G12G20G24G 6G 9G 4G 5G 7
   4718246.197 4   3676563.515 4  25215607.439    25215603.206
 -11052798.35644  -8612565.27344  23108545.3834   23108548.0454
 -19235188.31544 -14988450.41744  20342548.4374   20342550.4494
  -1969936.75544  -1535014.04144  25115812.7034   25115816.4014
 -17754026.82944 -13834300.22344  21899639.4124   21899641.0094
 -18825005.27744 -14668822.48444  21540363.4324   21540363.9084
 -21421559.89444 -16692116.31144  21129012.4594   21129014.2944
  -3728079.07844  -2904980.86544  23839151.0934   23839154.1294
 96  2 16  3  5  0.0000000  0  8G12G20G24G 6G 9G 4G 5G 7
   4828900.720 4   3762787.870 4  25236662.329    25236660.331
 -11146532.63944  -8685604.94744  23090708.1334   23090710.5354
 -19241571.51244 -14993424.32644  20341333.7424   20341335.7394
  -2042203.73544  -1591325.94044  25102060.6314
 -17688284.90844 -13783072.75744  21912149.6434   21912151.6434
 -18756416.16544 -14615376.42644  21553415.4674   21553416.4644
 -21481898.66144 -16739133.52644  21117530.6014   21117532.0284
  -3658309.27844  -2850614.78144  23852427.5354   23852429.6624
 96  2 16  3  5 30.0000000  0  8G12G20G24G 6G 9G 4G 5G 7
   4939604.098 4   3849050.124 4  25257728.490    25257726.925
 -11240126.47444  -8758535.19444  23072897.5434   23072899.7974
 -19247422.42644 -14997983.46944  20340220.2754   20340222.3184
  -2114388.82944  -1647574.04944  25088324.2494
 -17622154.30844 -13731542.43244  21924733.1284   21924735.3774
 -18687457.37144 -14561642.28844  21566537.7084   21566539.0394
 -21541903.67544 -16785890.67144  21106112.0834   21106113.4644
  -3588558.93344  -2796263.84444  23865701.5844   23865702.4194
 96  2 16  3  6  0.0000000  0  8G12G20G24G 6G 9G 4G 5G 7
   5050338.367 4   3935336.575 4  25278802.394    25278798.938
 -11333601.18544  -8831372.62944  23055109.6814   23055111.7114
 -19252757.54644 -15002140.69644  20339205.0434   20339207.1344
  -2186501.43944  -1703765.63544  25074601.8124
 -17555660.80744 -13679729.33344  21937386.8074   21937388.5804
 -18618163.40944 -14507646.99544  21579723.8264   21579724.6074
 -21601599.03544 -16832406.52944  21094752.3924   21094753.9674
  -3518820.01344  -2741921.73344  23878972.2064   23878972.9494
 96  2 16  3  6 30.0000000  0  8G12G20G24G 6G 9G 4G 5G 7
   5161093.233 4   4021639.018 4  25299877.177    25299873.648
 -11426980.67844  -8904135.84944  23037340.4744   23037342.7434
 -19257581.32344 -15005899.47244  20338287.2024   20338289.2174
  -2258559.72144  -1759914.94244  25060890.1764   25060894.7554
 -17488829.44444 -13627652.95744  21950104.3194   21950106.3104
 -18548534.60144 -14453390.78744  21592973.8124   21592974.7904
 -21660996.56944 -16878690.32044  21083449.2274   21083450.8504
  -3449082.24744  -2687579.02044  23892242.9224   23892244.0034
 96  2 16  3  7  0.0000000  0  8G12G20G24G 6G 9G 4G 5G 7
   5271912.261 4   4107991.472 4  25320966.180    25320962.413
 -11520215.39044  -8976786.25744  23019598.4154   23019600.8394
 -19261836.47844 -15009215.16944  20337477.4054   20337479.1724
  -2330547.17544  -1816009.04944  25047191.3524   25047192.5174
 -17421612.55644 -13575276.16844  21962895.3124   21962897.3584
 -18478524.03944 -14398837.09644  21606296.6544   21606298.0024
 -21720057.44844 -16924711.77744  21072210.3344   21072211.8374
  -3379266.22844  -2633177.75944  23905528.8634   23905528.7834
 96  2 16  3  7 30.0000000  0  8G12G20G24G 6G 9G 4G 5G 7
   5382759.360 4   4194365.849 4  25342059.220    25342055.642
 -11613343.42944  -9049353.54144  23001876.8414   23001879.6774
 -19265564.58144 -15012120.17844  20336768.0564   20336769.9344
  -2402515.17144  -1872087.94944  25033496.8124   25033496.1754
 -17354038.06944 -13522620.72644  21975754.3544   21975756.4114
 -18408166.80344 -14344013.27044  21619684.8344   21619685.8814
 -21778842.28244 -16970518.13244  21061023.9804   21061025.5384
  -3309374.95544  -2578717.03844  23918827.5634   23918831.2694
 96  2 16  3  8  0.0000000  0  8G12G20G24G 6G 9G 4G 5G 7
   5493647.624 4   4280772.263 4  25363160.319    25363156.897
 -11706353.54544  -9121828.94944  22984178.0394   22984179.9904
 -19268757.37844 -15014608.06444  20336160.3354   20336162.3524
  -2474442.19844  -1928135.01344  25019810.2654   25019815.8544
 -17286082.56844 -13469668.40544  21988686.2654   21988688.3564
 -18337437.35344 -14288899.41744  21633144.5774   21633145.0714
 -21837330.16944 -17016093.10444  21049893.9524   21049895.6194
  -3239389.63744  -2524183.02044  23932146.8224   23932147.9024
 96  2 16  3  8 30.0000000  0  8G12G20G24G 6G 9G 4G 5G 7
   5604568.289 4   4367203.918 4  25384269.193    25384264.861
 -11799246.87444  -9194213.35144  22966500.5844   22966503.1994
 -19271430.51244 -15016691.01844  20335651.6514   20335653.7224
  -2546345.33644  -1984163.48144  25006127.1184   25006131.0704
 -17217744.84644 -13416418.23144  22001690.0394   22001691.9354
 -18266319.09544 -14233482.59444  21646677.9664   21646678.9014
 -21895519.78244 -17061435.65544  21038820.7834   21038822.6594
  -3169320.95144  -2469584.03044  23945479.2494   23945481.0394
 96  2 16  3  9  0.0000000  0  8G12G20G24G 6G 9G 4G 5G 7
   5715513.611 4   4453654.802 4  25405381.083    25405377.232
 -11892014.87644  -9266500.08544  22948847.7384   22948849.9824
 -19273591.22644 -15018374.68444  20335240.5334   20335242.6234
  -2618225.22144  -2040173.73144  24992447.8574
 -17149021.06844 -13362867.22944  22014767.9204   22014770.0214
 -18194829.56244 -14177776.46144  21660281.8634   21660282.5774
 -21953421.61944 -17106553.96444  21027802.5294   21027804.3354
  -3099182.00644  -2414930.34844  23958827.4384   23958828.9784
 96  2 16  3  9 30.0000000  0  8G12G20G24G 6G 9G 4G 5G 7
   5826457.967 4   4540104.920 4  25426492.125    25426489.059
 -11984676.27144  -9338703.75944  22931214.8294   22931216.9484
 -19275275.07344 -15019686.76744  20334920.2804   20334922.2504
  -2690094.14044  -2096175.49044  24978771.8594   24978775.5614
 -17079938.48644 -13309036.66144  22027913.7794   22027916.1564
 -18123012.88244 -14121815.41444  21673948.2534   21673948.8004
 -22011053.94644 -17151462.26544  21016835.4494   21016837.0804
  -3029031.50044  -2360267.61844  23972176.3654   23972177.8724
 96  2 16  3 10  0.0000000  0  8G12G20G24G 6G 9G 4G 5G 7
   5937406.141 4   4626558.065 4  25447605.002    25447601.518
 -12077220.36144  -9410816.03544  22913603.9794   22913606.0354
 -19276479.67144 -15020625.40844  20334690.9034   20334692.9874
  -2761934.26344  -2152154.75944  24965101.0214   24965103.3004
 -17010492.97844 -13254923.30044  22041128.7244   22041130.6964
 -18050873.00344 -14065602.52544  21687675.9394   21687677.0344
 -22068393.77944 -17196142.64844  21005923.9604   21005925.7654
  -2958889.08344  -2305611.18644  23985523.1804   23985524.8684
 96  2 16  3 10 30.0000000  0  8G12G20G24G 6G 9G 4G 5G 7
   6048359.428 4   4713015.152 4  25468718.737    25468714.841
 -12169632.98144  -9482825.84644  22896018.6164   22896020.2874
 -19277195.69844 -15021183.34144  20334554.4894   20334556.5514
  -2833752.66244  -2208117.11044  24951433.5034   24951438.9364
 -16940692.00344 -13200532.93444  22054411.3064   22054413.4964
 -17978431.97144 -14009154.96344  21701461.2524   21701461.9434
 -22125440.86544 -17240594.91744  20995068.3384   20995070.1924
  -2888765.27344  -2250969.02044  23998867.9784   23998869.5284
 96  2 16  3 11  0.0000000  0  8G12G20G24G 6G 9G 4G 5G 7
   6159327.631 4   4799483.857 4  25489835.793    25489832.259
 -12261899.66944  -9554721.95944  22878460.7884   22878462.5524
 -19277411.45644 -15021351.45844  20334513.3574   20334515.4304
  -2905528.78544  -2264046.50744  24937774.8384   24937777.3404
 -16870532.83844 -13145863.45944  22067762.2014   22067764.4084
 -17905697.56244 -13952478.80044  21715302.0854   21715302.9614
 -22182174.79444 -17284803.17044  20984272.2284   20984274.0784
  -2818666.26344  -2196346.83344  24012206.6964   24012209.7474
 96  2 16  3 11 30.0000000  0  8G12G20G24G 6G 9G 4G 5G 7
   6270292.200 4   4885949.771 4  25510952.446    25510947.684
 -12354042.36544  -9626521.44044  22860926.4424   22860928.2244
 -19277155.65144 -15021152.12244  20334562.1394   20334564.3104
  -2977273.56244  -2319951.49944  24924122.7764   24924125.8604
 -16800046.19744 -13090938.81144  22081175.8884   22081177.9764
 -17832668.70944 -13895573.20144  21729198.6754   21729200.0304
 -22238603.80644 -17328773.82744  20973534.2814   20973535.9654
  -2748618.09044  -2141763.75344  24025537.6244   24025537.5154
 96  2 16  3 12  0.0000000  0  8G12G20G24G 6G 9G 4G 5G 7
   6381300.298 4   4972449.607 4  25532075.483    25532072.098
 -12446012.05744  -9698186.12244  22843425.0854   22843427.0314
 -19276366.12644 -15020536.90044  20334712.3914   20334714.5094
  -3048932.92744  -2375789.95644  24910486.5394   24910487.9924
 -16729183.79344 -13035721.37044  22094660.3024   22094662.3644
 -17759264.21344 -13838374.89644  21743167.0894   21743168.0804
 -22294677.17944 -17372467.35944  20962863.7484   20962865.4154
  -2678544.70844  -2087161.13944  24038871.3014   24038874.1524
 96  2 16  3 12 30.0000000  0  8G12G20G24G 6G 9G 4G 5G 7
   6492330.637 4   5058966.697 4  25553203.002    25553200.484
 -12537822.62544  -9769726.80044  22825953.9104   22825956.2464
 -19275046.81844 -15019508.85944  20334963.4744   20334965.4614
  -3120520.21244  -2431572.20544  24896863.5934   24896866.2914
 -16657972.07744 -12980231.72244  22108211.6364   22108213.2374
 -17685494.10344 -13780891.69044  21757204.9024   21757206.5574
 -22350406.96844 -17415893.16344  20952258.8444   20952260.4734
  -2608456.43544  -2032546.93844  24052208.3844   24052209.9174
 96  2 16  3 13  0.0000000  0  8G12G20G24G 6G 9G 4G 5G 7
   6603386.718 4   5145503.909 4  25574337.287    25574334.100
 -12629483.30844  -9841150.68744  22808511.0584   22808513.4454
 -19273184.07344 -15018057.36344  20335318.0094   20335319.9084
  -3192013.43744  -2487281.18444  24883259.5154   24883263.6644
 -16586397.76644 -12924459.53944  22121831.4734   22121833.7094
 -17611334.30744 -13723104.83344  21771317.1114   21771318.4294
 -22405783.44644 -17459043.66244  20941720.8244   20941722.5704
  -2538328.75244  -1977901.97644  24065554.3284   24065554.7834
 96  2 16  3 13 30.0000000  0  8G12G20G24G 6G 9G 4G 5G 7
   6714434.146 4   5232034.324 4  25595468.102    25595465.500
 -12721031.37944  -9912486.83244  22791090.4584   22791092.4174
 -19270791.81344 -15016193.26144  20335773.1934   20335775.1214
  -3263447.39944  -2542944.02144  24869666.1714   24869668.0564
 -16514489.76744 -12868427.34844  22135515.2364   22135516.9784
 -17536811.50444 -13665035.11944  21785498.2994   21785499.5614
 -22460842.77244 -17501947.02744  20931243.4494   20931245.1154
  -2468166.75144  -1923230.30044  24078905.3184   24078907.3044
 96  2 16  3 14  0.0000000  0  8G12G20G24G 6G 9G 4G 5G 7
   6825474.325 4   5318559.154 4  25616600.234    25616595.280
 -12812462.01544  -9983731.47244  22773691.6434   22773693.8864
 -19267841.61344 -15013894.39644  20336334.5314   20336336.5484
  -3334815.29844  -2598555.35344  24856087.0184   24856090.4624
 -16442235.21444 -12812125.10644  22149264.9944   22149266.9904
 -17461944.52944 -13606697.22044  21799745.6034   21799746.5734
 -22515584.25444 -17544602.72444  20920826.4914   20920828.3744
  -2397958.10744  -1868522.31344  24092265.4834   24092266.9954
 96  2 16  3 14 30.0000000  0  8G12G20G24G 6G 9G 4G 5G 7
   6936500.104 4   5405072.781 4  25637726.793    25637722.926
 -12903778.86644 -10054887.44344  22756314.7464   22756317.7444
 -19264351.75044 -15011175.01544  20336998.5454   20337000.4894
  -3406132.20644  -2654126.97244  24842515.2924   24842517.2794
 -16369637.68244 -12755555.61244  22163079.0484   22163081.1584
 -17386768.04944 -13548118.14144  21814049.9824   21814051.7424
 -22570013.98844 -17587015.50144  20910468.8344   20910470.9294
  -2327730.20544  -1813799.26744  24105629.4504   24105631.6764
 96  2 16  3 15  0.0000000  0  8G12G20G24G 6G 9G 4G 5G 7
   7047475.456 4   5491547.041 4  25658843.292    25658840.754
 -12995002.88844 -10125971.08944  22738955.7564   22738957.9014
 -19260381.37044 -15008081.21144  20337754.1474   20337756.0004
  -3477449.53844  -2709698.85344  24828943.6514   24828946.9694
 -16296728.83544 -12698743.53844  22176953.6504   22176955.6924
 -17311333.22144 -13489337.75544  21828405.5204   21828406.7384
 -22624173.23944 -17629217.51544  20900162.9024   20900164.4454
  -2257516.13544  -1759087.01944  24118991.1804   24118993.2464
 96  2 16  3 15 30.0000000  0  8G12G20G24G 6G 9G 4G 5G 7
   7158450.186 4   5578020.789 4  25679961.555    25679959.741
 -13086059.83644 -10196924.53944  22721628.0474   22721630.2974
 -19255899.12344 -15004588.54544  20338607.0774   20338609.1524
  -3548734.48144  -2765245.55744  24815378.2494   24815382.1054
 -16223466.36344 -12641655.91144  22190895.1624   22190897.1394
 -17235604.31044 -13430328.21644  21842816.5184   21842817.6634
 -22678001.36144 -17671161.50144  20889919.8034   20889921.1344
  -2187277.80344  -1704355.87044  24132356.2814   24132358.9894
 96  2 16  3 16  0.0000000  0  8G12G20G24G 6G 9G 4G 5G 7
   7269424.235 4   5664494.016 4  25701079.240    25701076.019
 -13176935.60344 -10267736.81244  22704335.2034   22704337.7494
 -19250925.91844 -15000713.31244  20339553.3904   20339555.5594
  -3619995.61244  -2820773.69444  24801817.9164   24801819.6064
 -16149858.41744 -12584299.08844  22204902.0934   22204904.1614
 -17159584.56844 -13371092.04744  21857281.6884   21857283.4964
 -22731484.31444 -17712836.52744  20879742.0854   20879743.8014
  -2117026.13844  -1649614.33444  24145725.1404   24145725.9064
 96  2 16  3 16 30.0000000  0  8G12G20G24G 6G 9G 4G 5G 7
   7380394.551 4   5750964.436 4  25722197.123    25722193.023
 -13267623.02744 -10338402.32744  22687077.5154   22687080.0954
 -19245490.39644 -14996477.83344  20340587.5884   20340589.6414
  -3691250.45244  -2876296.89744  24788258.8044   24788262.9484
 -16075919.76444 -12526684.56844  22218971.5694   22218973.7354
 -17083268.74544 -13311625.16544  21871805.0624   21871805.5644
 -22784609.46944 -17754232.75444  20869632.7944   20869634.6354
  -2046754.61344  -1594857.29644  24159096.8514   24159098.0234
 96  2 16  3 17  0.0000000  0  8G12G20G24G 6G 9G 4G 5G 7
   7491362.986 4   5837433.341 4  25743313.662    25743309.371
 -13358121.68044 -10408920.74844  22669856.2654   22669859.2954
 -19239588.44944 -14991878.90944  20341710.7674   20341712.7584
  -3762493.10944  -2931810.62844  24774701.2764   24774705.0294
 -16001662.10844 -12468821.47444  22233103.0214   22233105.3134
 -17006643.61744 -13251917.28144  21886386.2594   21886387.4064
 -22837362.06744 -17795338.67144  20859594.3114   20859595.6344
  -1976441.00444  -1540067.51944  24172477.5624   24172480.2654
 96  2 16  3 17 30.0000000  0  8G12G20G24G 6G 9G 4G 5G 7
   7602332.694 4   5923903.278 4  25764430.169    25764427.006
 -13448445.71544 -10479303.09644  22652668.4384   22652670.9284
 -19233194.59244 -14986896.67744  20342927.4554   20342929.5714
  -3833700.00044  -2987296.46544  24761150.2624   24761150.7124
 -15927082.91344 -12410707.82844  22247294.7814   22247297.2174
 -16929689.13144 -13191952.74444  21901029.7604   21901031.3654
 -22889738.90844 -17836151.78644  20849627.3544   20849628.9034
  -1906078.90344  -1485239.91044  24185867.6264   24185869.7124
 96  2 16  3 18  0.0000000  0  8G12G20G24G 6G 9G 4G 5G 7
   7713298.279 4   6010369.932 4  25785545.767    25785542.931
 -13538607.12844 -10549558.72444  22635511.3554   22635513.6804
 -19226310.78744 -14981532.66444  20344237.6854   20344239.6484
  -3904848.96344  -3042737.20944  24747611.8274   24747615.1854
 -15852186.83544 -12352347.24944  22261547.2294   22261549.0664
 -16852408.18344 -13131733.82144  21915736.3704   21915737.3574
 -22941749.64244 -17876679.62944  20839729.9804   20839731.7354
  -1835664.96344  -1430371.93444  24199265.7864   24199268.3034
 96  2 16  3 18 30.0000000  0  8G12G20G24G 6G 9G 4G 5G 7
   7824248.760 4   6096824.864 4  25806660.527    25806655.386
 -13628606.16244 -10619687.83044  22618385.4174   22618387.6414
 -19218930.56844 -14975781.84044  20345642.1064   20345644.0294
  -3975938.40444  -3098131.56744  24734083.7794   24734085.2104
 -15776990.20644 -12293752.49144  22275857.0384   22275858.6724
 -16774815.17844 -13071271.74444  21930501.5634   21930502.5794
 -22993405.64444 -17916931.06144  20829900.1564   20829901.9174
  -1765212.40044  -1375473.85344  24212673.2024   24212674.4084
 96  2 16  3 19  0.0000000  0  8G12G20G24G 6G 9G 4G 5G 7
   7935177.088 4   6183262.548 4  25827768.549    25827765.502
 -13718440.34844 -10689688.48244  22601290.1154   22601292.6344
 -19211039.13744 -14969632.66744  20347143.7444   20347145.6434
  -4046959.01644  -3153472.30244  24720568.7894   24720570.1004
 -15701497.27544 -12234926.82444  22290222.5584   22290224.3744
 -16696917.25844 -13010572.06444  21945324.8604   21945325.9524
 -23044717.45344 -17956914.28944  20820135.8454   20820137.2824
  -1694735.32344  -1320556.63544  24226084.3364   24226086.2154
 96  2 16  3 19 30.0000000  0  8G12G20G24G 6G 9G 4G 5G 7
   8046077.682 4   6269678.629 4  25848871.089    25848868.401
 -13808097.71044 -10759551.35644  22584228.5204   22584231.5494
 -19202639.33244 -14963087.36144  20348742.1684   20348744.0634
  -4117907.52244  -3208756.77244  24707067.5954   24707070.3574
 -15625711.38644 -12175872.89244  22304644.6734   22304646.8264
 -16618732.92644 -12949649.20844  21960203.0794   21960203.9394
 -23095691.21144 -17996634.08844  20810435.8894   20810437.5254
  -1624241.62644  -1265626.52344  24239498.3664   24239501.4614
 96  2 16  3 20  0.0000000  0  8G12G20G24G 6G 9G 4G 5G 7
   8156946.203 4   6356069.750 4  25869969.544    25869966.597
 -13897563.55344 -10829264.98244  22567203.4364   22567206.4524
 -19193736.66344 -14956150.21044  20350436.2044   20350438.2774
  -4188801.96744  -3263999.18444  24693577.5834   24693579.8324
 -15549652.20244 -12116606.00344  22319118.2514   22319119.9244
 -16540276.32544 -12888514.19844  21975132.7484   21975133.7044
 -23146311.27344 -18036078.29244  20800803.2934   20800804.9344
  -1553735.91644  -1210687.04344  24252916.3804   24252916.4644
 96  2 16  3 20 30.0000000  0  8G12G20G24G 6G 9G 4G 5G 7
   8267772.665 4   6442427.945 4  25891057.941    25891056.206
 -13986854.46244 -10898842.31044  22550212.0814   22550214.5414
 -19184332.85044 -14948822.55944  20352225.6224   20352227.6884
  -4259672.88844  -3319223.27644  24680090.8104   24680090.7094
 -15473327.24644 -12057132.02544  22333641.8104   22333643.6774
 -16461548.42044 -12827167.77844  21990113.7874   21990115.0604
 -23196580.23644 -18075248.91344  20791237.3634   20791238.9484
  -1483229.62944  -1155747.07544  24266331.4684   24266334.7334
 96  2 16  3 21  0.0000000  0  8G12G20G24G 6G 9G 4G 5G 7
   8378570.885 4   6528764.252 4  25912142.421    25912139.618
 -14075971.88244 -10968284.44144  22533253.6074   22533255.4174
 -19174424.07344 -14941101.43144  20354111.1174   20354113.2424
  -4330507.79444  -3374419.25944  24666611.0884   24666611.5254
 -15396706.73344 -11997427.73944  22348222.1854   22348224.4754
 -16382530.85744 -12765595.65344  22005150.5844   22005151.6714
 -23246480.01644 -18114131.85544  20781741.6254   20781743.2144
  -1412701.05944  -1100789.77144  24279753.5394   24279756.9404
 96  2 16  3 21 30.0000000  0  8G12G20G24G 6G 9G 4G 5G 7
   8489340.732 4   6615078.552 4  25933221.568    25933219.066
 -14164922.24044 -11037596.40144  22516327.6534   22516329.3894
 -19164011.70744 -14932987.89344  20356092.5704   20356094.7334
  -4401317.06444  -3429595.26744  24653136.5734   24653139.3684
 -15319779.54744 -11937484.50744  22362860.6984   22362862.8994
 -16303226.38544 -12703799.96644  22020242.1144   22020242.8334
 -23296007.97444 -18152725.06144  20772316.7654   20772318.2344
  -1342149.00444  -1045814.15244  24293178.3094   24293181.1194
 96  2 16  3 22  0.0000000  0  8G12G20G24G 6G 9G 4G 5G 7
   8600069.637 4   6701360.712 4  25954293.473    25954291.148
 -14253719.08044 -11106788.72344  22499429.9064   22499431.8654
 -19153101.99744 -14924486.81444  20358168.6134   20358170.8394
  -4472125.95544  -3484770.96944  24639661.5084   24639665.6804
 -15242541.96344 -11877299.38344  22377558.2174   22377560.6734
 -16223636.15044 -12641781.60344  22035387.1054   22035387.9994
 -23345179.89744 -18191040.84144  20762959.7474   20762961.4104
  -1271591.41344   -990834.24444  24306605.1254   24306608.1654
 96  2 16  3 22 30.0000000  0  7G20G24G 6G 9G 4G 5G 7
 -14342337.88344 -11175842.32944  22482565.7924   22482568.5004
 -19141675.80344 -14915583.28144  20360342.7994   20360344.8444
  -4542906.49744  -3539924.59544  24626192.7314   24626197.5514
 -15164950.18944 -11816838.26244  22392324.2454   22392326.4504
 -16143744.59944 -12579528.44644  22050590.4634   22050591.7044
 -23393987.03644 -18229072.37744  20753672.0534   20753673.8054
  -1201004.02944   -935831.09944  24320038.6484   24320041.1214
 96  2 16  3 23  0.0000000  0  7G20G24G 6G 9G 4G 5G 7
 -14430752.76744 -11244737.03244  22465740.5294   22465743.6284
 -19129739.76644 -14906282.46944  20362614.2564   20362616.2584
  -4613641.11144  -3595042.44144  24612731.5524   24612733.9374
 -15087013.55644 -11756108.43644  22407155.3994   22407157.7964
 -16063573.07744 -12517057.12944  22065845.9264   22065847.4024
 -23442436.89044 -18266825.51344  20744452.4564   20744454.0764
  -1130386.42344   -880804.44744  24333476.2274   24333477.9754
 96  2 16  3 23 30.0000000  0  7G20G24G 6G 9G 4G 5G 7
 -14518928.78844 -11313445.61344  22448961.4624   22448964.5984
 -19117280.97644 -14896574.31644  20364985.0784   20364987.2574
  -4684308.98044  -3650108.25344  24599285.3084   24599287.9514
 -15008738.96344 -11695115.26044  22422050.1554   22422053.2574
 -15983110.20244 -12454358.78644  22081158.1544   22081158.4824
 -23490514.62644 -18304288.68244  20735303.4784   20735305.0564
  -1059718.11144   -825738.25244  24346923.8324   24346927.2654
 96  2 16  3 24  0.0000000  0  7G20G24G 6G 9G 4G 5G 7
 -14606887.75244 -11381985.06444  22432223.6054   22432226.6974
 -19104331.44844 -14886483.76744  20367449.2734   20367451.3204
  -4754913.16344  -3705124.45244  24585849.6974   24585853.9344
 -14930175.66044 -11633897.10144  22437000.4834   22437002.7814
 -15902386.25444 -12391457.02044  22096519.5574   22096520.1544
 -23538235.35044 -18341473.65844  20726222.5254   20726224.1304
   -989010.72644   -770641.59044  24360379.6124   24360381.7124
 96  2 16  3 24 30.0000000  0  7G20G24G 6G 9G 4G 5G 7
 -14694633.00144 -11450357.98244  22415526.3824   22415529.5104
 -19090904.05744 -14876020.86244  20370004.4944   20370006.2944
  -4825443.32344  -3760082.99044  24572428.2404   24572429.6094
 -14851343.36644 -11572469.35544  22452001.5574   22452004.5234
 -15821412.80744 -12328360.82144  22111928.1344   22111929.3504
 -23585588.43544 -18378372.16444  20717211.7044   20717213.3244
   -918246.67944   -715500.80344  24373844.7204   24373847.9154
 96  2 16  3 25  0.0000000  0  7G20G24G 6G 9G 4G 5G 7
 -14782194.66044 -11518587.83944  22398864.3104   22398866.5834
 -19077039.90244 -14865217.62244  20372642.5484   20372644.7194
  -4895929.59544  -3815007.29444  24559014.3154   24559017.8284
 -14772288.95444 -11510868.52044  22467044.4544   22467046.8614
 -15740210.00944 -12265085.91744  22127380.1964   22127380.9784
 -23632589.05544 -18414996.02644  20708267.4154   20708269.3904
   -847449.27544   -660334.02244  24387317.1014   24387320.0464
 96  2 16  3 25 30.0000000  0  7G20G24G 6G 9G 4G 5G 7
 -14869549.58444 -11586656.60144  22382241.3634   22382243.1724
 -19062698.19944 -14854042.26144  20375371.7684   20375373.8304
  -4966352.08044  -3869881.93344  24545612.5224   24545616.1464
 -14692972.23444 -11449063.29844  22482138.5624   22482141.0544
 -15658728.85944 -12201594.11944  22142885.6394   22142886.3444
 -23679189.92844 -18451308.39744  20699399.6354   20699401.1844
   -776581.02644   -605112.01644  24400803.5204   24400806.7004
 96  2 16  3 26  0.0000000  0  7G20G24G 6G 9G 4G 5G 7
 -14956742.33544 -11654598.99844  22365648.9614   22365650.9214
 -19047924.56744 -14842530.33844  20378183.3484   20378185.1784
  -5036755.61644  -3924741.84844  24532215.6094   24532217.8184
 -14613407.42944 -11387064.76944  22497278.5514   22497280.6514
 -15577005.35344 -12137913.46044  22158436.7784   22158438.5334
 -23725426.37844 -18487336.79444  20690601.4394   20690602.5994
   -705685.81444   -549869.01944  24414294.2424   24414300.1714
 96  2 16  3 26 30.0000000  0  7G20G24G 6G 9G 4G 5G 7
 -15043766.39244 -11722409.93544  22349088.3454   22349091.2104
 -19032719.74044 -14830682.42044  20381076.5204   20381078.6004
  -5107159.19944  -3979601.71844  24518818.6774   24518821.5684
 -14533575.82144 -11324858.32644  22512470.6384   22512472.2274
 -15495026.36244 -12074033.72144  22174036.8114   22174038.6704
 -23771302.70944 -18523084.57944  20681870.9854   20681873.1254
   -634776.02444   -494614.65344  24427788.5854   24427791.1344
 96  2 16  3 27  0.0000000  0  7G20G24G 6G 9G 4G 5G 7
 -15130605.63644 -11790076.87244  22332563.4784   22332566.4094
 -19017066.57744 -14818485.14244  20384055.2324   20384057.4694
  -5177547.37844  -4034449.63544  24505424.0014   24505425.8464
 -14453473.07844 -11262440.61444  22527713.5634   22527715.9144
 -15412774.95744 -12009941.71944  22189688.7974   22189690.1164
 -23816811.02744 -18558545.61344  20673211.4304   20673213.0604
   -563873.84944   -439366.20744  24441279.9334   24441282.1304
 96  2 16  3 27 30.0000000  0  7G20G24G 6G 9G 4G 5G 7
 -15217254.66544 -11857595.59144  22316074.3904   22316077.5544
 -19000942.91744 -14805921.24644  20387123.5404   20387125.5354
  -5247913.42344  -4089280.25444  24492034.0454   24492035.4424
 -14373089.56844 -11199804.11444  22543010.3134   22543012.1614
 -15330253.88544 -11945639.58944  22205392.1974   22205393.7094
 -23861947.35844 -18593716.76944  20664622.4674   20664623.4774
   -492985.75144   -384128.72544  24454769.8524   24454772.2474
 96  2 16  3 28  0.0000000  0  7G20G24G 6G 9G 4G 5G 7
 -15303714.52544 -11924966.90544  22299621.8574   22299624.5064
 -18984350.21844 -14792991.86544  20390280.9074   20390282.9334
  -5318258.51544  -4144094.58044  24478647.8124   24478653.9554
 -14292443.11144 -11136962.74444  22558356.3454   22558358.8264
 -15247477.20844 -11881138.28344  22221143.9454   22221145.7324
 -23906713.43844 -18628599.42344  20656103.2374   20656105.1354
   -422113.62144   -328903.71544  24468256.6694   24468259.6974
 96  2 16  3 28 30.0000000  0  7G20G24G 6G 9G 4G 5G 7
 -15389977.28844 -11992184.63944  22283206.9044   22283208.4874
 -18967267.15644 -14779680.38644  20393531.6364   20393533.7384
  -5388567.48044  -4198880.73744  24465268.4864   24465274.3804
 -14211557.55544 -11073935.02044  22573748.7184   22573751.6564
 -15164451.14444 -11816442.64544  22236943.9994   22236945.3374
 -23951092.29844 -18663180.36044  20647658.7064   20647660.2804
   -351263.75244   -273696.05844  24481738.5764   24481740.2844
 96  2 16  3 29  0.0000000  0  7G20G24G 6G 9G 4G 5G 7
 -15476021.80144 -12059232.30244  22266833.0664   22266835.4154
 -18949674.74444 -14765972.00544  20396879.4794   20396881.4564
  -5458824.89844  -4253626.80144  24451898.4874   24451901.6524
 -14130424.04544 -11010714.10044  22589188.8874   22589190.3534
 -15081186.40244 -11751561.03144  22252788.6234   22252789.1644
 -23995062.81044 -18697443.09344  20639291.0164   20639292.6874
   -280414.90944   -218489.18244  24495220.8924   24495224.4674
 96  2 16  3 29 30.0000000  0  7G20G24G 6G 9G 4G 5G 7
 -15561835.23544 -12126099.90844  22250503.2184   22250505.6934
 -18931566.39744 -14751861.60644  20400325.5064   20400327.4374
  -5529040.92744  -4308340.53344  24438537.0064   24438539.6684
 -14049024.04444 -10947285.52744  22604678.7154   22604680.8114
 -14997683.88644 -11686494.13544  22268677.5414   22268679.6824
 -24038610.72544 -18731376.53244  20631004.3604   20631005.9894
   -209532.94844   -163256.50644  24508709.0864   24508710.3204
 96  2 16  3 30  0.0000000  0  7G20G24G 6G 9G 4G 5G 7
 -15647415.34244 -12192785.70444  22234217.8304   22234220.8904
 -18912968.39244 -14737369.64744  20403864.3874   20403866.5804
  -5599225.40644  -4363029.74544  24425182.2324   24425183.6884
 -13967379.81444 -10883666.66044  22620213.6914   22620215.9804
 -14913957.92744 -11621253.13144  22284611.4234   22284612.4374
 -24081744.63244 -18764987.36844  20622796.3274   20622797.9094
   -138626.11644   -108004.48444  24522202.2254   24522204.9124
 96  2 16  3 30 30.0000000  0  7G20G24G 6G 9G 4G 5G 7
 -15732738.21344 -12259271.04944  22217981.1584   22217984.3564
 -18893867.78044 -14722486.04844  20407499.5594   20407501.2864
  -5669352.34544  -4417674.06744  24411837.1004   24411840.2934
 -13885471.26544 -10819841.85444  22635801.1494   22635803.2464
 -14829993.45044 -11555826.27944  22300588.4504   22300589.6994
 -24124450.43044 -18798264.61344  20614669.5614   20614671.1834
    -67670.98344    -52714.80644  24535704.8754   24535706.5334
 96  2 16  3 31  0.0000000  0  7G20G24G 6G 9G 4G 5G 7
 -15817815.29544 -12325564.87344  22201791.5844   22201794.5834
 -18874288.03244 -14707229.10144  20411225.0374   20411227.4514
  -5739438.70944  -4472286.79044  24398499.2654   24398501.5074
 -13803309.50444 -10755819.70544  22651435.5854   22651436.5724
 -14745800.30644 -11490221.22744  22316609.5974   22316611.7524
 -24166743.62844 -18831220.34844  20606621.2834   20606622.8904
      3339.37744      2617.91744  24549217.2464   24549218.1044
 96  2 16  3 31 30.0000000  0  7G20G24G 6G 9G 4G 5G 7
 -15902636.29844 -12391659.15744  22185651.2764   22185654.0674
 -18854220.83544 -14691592.31144  20415043.7904   20415046.0354
  -5809454.53344  -4526844.50744  24385176.5794   24385180.7544
 -13720892.19244 -10691598.42944  22667118.9234   22667121.2594
 -14661348.28244 -11424414.44944  22332680.8844   22332681.8584
 -24208599.39744 -18863835.23244  20598656.3984   20598658.0264
     74419.75244     58005.22844  24562743.0444   24562746.8454
 96  2 16  3 32  0.0000000  0  7G20G24G 6G 9G 4G 5G 7
 -15987244.19144 -12457587.37944  22169550.5174   22169553.0294
 -18833708.71544 -14675608.84044  20418947.2684   20418949.1534
  -5879412.57744  -4581357.22644  24371864.2424   24371866.8884
 -13638259.61044 -10627209.40444  22682843.7424   22682845.3834
 -14576668.72144 -11358430.38844  22348794.5654   22348795.7414
 -24250053.03244 -18896136.76344  20590768.3604   20590769.6654
    145537.65644    113421.72444  24576275.5134   24576278.5944
 96  2 16  3 32 30.0000000  0  7G20G24G 6G 9G 4G 5G 7
 -16071631.67044 -12523343.84344  22153492.2064   22153495.3284
 -18812733.89244 -14659264.82044  20422938.2874   20422940.4984
  -5949293.04844  -4635809.50144  24358565.2824   24358568.8364
 -13555378.01544 -10562626.34844  22698615.0304   22698617.2504
 -14491733.58344 -11292247.16544  22364957.2654   22364958.9544
 -24291078.93944 -18928104.99644  20582961.1674   20582962.7234
    216721.08844    168889.26344  24589821.5014   24589828.2124
 96  2 16  3 33  0.0000000  0  7G20G24G 6G 9G 4G 5G 7
 -16155815.52444 -12588941.64344  22137472.3024   22137474.7824
 -18791322.10744 -14642580.30944  20427013.1984   20427015.1384
  -6019128.23444  -4690226.49844  24345276.5574   24345281.2044
 -13472258.73044 -10497858.09044  22714432.5244   22714435.6954
 -14406551.60344 -11225871.59444  22381167.1254   22381168.4144
 -24331686.78844 -18959747.47844  20575233.6534   20575235.5674
    287940.27044    224384.72444  24603373.9054   24603375.8404
 96  2 16  3 33 30.0000000  0  7G20G24G 6G 9G 4G 5G 7
 -16239794.00944 -12654379.42044  22121492.1464   22121494.1404
 -18769478.88444 -14625559.61244  20431169.6854   20431171.6224
  -6088937.34944  -4744623.15144  24331993.3604   24331995.3064
 -13388901.90044 -10432904.74144  22730294.3504   22730296.8664
 -14321128.79544 -11159308.36544  22397422.2824   22397423.6134
 -24371897.87044 -18991080.78644  20567582.1134   20567583.1834
    359178.61444    279895.03844  24616931.3714   24616934.7754
 96  2 16  3 34  0.0000000  0  7G20G24G 6G 9G 4G 5G 7
 -16323542.49944 -12719637.97644  22105555.2334   22105557.8794
 -18747193.49044 -14608194.36844  20435410.2704   20435412.2134
  -6158724.75844  -4799002.90844  24318713.0674   24318714.7924
 -13305296.64844 -10367757.77644  22746204.5104   22746207.0244
 -14235467.87744 -11092559.60244  22413723.0164   22413723.5494
 -24411717.42644 -19022109.01344  20560004.2934   20560006.1404
    430446.90244    335428.79344  24630493.0854   24630496.0894
 96  2 16  3 34 30.0000000  0  7G20G24G 6G 9G 4G 5G 7
 -16407051.64544 -12784710.02944  22089663.8294   22089666.0024
 -18724466.71044 -14590485.18744  20439735.0124   20439737.0484
  -6228522.03944  -4853390.33244  24305430.0204   24305434.4864
 -13221465.58944 -10302434.91344  22762157.2484   22762160.5044
 -14149593.09744 -11025644.20244  22430064.7804   22430065.3964
 -24451157.95744 -19052841.89544  20552499.2654   20552500.6764
    501715.48744    390962.70344  24644054.0334   24644057.5184
 96  2 16  3 35  0.0000000  0  7G20G24G 6G 9G 4G 5G 7
 -16490302.07044 -12849580.48444  22073821.8034   22073824.1804
 -18701284.23544 -14572420.91444  20444146.7194   20444148.7114
  -6298327.60044  -4907784.23444  24292147.0604   24292150.4224
 -13137420.20944 -10236945.03044  22778150.2084   22778153.1814
 -14063523.10644 -10958576.67944  22446442.7554   22446444.1924
 -24490221.53244 -19083281.04844  20545065.1794   20545066.9094
    572977.52944    446491.55344  24657616.7434   24657618.3764
 96  2 16  3 35 30.0000000  0  7G20G24G 6G 9G 4G 5G 7
 -16573250.88144 -12914215.91844  22058037.2274   22058039.4434
 -18677607.71844 -14553971.68344  20448652.3984   20448654.0464
  -6368092.86644  -4962146.72644  24278872.0784   24278873.9004
 -13053142.22744 -10171273.86844  22794188.5244   22794189.5794
 -13977236.01244 -10891339.97544  22462862.9764   22462864.2024
 -24528875.84444 -19113401.29744  20537709.9474   20537711.4944
    644273.07644    502046.50544  24671183.4314
 96  2 16  3 36  0.0000000  0  7G20G24G 6G 9G 4G 5G 7
 -16655919.24244 -12978632.81544  22042306.0664   22042308.3404
 -18653468.41844 -14535161.83244  20453245.5864   20453247.6244
  -6437824.65244  -5016483.13444  24265600.9004   24265603.2504
 -12968660.91744 -10105444.30744  22810263.4894   22810266.6974
 -13890762.48644 -10823958.01244  22479318.0154   22479318.9684
 -24567125.42444 -19143206.16444  20530431.7154   20530432.9504
    715587.15544    557615.86544  24684753.7384
 96  2 16  3 36 30.0000000  0  7G20G24G 6G 9G 4G 5G 7
 -16738293.00044 -13042820.15544  22026630.8264   22026632.9034
 -18628845.21344 -14515974.92444  20457931.7074   20457933.3004
  -6507488.36444  -5070766.52844  24252343.2544   24252347.5834
 -12883954.77644 -10039439.52044  22826383.8794   22826386.0094
 -13804076.65344 -10756410.61644  22495813.9024   22495814.5554
 -24604928.81344 -19172663.34944  20523237.6034   20523239.1184
    786937.47544    613213.46144  24698332.3544   24698335.5114
 96  2 16  3 37  0.0000000  0  7G20G24G 6G 9G 4G 5G 7
 -16820397.02144 -13106797.30644  22011006.6934   22011009.0564
 -18603774.95044 -14496439.65344  20462701.7574   20462704.2484
  -6577088.68744  -5125000.50444  24239100.2094   24239102.1044
 -12799047.81344  -9973278.26444  22842540.0744   22842541.7034
 -13717176.76844 -10688696.42044  22512350.5714   22512351.3274
 -24642303.01244 -19201786.10844  20516125.3604   20516126.9254
    858329.44944    668843.54444  24711916.6824   24711917.1734
 96  2 16  3 37 30.0000000  0  7G20G24G 6G 9G 4G 5G 7
 -16902264.77544 -13170590.35244  21995427.9964   21995430.7584
 -18578294.33844 -14476584.62244  20467550.9534   20467553.0614
  -6646646.29144  -5179201.20044  24225863.5784   24225866.5964
 -12713967.24144  -9906981.73844  22858731.8364   22858735.0174
 -13630072.16444 -10620822.70044  22528925.9624   22528926.7104
 -24679266.33444 -19230588.69544  20509091.8104   20509093.1394
    929758.34344    724502.34644  24725509.9974   24725512.1014
 96  2 16  3 38  0.0000000  0  7G20G24G 6G 9G 4G 5G 7
 -16983913.08944 -13234212.40744  21979891.1074   21979893.2654
 -18552406.85944 -14456412.56244  20472477.1254   20472479.1814
  -6716174.32344  -5233378.85744  24212632.1814   24212636.5504
 -12628710.01044  -9840547.55444  22874954.7174   22874955.7984
 -13542766.38844 -10552792.23444  22545539.8614   22545540.5104
 -24715807.78344 -19259062.55044  20502138.0534   20502139.6304
   1001230.37544    780194.79044  24739111.0474   24739113.7444
 96  2 16  3 38 30.0000000  0  7G20G24G 6G 9G 4G 5G 7
 -17065303.81444 -13297633.75744  21964402.6004   21964404.8314
 -18526061.88144 -14435884.00444  20477489.9794   20477492.3744
  -6785646.54744  -5287512.98644  24199412.9664   24199415.2144
 -12543240.39944  -9773947.85744  22891218.8354   22891220.2404
 -13455212.83044 -10484568.68444  22562200.6824   22562201.9504
 -24751888.53444 -19287177.42244  20495271.9364   20495273.5444
   1072776.78944    835945.22144  24752724.8544
 96  2 16  3 39  0.0000000  0  7G20G24G 6G 9G 4G 5G 7
 -17146461.87144 -13360873.80444  21948958.7324   21948961.1024
 -18499290.28144 -14415023.01244  20482584.9474   20482587.1384
  -6855105.23144  -5341636.58244  24186195.3244   24186199.1574
 -12457586.87444  -9707204.85544  22907518.6644   22907520.4564
 -13367445.77844 -10416178.77444  22578902.0404   22578902.9304
 -24787538.80544 -19314956.85844  20488488.1074   20488489.6634
   1144375.44844    891736.38844  24766349.2874
 96  2 16  3 39 30.0000000  0  7G20G24G 6G 9G 4G 5G 7
 -17227379.46244 -13423926.46944  21933560.9694   21933562.8074
 -18472065.44644 -14393808.85244  20487765.2724   20487767.7004
  -6924548.00044  -5395747.82744  24172980.3814   24172984.3684
 -12371727.53044  -9640301.49044  22923856.5794   22923859.1774
 -13279476.94244 -10347631.63244  22595642.0354   22595643.3114
 -24822735.35444 -19342382.73944  20481790.5554   20481792.0554
   1216012.87944    947557.72044  24779981.7524   24779983.1774
 96  2 16  3 40  0.0000000  0  7G20G24G 6G 9G 4G 5G 7
 -17308025.25644 -13486767.34244  21918214.6034   21918216.6424
 -18444381.03544 -14372236.58044  20493033.3234   20493035.4044
  -6993971.23244  -5449843.80944  24159769.6754   24159769.8054
 -12285643.88444  -9573223.33844  22940238.2454   22940239.3384
 -13191315.09644 -10278934.09244  22612419.0134   22612419.5634
 -24857475.43544 -19369452.93444  20475179.3264   20475181.0564
   1287664.48044                  24793616.5874
 96  2 16  3 40 30.0000000  0  7G20G24G 6G 9G 4G 5G 7
 -17388389.72944 -13549389.00644  21902921.6374   21902923.8114
 -18416251.10844 -14350317.15844  20498386.5704   20498388.7674
  -7063380.57944  -5503928.97144  24146560.8604   24146564.0624
 -12199353.04844  -9505983.74344  22956658.4444   22956661.4574
 -13102974.29044 -10210097.09744  22629229.8774   22629230.9704
 -24891787.24244 -19396189.40744  20468650.3174   20468651.8144
   1359304.33044   1059213.32944  24807249.9804
 96  2 16  3 41  0.0000000  0  7G20G24G 6G 9G 4G 5G 7
 -17468484.81544 -13611800.75544  21887679.8804   21887682.4644
 -18387688.14544 -14328060.29744  20503821.9604   20503824.3494
  -7132775.00944  -5558002.49744  24133355.9134   24133358.7784
 -12112866.32244  -9438591.49544  22973115.6134   22973117.6764
 -13014473.89244 -10141135.75044  22646071.1864   22646072.1234
 -24925676.61944 -19422596.71244  20462201.2844   20462202.9434
   1430922.53144                  24820878.6464
 96  2 16  3 41 30.0000000  0  7G20G24G 6G 9G 4G 5G 7
 -17548295.66444 -13673991.03044  21872492.4604   21872494.8804
 -18358677.84644 -14305454.86744  20509342.4404   20509344.3864
  -7202124.52444  -5612041.01744  24120159.7654   24120162.7604
 -12026184.45644  -9371047.19144  22989612.1814   22989614.7494
 -12925810.04344 -10072047.03644  22662942.5944   22662943.6674
 -24959138.88944 -19448671.21044  20455833.4384   20455835.1374
   1502531.73244                  24834504.3354
 96  2 16  3 42  0.0000000  0  7G20G24G 6G 9G 4G 5G 7
 -17627805.61644 -13735946.83544  21857362.3444   21857364.3174
 -18329208.21144 -14282491.51644  20514950.3424   20514952.5054
  -7271402.40744  -5666023.75844  24106976.2834   24106978.4674
 -11939307.17044  -9303350.60944  23006143.2384   23006145.5304
 -12836967.00544 -10002818.70344  22679848.5774   22679849.0354
 -24992168.67944 -19474408.70844  20449548.4924   20449549.9094
   1574168.01944                  24848137.2854
 96  2 16  3 42 30.0000000  0  7G20G24G 6G 9G 4G 5G 7
 -17707034.49244 -13797683.61744  21842285.4584   21842287.7264
 -18299255.76644 -14259151.94944  20520650.0434   20520652.2774
  -7340592.80344  -5719938.28544  24093809.5464   24093812.7604
 -11852253.38544  -9235516.48744  23022709.6304   23022712.6274
 -12747924.72744  -9933435.11344  22696793.1434   22696794.1404
 -25024731.52344 -19499782.35244  20443351.7634   20443353.3804
   1645871.77944   1282512.45444  24861783.6804
 96  2 16  3 43  0.0000000  0  7G20G24G 6G 9G 4G 5G 7
 -17785981.94744 -13859201.10744  21827262.1534   21827264.7664
 -18268832.18344 -14235445.25544  20526439.0874   20526441.4214
  -7409701.82744  -5773789.44144  24080658.4484   24080659.4744
 -11765031.43744  -9167551.32544  23039307.2714   23039308.9824
 -12658694.19244  -9863904.82644  22713772.9774   22713774.3744
 -25056812.32844 -19524780.38944  20437246.9074   20437248.4874
   1717659.84344                  24875443.0434
 96  2 16  3 43 30.0000000  0  7G20G24G 6G 9G 4G 5G 7
 -17864572.03844 -13920440.13644  21812306.7694   21812309.1324
 -18237891.34444 -14211335.51144  20532327.4444   20532329.2524
  -7478680.07044  -5827538.66744  24067532.3034   24067535.4904
 -11677569.32844  -9099399.04644  23055950.8714   23055953.9364
 -12569209.76444  -9794176.68944  22730801.9034   22730803.1374
 -25088346.44044 -19549352.42244  20431246.3794   20431247.6374
   1789609.01244                  24889134.7094
 96  2 16  3 44  0.0000000  0  7G20G24G 6G 9G 4G 5G 7
 -17942784.42444 -13981384.84844  21797423.6214   21797425.5204
 -18206444.28144 -14186831.30944  20538311.3474   20538313.5384
  -7547549.53144  -5881203.16444  24054427.2004   24054430.4004
 -11589855.35344  -9031050.49944  23072643.3764   23072645.4974
 -12479446.17844  -9724231.04144  22747883.6394   22747883.9124
 -25119316.31744 -19573484.79344  20425352.9634   20425354.5424
   1861721.95844                  24902858.1564
 96  2 16  3 44 30.0000000  0  7G20G24G 6G 9G 4G 5G 7
 -18020705.81644 -14042102.80744  21782596.1004   21782598.2194
 -18174630.70344 -14162041.50144  20544365.3624   20544367.5784
  -7616441.66944  -5934885.31044  24041317.7374   24041319.7234
 -11501991.15344  -8962584.89144  23089362.1854   23089364.6674
 -12389510.89444  -9654151.60744  22764997.1684   22764997.4354
 -25149825.23044 -19597257.97544  20419547.2074   20419548.8784
   1933884.28444                  24916588.9354
 96  2 16  3 45  0.0000000  0  7G20G24G 6G 9G 4G 5G 7
 -18098340.24844 -14102597.17044  21767822.3354   21767824.6574
 -18142502.45944 -14137006.50644  20550479.2844   20550481.2184
  -7685386.02044  -5988608.14344  24028198.1484   24028201.0554
 -11413983.10644  -8894007.21144  23106111.1864   23106114.3874
 -12299435.60544  -9583963.07744  22782138.2734   22782138.6584
 -25179930.02244 -19620716.25444  20413818.4494   20413819.9864
   2006059.71944                  24930324.1854
 96  2 16  3 45 30.0000000  0  7G20G24G 6G 9G 4G 5G 7
 -18175637.14544 -14162828.51244  21753112.7624   21753115.0824
 -18109991.67444 -14111673.42244  20556665.6154   20556667.7964
  -7754319.48344  -6042322.52144  24015079.5374   24015081.6874
 -11325775.95444  -8825274.37244  23122895.5464   23122896.8974
 -12209144.38844  -9513606.28744  22799320.6464   22799321.7654
 -25209572.03944 -19643813.92744  20408177.6674   20408179.3054
   2078287.57244                  24944069.0434
 96  2 16  3 46  0.0000000  0  7G20G24G 6G 9G 4G 5G 7
 -18252617.74544 -14222813.39144  21738464.2964   21738466.3234
 -18077108.48744 -14086050.16044  20562923.3994   20562925.1514
  -7823241.95244  -6096028.30744  24001964.5884   24001967.1684
 -11237416.01444  -8756422.50144  23139709.6694   23139711.6194
 -12118670.17744  -9443106.90144  22816536.2684   22816537.8674
 -25238773.07444 -19666567.98144  20402620.7694   20402622.4994
   2150527.23944                  24957815.4424
 96  2 16  3 46 30.0000000  0  7G20G24G 6G 9G 4G 5G 7
 -18329493.64144 -14282716.67644  21723835.2284   21723837.4324
 -18044031.19644 -14060275.64944  20569217.7354   20569219.9894
  -7892318.07244  -6149853.84944  23988820.1354   23988823.3404
 -11149105.13044  -8687608.83144  23156515.1514   23156517.2564
 -12028237.98744  -9372640.25744  22833745.1464   22833745.9734
 -25267725.78544 -19689128.53644  20397111.4514   20397113.0904
   2222576.55544                  24971526.6054
 96  2 16  3 47  0.0000000  0  7G20G24G 6G 9G 4G 5G 7
 -18406277.92644 -14342548.58144  21709223.2224   21709226.1834
 -18010720.47444 -14034319.23244  20575556.4594   20575558.6474
  -7961527.34944  -6203783.14944  23975649.4744   23975652.1044
 -11060854.39444  -8618842.03944  23173308.1884   23173309.7734
 -11937850.98044  -9302208.82444  22850946.2104   22850946.3474
 -25296423.66144 -19711490.51944  20391650.2884   20391651.8884
   2294427.75344                  24985198.3254
 96  2 16  3 47 30.0000000  0  7G20G24G 6G 9G 4G 5G 7
 -18482629.84244 -14402043.58544  21694694.1844   21694696.6254
 -17976833.56844 -14007913.84744  20582004.9994   20582006.6814
  -8030534.27444  -6257554.72444  23962518.0034   23962521.2884
 -10972339.97144  -8549869.75644  23190152.6074   23190152.2284
 -11847179.68444  -9231555.88844  22868198.8464   22868199.9444
 -25324509.15044 -19733375.31844  20386305.8784   20386307.3844
   2366412.03844                  24998895.9344
 96  2 16  3 48  0.0000000  0  7G20G24G 6G 9G 4G 5G 7
 -18558655.11544 -14461284.06044  21680227.5644   21680229.7744
 -17942489.85744 -13981152.52044  20588540.4594   20588542.5224
  -8099465.23044  -6311267.13644  23949400.7644   23949402.2314
 -10883669.80144  -8480776.13644  23207024.3394   23207026.8054
 -11756363.48444  -9160790.01044  22885480.9114   22885483.3454
 -25352110.92344 -19754883.19644  20381053.5554   20381055.1224
   2438427.90344                  25012599.8084
 96  2 16  3 48 30.0000000  0  7G20G24G 6G 9G 4G 5G 7
 -18634453.33744 -14520347.60244  21665803.4094   21665805.9734
 -17907801.05144 -13954122.27544  20595141.6034   20595143.8534
  -8168442.46444  -6365015.59744  23936274.2204   23936276.1674
 -10794935.36944  -8411632.41744  23223910.3094   23223913.5384
 -11665500.80844  -9089987.91744  22902771.8514   22902772.4564
 -25379335.81644 -19776097.40044  20375872.9074   20375874.4744
   2510390.40444                  25026293.7374
 96  2 16  3 49  0.0000000  0  7G20G24G 6G 9G 4G 5G 7
 -18709952.92844 -14579178.44944  21651436.1764   21651438.5484
 -17872720.96644 -13926787.13844  20601816.8454   20601818.8914
  -8237414.45144  -6418759.96044  23923150.0924   23923151.0734
 -10706073.86944  -8342389.69644  23240819.9944   23240822.2024
 -11574519.40344  -9019093.32544  22920085.4874   22920085.9994
 -25406130.58444 -19796976.44344  20370774.0124   20370775.4434
   2582367.90144                  25039991.8444
 96  2 16  3 49 30.0000000  0  7G20G24G 6G 9G 4G 5G 7
 -18785108.74144 -14637741.41944  21637134.4884   21637136.9494
 -17837228.41344 -13899130.60944  20608570.9424   20608572.6624
  -8306339.47744  -6472467.75744  23910033.8174   23910037.1374
 -10617041.33844  -8273013.71344  23257762.1934   23257765.1984
 -11483380.30844  -8948075.85344  22937427.8554   22937429.8564
 -25432455.90844 -19817489.68344  20365764.6324   20365766.0234
   2654404.20344                  25053699.2114
 96  2 16  3 50  0.0000000  0  7G20G24G 6G 9G 4G 5G 7
 -18860022.58544 -14696115.84644  21622878.8584   21622881.4754
 -17801411.83744 -13871221.58844  20615386.7034   20615388.8804
  -8375306.33044  -6526208.15544  23896909.9764   23896911.8914
 -10527943.72644  -8203586.98144  23274718.7564   23274719.7424
 -11392182.70344  -8877012.78244  22954782.8334   22954783.4454
 -25458407.61944 -19837711.79944  20360826.1764   20360827.7214
   2726407.85044                  25067400.8094
 96  2 16  3 50 30.0000000  0  7G20G24G 6G 9G 4G 5G 7
 -18934640.85044 -14754259.94544  21608679.4834   21608682.1034
 -17765212.66844 -13843014.43744  20622275.1554   20622277.2164
  -8444241.58044  -6579923.90644  23883791.6744   23883794.9904
 -10438735.28744  -8134073.93644  23291693.4054   23291696.2724
 -11300849.13144  -8805843.75744  22972163.5054   22972163.7844
 -25483908.47044 -19857582.59744  20355973.3584   20355974.8454
   2798437.10844                  25081108.1084
 96  2 16  3 51  0.0000000  0  6G20G 6G24G 9G 4G 5
 -19008709.16244 -14811975.50944  21594584.8594   21594586.6784
  -8512893.14644  -6633418.59844  23870727.8284   23870730.2434
 -17728362.65444 -13814300.13944  20629287.2354   20629289.2384
 -10349178.56644  -8064289.48144  23308736.2564   23308739.0464
 -11209124.30244  -8734369.87544  22989617.0624   22989617.5284
 -25508691.92144 -19876894.37844  20351257.2754   20351258.6194
 96  2 16  3 51 30.0000000  0  6G20G 6G 9G24G 4G 5
 -19082609.09844 -14869559.87544  21580521.8154   21580524.0984
  -8581659.77944  -6687002.95544  23857642.4434   23857644.9804
 -10259672.37644  -7994544.41744  23325768.8074   23325771.1854
 -17691241.51744 -13785374.57444  20636351.2244   20636353.2724
 -11117401.33844  -8662897.43044  23007071.6004   23007071.9684
 -25533139.02444 -19895944.07144  20346605.1144   20346606.5594
 96  2 16  3 52  0.0000000  0  6G20G 6G 9G 4G24G 5
 -19156033.99944 -14926774.08344  21566549.8914   21566552.1984
  -8650250.38344  -6740450.13544  23844590.1024   23844590.6374
 -10169915.51244  -7924604.02144  23342847.8324   23342848.8514
 -11025382.71844  -8591194.63444  23024583.2484   23024582.6924
 -17653556.33844 -13756009.50044  20643522.7124   20643524.4944
 -25556942.66844 -19914492.37044  20342075.5864   20342076.9954
 96  2 16  3 52 30.0000000  0  6G20G 6G24G 9G 4G 5
 -19229487.24044 -14984010.37644  21552572.1764   21552574.4044
  -8719194.05644  -6794172.44644  23831469.9984   23831472.0184
 -17615825.73944 -13726609.03444  20650702.3724   20650704.7374
 -10080413.41844  -7854862.15244  23359878.5064   23359881.1764
 -10933586.60144  -8519665.20144  23042050.4464   23042050.5744
 -25580619.20844 -19932941.62344  20337569.9614   20337571.3364
 96  2 16  3 53  0.0000000  0  6G20G 6G 9G24G 4G 5
 -19302656.05144 -15041025.03844  21538648.5924   21538650.7144
  -8788186.41144  -6847932.69244  23818341.4624   23818342.8684
  -9990857.24144  -7785078.12744  23376921.7874   23376923.4254
 -17577748.48544 -13696938.44644  20657948.4844   20657950.2624
 -10841727.30344  -8448086.53344  23059529.5094   23059530.0124
 -25603872.09444 -19951060.75444  20333145.1854   20333146.4784
 96  2 16  3 53 30.0000000  0  6G20G 6G24G 9G 4G 5
 -19375087.58644 -15097465.19144  21524865.4814   21524867.2154
  -8856759.55944  -6901366.29044  23805292.6084   23805295.5744
 -17538880.75344 -13666651.90444  20665344.6734   20665346.5524
  -9900770.14644  -7714880.39744  23394064.6074   23394066.6364
 -10749351.29144  -8376105.23044  23077109.3354   23077110.3654
 -25626246.59144 -19968495.42644  20328887.3854   20328888.9394
 96  2 16  3 54  0.0000000  0  6G20G 6G 9G 4G24G 5
 -19446907.36244 -15153428.65444  21511198.8604   21511200.8974
  -8925026.14444  -6954560.99644  23792302.4914   23792305.3874
  -9810274.59344  -7644364.39144  23411285.6614   23411287.8634
 -10656561.61144  -8303801.58544  23094767.2344   23094768.5334
 -17499341.93644 -13635842.43144  20672868.5204   20672870.8784
 -25647859.41244 -19985336.59044  20324774.6374   20324775.9834
 96  2 16  3 54 30.0000000  0  6G20G 6G24G 9G 4G 5
 -19518461.44044 -15209185.07144  21497582.4104   21497584.8334
  -8993320.11544  -7007777.04244  23779305.1984   23779307.6364
 -17459456.03244 -13604762.50444  20680458.9554   20680460.7214
  -9719715.64444  -7573798.98244  23428519.1404   23428521.5074
 -10563696.23844  -8231438.95344  23112438.7994   23112440.0994
 -25669058.34044 -20001855.23544  20320740.7334   20320741.8564
 96  2 16  3 55  0.0000000  0  6G20G 6G 9G 4G24G 5
 -19589830.87544 -15264797.61744  21484001.3864   21484003.5424
  -9061705.25844  -7061064.14844  23766291.7194   23766294.6404
  -9629174.87044  -7503247.76144  23445747.5854   23445749.2234
 -10470817.27744  -8159065.74444  23130111.6104   23130113.6044
 -17419306.67144 -13573477.28944  20688098.6744   20688100.7134
 -25689915.16544 -20018107.30744  20316771.7954   20316773.0884
 96  2 16  3 55 30.0000000  0  6G20G 6G24G 9G 4G 5
 -19661089.28844 -15320323.65544  21470441.1754   21470443.0334
  -9130262.89244  -7114485.64644  23753246.3154   23753248.6454
 -17378979.29944 -13542053.36344  20695772.5664   20695774.6714
  -9538740.98944  -7432779.80844  23462957.0174   23462959.9384
 -10377999.29144  -8086740.05144  23147775.0604   23147776.3574
 -25710494.41644 -20034143.09144  20312855.8344   20312857.0174
 96  2 16  3 56  0.0000000  0  6G20G 6G 9G 4G24G 5
 -19732031.80644 -15375603.53544  21456941.1904   21456943.2494
  -9198807.78844  -7167897.24044  23740202.9104   23740204.9464
  -9448250.54644  -7362267.72344  23480177.3094   23480179.1954
 -10285068.06844  -8014326.11044  23165458.9214   23165460.7384
 -17338302.30744 -13510356.99944  20703513.6844   20703515.8824
 -25730619.72844 -20049825.15744  20309026.0034   20309027.2554
 96  2 16  3 56 30.0000000  0  6G20G 6G24G 9G 4G 5
 -19802488.42444 -15430504.78444  21443533.8804   21443536.1714
  -9267181.51844  -7221175.44944  23727191.3214   23727194.2934
 -17297131.07344 -13478275.51444  20711348.0364   20711350.1404
  -9357539.36644  -7291583.71444  23497439.4504   23497444.3414
 -10191886.43344  -7941717.04044  23183192.0754   23183192.6204
 -25750134.45844 -20065031.44544  20305312.5394   20305313.7014
 96  2 16  3 57  0.0000000  0  6G20G 6G 9G 4G24G 5
 -19872517.75144 -15485073.08444  21430207.5254   21430210.0324
  -9335457.29944  -7274377.32944  23714198.7134   23714200.1824
  -9266688.46244  -7220790.80544  23514728.7044   23514726.4744
 -10098529.58744  -7868971.44744  23200957.6984   23200957.6214
 -17255557.36244 -13445880.41944  20719259.3414   20719261.1054
 -25769104.46844 -20079813.27144  20301702.5484   20301703.9764
 96  2 16  3 57 30.0000000  0  6G20G24G 6G 9G 4G 5
 -19942140.31344 -15539324.43244  21416959.0104   21416961.2534
 -17213620.33744 -13413202.21444  20727239.7524   20727241.9354
  -9403680.42944  -7327538.17944  23701216.7974   23701219.3554
  -9175731.80044  -7149915.50444  23532035.0814
 -10005052.14544  -7796131.89144  23218743.8004   23218744.6464
 -25787561.98344 -20094195.75444  20298190.2144   20298191.5814
 96  2 16  3 58  0.0000000  0  6G20G 6G 9G24G 4G 5
 -20011357.79644 -15593260.12944  21403787.5024   21403789.5774
  -9471853.47944  -7380659.98944  23688243.8024   23688246.0354
  -9084667.70244  -7078956.48444  23549364.6394   23549369.0004
 -17171325.21644 -13380244.97044  20735288.1564   20735290.1404
  -9911466.25944  -7723207.83044  23236552.3404   23236554.5744
 -25805514.75544 -20108184.92944  20294773.9174   20294775.2334
 96  2 16  3 58 30.0000000  0  6G20G 6G24G 9G 4G 5
 -20080197.25144 -15646901.26144  21390687.5404   21390689.8694
  -9539991.48344  -7433754.47144  23675277.6434   23675280.6394
 -17128668.09644 -13347005.65844  20743405.6224   20743407.3474
  -8993488.94444  -7007908.08544  23566714.5284   23566715.6804
  -9817775.44044  -7650201.98244  23254383.2114   23254385.2284
 -25822952.17944 -20121772.53844  20291455.5364   20291456.9054
 96  2 16  3 59  0.0000000  0  6G20G 6G 9G24G 4G 5
 -20148674.08244 -15700259.82644  21377656.8544   21377659.3064
  -9608100.87244  -7486826.13744  23662316.4724   23662319.6394
  -8902211.49544  -6936782.80844  23584084.3144   23584085.6694
 -17085656.24644 -13313489.93544  20751590.5034   20751592.3284
  -9723997.56344  -7577128.32044  23272228.3844   23272229.1724
 -25839881.45944 -20134964.18044  20288234.0034   20288235.4094
 96  2 16  3 59 30.0000000  0  6G20G 6G24G 9G 4G 5
 -20216822.15944 -15753362.21244  21364688.7994   21364690.8704
  -9676209.85444  -7539898.31144  23649356.5414   23649358.2784
 -17042325.73944 -13279725.89944  20759836.0044   20759838.1014
  -8810870.05144  -6865607.66844  23601464.6214   23601467.8324
  -9630175.94044  -7504020.57444  23290080.6594   23290081.8354
 -25856332.13844 -20147782.89444  20285103.5704   20285105.2114
 96  2 16  4  0  0.0000000  0  6G20G 6G 9G24G 4G 5
 -20284711.06744 -15806262.66144  21351769.8864   21351772.3204
  -9744370.48144  -7593010.85244  23636385.2514   23636384.9654
  -8719528.32244  -6794432.29544  23618847.6344   23618848.6854
 -16998720.21644 -13245747.56844  20768133.8164   20768135.7924
  -9536353.79344  -7430912.40444  23307934.5644   23307936.3104
 -25872360.53744 -20160272.55844  20282053.6814   20282054.9544
 96  2 16  4  0 30.0000000  0  6G20G 6G24G 9G 4G 5
 -20352318.19444 -15858943.53844  21338904.6924   21338907.0184
  -9812571.01844  -7646154.06444  23623407.2944   23623409.2404
 -16954817.94344 -13211538.00444  20776488.2494   20776490.1474
  -8628174.37644  -6723247.43044  23636232.3574   23636232.6324
  -9442507.43744  -7357785.37844  23325793.4634   23325794.4784
 -25887955.36944 -20172424.37244  20279086.0604   20279087.2534
 96  2 16  4  1  0.0000000  0  6G20G 6G24G 9G 4G 5
 -20419634.73144 -15911397.97844  21326095.3014   21326097.0864
  -9880816.44244  -7699332.27644  23610420.4054   23610422.3744
 -16910634.96244 -13177109.70244  20784896.0634   20784898.1304
  -8536840.45544  -6652078.12244  23653613.2674   23653614.0374
  -9348644.30544  -7284645.27244  23343655.4994   23343656.7514
 -25903139.77844 -20184256.38344  20276196.4214   20276197.9624
 96  2 16  4  1 30.0000000  0  6G20G24G 6G 9G 4G 5
 -20486565.32944 -15963551.68644  21313358.3724   21313360.5074
 -16866083.93844 -13142394.61544  20793373.7964   20793375.5954
  -9949023.60244  -7752480.65544  23597441.3954   23597444.5834
  -8445447.39644  -6580862.78344  23671004.6044   23671006.5324
  -9254668.00944  -7211417.00244  23361538.5794   23361539.3524
 -25917816.49744 -20195692.79044  20273403.7624   20273405.0304
 96  2 16  4  2  0.0000000  0  6G20G 6G24G 9G 4G 5
 -20553024.02744 -16015337.69044  21300711.5164   21300713.9184
 -10017118.22044  -7805541.35844  23584482.5754   23584485.4294
 -16821066.41044 -13107316.02344  20801940.1174   20801941.8634
  -8353912.25344  -6509536.72544  23688421.4034   23688424.7944
  -9160484.09544  -7138026.92544  23379460.5934   23379460.9004
 -25931905.68244 -20206671.37644  20270722.4944   20270723.7234
 96  2 16  4  2 30.0000000  0  6G20G24G 6G 9G 4G 5
 -20619105.07244 -16066829.41044  21288137.1944   21288139.1304
 -16775695.33144 -13071961.93444  20810574.1854   20810576.0474
 -10085199.80244  -7858591.91544  23571527.4464   23571530.5004
  -8262341.19344  -6438182.65144  23705847.8054   23705851.0044
  -9066207.30844  -7064564.51144  23397401.4594   23397402.0184
 -25945514.64644 -20217275.76444  20268132.8744   20268134.2344
 96  2 16  4  3  0.0000000  0  6G20G 6G24G 9G 4G 5
 -20684926.55344 -16118118.87444  21275611.2524   21275613.6354
 -10153375.99744  -7911716.17644  23558553.3944   23558556.4114
 -16730088.34944 -13036424.02544  20819252.8224   20819254.9244
  -8170855.95144  -6366895.47144  23723256.8754   23723259.1034
  -8971959.40544  -6991124.58144  23415336.8274   23415336.8064
 -25958740.12344 -20227581.33544  20265616.0024   20265617.4624
 96  2 16  4  3 30.0000000  0  6G20G24G 6G 9G 4G 5
 -20750402.88444 -16169139.38844  21263151.8644   21263153.7334
 -16684161.85844 -13000637.14844  20827991.9384   20827994.0084
 -10221583.05444  -7964864.50144  23545574.2124   23545577.0234
  -8079365.11944  -6295603.94044  23740665.9374   23740669.6544
  -8877665.74344  -6917649.01344  23433279.5134   23433279.4394
 -25971496.56444 -20237521.42244  20263188.5434   20263189.8734
 96  2 16  4  4  0.0000000  0  6G20G 6G24G 9G 4G 5
 -20815463.55544 -16219836.00044  21250771.1934   21250773.1624
 -10289749.36244  -8017981.08444  23532602.8354   23532605.1494
 -16637841.82444 -12964543.61544  20836807.1404   20836808.7304
  -7987788.49044  -6224245.50244  23758093.7444   23758094.0944
  -8783257.25344  -6844083.95544  23451244.0974   23451245.9594
 -25983727.33844 -20247051.89944  20260861.1394   20260862.6604
 96  2 16  4  4 30.0000000  0  6G20G24G 6G 9G 4G 5
 -20880069.33144 -16270178.17244  21238476.7074   21238479.2784
 -16591111.66744 -12928130.50644  20845699.1464   20845701.3584
 -10357827.21944  -8071028.73744  23519648.2904   23519651.4744
  -7896090.76344  -6152792.73544  23775542.3834   23775545.5074
  -8688708.18444  -6770409.35644  23469236.9614   23469237.4404
 -25995382.04144 -20256133.48944  20258643.4564   20258644.9334
 96  2 16  4  5  0.0000000  0  6G20G 6G24G 9G 4G 5
 -20944157.98144 -16320117.37444  21226281.3944   21226283.1584
 -10425767.70544  -8123969.33644  23506719.3814   23506721.5524
 -16543926.14344 -12891362.55744  20854677.9544   20854680.4944
  -7804227.83144  -6081211.23744  23793022.4614   23793026.7794
  -8593954.48744  -6696575.30944  23487269.6294   23487269.2474
 -26006402.15744 -20264720.59244  20256546.1164   20256547.7004
 96  2 16  4  5 30.0000000  0  6G20G24G 6G 9G 4G 5
 -21007691.67044 -16369624.13544  21214191.1244   21214193.0514
 -16496252.58844 -12854214.32944  20863750.0974   20863752.1814
 -10493536.00044  -8176775.73544  23493823.9934   23493827.1914
  -7712164.86044  -6009473.84944  23810543.0784   23810546.2844
  -8498954.23644  -6622549.14544  23505348.1064   23505348.2254
 -26016757.90344 -20272790.01344  20254575.5004   20254577.1614
 96  2 16  4  6  0.0000000  0  6G20G 6G24G 9G 4G 5
 -21070779.99144 -16418783.86544  21202185.6094   21202188.2984
 -10561201.15744  -8229501.80244  23480947.0344   23480948.8924
 -16448197.42144 -12816768.74644  20872894.5934   20872896.6484
  -7620012.68644  -5937667.02844  23828078.7184   23828080.4624
  -8403801.65144  -6548404.27244  23523453.0504   23523454.7734
 -26026532.50044 -20280406.58044  20252715.5954   20252717.0154
 96  2 16  4  6 30.0000000  0  6G20G24G 6G 9G 4G 5
 -21133518.67244 -16467671.15144  21190246.9884   21190249.4044
 -16399862.56944 -12779105.22344  20882092.3654   20882094.6164
 -10628860.37544  -8282223.24944  23468071.2284   23468073.3974
  -7527878.31544  -5865873.95044  23845610.9584   23845615.2684
  -8308598.91644  -6474220.31744  23541567.9074   23541569.4264
 -26035804.20644 -20287631.29044  20250951.1594   20250952.8424
 96  2 16  4  7  0.0000000  0  6G20G 6G24G 9G 4G 5
 -21195884.11744 -16516267.60544  21178379.1294   21178381.3524
 -10696491.35444  -8334922.68844  23455201.6534   23455204.1564
 -16351206.91344 -12741191.72344  20891351.2464   20891353.5944
  -7435730.42044  -5794070.41144  23863146.6084   23863150.2034
  -8213317.99644  -6399975.45344  23559700.2294   23559702.8914
 -26044549.70344 -20294445.97044  20249287.1654   20249288.4594
 96  2 16  4  7 30.0000000  0  6G20G24G 6G 9G 4G 5
 -21257869.05644 -16564567.55344  21166583.8714   21166586.1304
 -16302209.09444 -12703011.60444  20900675.2204   20900677.3134
 -10764070.07044  -8387581.39344  23442341.8654   23442344.7054
  -7343540.46044  -5722234.11344  23880688.7564   23880693.3654
  -8117966.06344  -6325675.25044  23577846.1224   23577846.5104
 -26052750.66744 -20300836.33344  20247726.3924   20247727.6874
 96  2 16  4  8  0.0000000  0  6G20G 6G24G 9G 4G 5
 -21319490.32644 -16612584.12944  21154857.9074   21154860.2044
 -10831635.90644  -8440230.06044  23429484.9734   23429487.1634
 -16252905.51944 -12664593.23444  20910057.4814   20910059.3794
  -7251343.64144  -5650392.43644  23898232.4364   23898236.3724
  -8022591.70044  -6251357.56844  23595994.0644   23595995.5474
 -26060444.48644 -20306831.51644  20246262.4334   20246263.8534
 96  2 16  4  8 30.0000000  0  6G20G24G 6G 9G 4G 5
 -21380716.34444 -16660292.71644  21143207.0924   21143209.0644
 -16203287.11844 -12625929.54844  20919499.7004   20919502.0174
 -10899192.89044  -8492871.84244  23416630.1914   23416632.0974
  -7159123.59844  -5578532.68544  23915783.3734   23915787.4824
  -7927190.47444  -6177018.94344  23614147.4314   23614149.5744
 -26067639.90844 -20312438.34444  20244893.1714   20244894.7304
 96  2 16  4  9  0.0000000  0  6G20G24G 6G 9G 4G 5
 -21441523.85744 -16707675.19544  21131635.7114   21131637.4524
 -16153353.03544 -12587019.87344  20929001.5694   20929003.8414
 -10966725.14744  -8545494.33744  23403778.2974   23403780.3914
  -7066880.00244  -5506654.56644  23933337.3084   23933340.3434
  -7831753.03844  -6102652.09244  23632308.7454   23632311.2744
 -26074337.75944 -20317657.45344  20243618.5924   20243619.8484
 96  2 16  4  9 30.0000000  0  6G20G24G 6G 9G 4G 5
 -21501926.26444 -16754741.99644  21120141.5454   21120143.7604
 -16103144.91744 -12547896.66844  20938556.1124   20938557.9174
 -11034261.32944  -8598119.89944  23390926.2484   23390928.0544
  -6974653.93644  -5434790.13044  23950886.4584   23950887.6034
  -7736314.30244  -6028284.25644  23650470.7014   23650473.2854
 -26080581.44444 -20322522.65944  20242430.4194   20242431.8134
 96  2 16  4 10  0.0000000  0  6G20G 6G24G 9G 4G 5
 -21561894.35844 -16801470.37644  21108730.0874   21108732.1814
 -11101780.44144  -8650732.16144  23378077.2894   23378079.7334
 -16052651.50244 -12508551.15444  20948164.2954   20948166.5184
  -6882438.67844  -5362934.08944  23968434.0824   23968435.2444
  -7640838.90544  -5953887.84344  23668638.9894   23668640.1704
 -26086349.12144 -20327016.95644  20241332.8774   20241334.3744
 96  2 16  4 10 30.0000000  0  6G20G 6G24G 9G 4G 5
 -21621397.53044 -16847836.48344  21097407.0354   21097408.8814
 -11169217.95644  -8703280.83444  23365245.8784   23365248.1684
 -16001819.90144 -12468942.11544  20957837.4704   20957839.6134
  -6790169.30944  -5291035.90144  23985992.7054   23985992.8874
  -7545264.55244  -5879414.31844  23686827.0444   23686827.5024
 -26091580.26544 -20331093.17544  20240337.3364   20240338.7434
 96  2 16  4 11  0.0000000  0  6G20G 6G24G 9G 4G 5
 -21680466.47044 -16893864.22344  21086166.4824   21086168.3444
 -11236588.80644  -8755777.58044  23352425.9974   23352427.3524
 -15950668.35044 -12429083.76544  20967571.5074   20967573.3704
  -6697872.32344  -5219116.20544  24003556.8354   24003560.3424
  -7449613.01444  -5804880.66744  23705030.0274   23705031.1944
 -26096283.31344 -20334757.89044  20239442.5244   20239443.9924
 96  2 16  4 11 30.0000000  0  6G20G 6G24G 9G 4G 5
 -21739076.59044 -16939534.44444  21075013.4604   21075015.6814
 -11303870.41544  -8808204.78544  23339622.1164   23339623.9554
 -15899160.65944 -12388947.90044  20977372.7954   20977374.9974
  -6605512.71544  -5147147.65444  24021132.2414   24021136.2044
  -7353848.87944  -5730259.26644  23723253.3024   23723253.7364
 -26100425.09444 -20337985.25544  20238654.4774   20238655.8224
 96  2 16  4 12  0.0000000  0  6G20G24G 6G 9G 4G 5
 -21797259.89144 -16984872.08244  21063941.4094   21063943.5804
 -15847316.82644 -12348550.10844  20987238.6494   20987240.6854
 -11371099.44044  -8860591.01844  23326828.2144   23326829.4694
  -6513122.14844  -5075155.02244  24038714.0244   24038717.2454
  -7257995.78844  -5655568.53644  23741492.3884   23741494.0444
 -26104016.19844 -20340783.52044  20237970.8874   20237972.3734
 96  2 16  4 12 30.0000000  0  6G20G24G 6G 9G 4G 5
 -21855023.25844 -17029882.50044  21052949.2434   21052951.5034
 -15795136.89444 -12307890.42544  20997168.3894   20997170.3234
 -11438300.45744  -8912955.40344  23314040.3484   23314042.8504
  -6420717.16444  -5003151.12944  24056296.8594   24056300.0664
  -7162082.52544  -5580830.93044  23759742.6354   23759745.7354
 -26107072.39244 -20343164.97744  20237389.4524   20237390.8964
 96  2 16  4 13  0.0000000  0  6G20G24G 6G 9G 4G 5
 -21912324.80744 -17074533.05644  21042045.2384   21042047.5424
 -15742604.24144 -12266955.89344  21007164.4724   21007166.6414
 -11505470.24044  -8965295.46944  23301258.7204   23301261.4224
  -6328310.58544  -4931146.01644  24073880.4034   24073883.0214
  -7066096.50544  -5506036.62344  23778007.5274   23778009.6464
 -26109576.47844 -20345116.21444  20236912.8754   20236914.3334
 96  2 16  4 13 30.0000000  0  6G20G24G 6G 9G 4G 5
 -21969161.51144 -17118821.39844  21031229.6924   21031231.9694
 -15689722.20944 -12225749.11644  21017227.5224   21017229.4094
 -11572626.02344  -9017624.62944  23288478.9934   23288480.7934
  -6235907.05544  -4859143.25644  24091464.3944   24091469.0744
  -6970042.34544  -5431189.23544  23796287.4174   23796287.9494
 -26111522.47544 -20346632.57644  20236542.4074   20236543.9284
 96  2 16  4 14  0.0000000  0  6G20G24G 6G 9G 4G 5
 -22025609.99444 -17162807.22944  21020487.7214   21020489.9524
 -15636561.51744 -12184325.20644  21027344.1314   21027346.0514
 -11639833.71744  -9069994.23644  23275689.9274   23275691.4534
  -6143575.40644  -4787196.53244  24109035.4504   24109038.5464
  -6874007.83644  -5356357.15044  23814563.3604   23814562.8434
 -26112979.83244 -20347768.18344  20236265.2044   20236266.8434
 96  2 16  4 14 30.0000000  0  6G20G24G 6G 9G 4G 5
 -22081668.55744 -17206489.22744  21009820.4884   21009822.6534
 -15583135.38944 -12142694.45344  21037510.1734   21037512.4704
 -11707074.49844  -9122389.61544  23262894.1124   23262896.0344
  -6051314.70544  -4715305.10044  24126592.1014   24126593.8874
  -6778000.33344  -5281546.10844  23832833.4914   23832833.9454
 -26113953.74344 -20348527.08444  20236079.7924   20236081.3904
 96  2 16  4 15  0.0000000  0  6G20G24G 6G 9G 4G 5
 -22137307.74844 -17249844.44244  20999232.5844   20999234.8204
 -15529423.15444 -12100840.76544  21047731.8374   21047733.6474
 -11774302.23744  -9174774.84444  23250101.2574   23250104.0924
  -5959093.33544  -4643444.31744  24144141.2954   24144143.8564
  -6681962.50444  -5206711.43944  23851108.2354   23851108.5774
 -26114398.47444 -20348873.63244  20235995.1374   20235996.6154
 96  2 16  4 15 30.0000000  0  6G24G 6G20G 9G 4G 5
 -15475343.84444 -12058701.04744  21058022.7344   21058024.3874
 -11841414.18744  -9227069.84844  23237330.9844   23237332.9474
 -22192464.38344 -17292823.63744  20988736.6904   20988738.8004
  -5866805.88544  -4571532.00444  24161704.0374   24161706.0734
  -6585824.32344  -5131798.56244  23869402.5294   23869403.5724
 -26114240.13744 -20348750.25744  20236025.1704   20236026.8334
 96  2 16  4 16  0.0000000  0  6G24G 6G 9G20G 4G 5
 -15420940.30344 -12016308.68344  21068375.1814   21068377.5334
 -11908424.62544  -9279285.74744  23224578.8124   23224580.5984
  -5774493.48944  -4499600.23444  24179270.2224   24179271.6324
 -22247170.96844 -17335452.14244  20978326.2644   20978328.5374
  -6489622.36544  -5056836.01544  23887708.7944   23887709.2534
 -26113525.55344 -20348193.44944  20236161.3484   20236162.9544
 96  2 16  4 16 30.0000000  0  6G24G 6G20G 9G 4G 5
 -15366334.52044 -11973758.71844  21078766.3204   21078768.6294
 -11975456.04444  -9331517.98844  23211823.1404   23211826.1024
 -22301528.58444 -17377808.73144  20967982.2564   20967984.5054
  -5682273.24544  -4427740.33544  24196818.5044   24196819.8744
  -6393450.59444  -4981896.95944  23906009.1754   23906008.5014
 -26112353.65544 -20347280.28444  20236384.3234   20236385.8354
 96  2 16  4 17  0.0000000  0  6G24G 6G 9G20G 4G 5
 -15311499.53944 -11931030.16044  21089201.2654   21089203.1954
 -12042497.94944  -9383758.38844  23199065.4204   23199067.2894
  -5590114.21344  -4355928.10744  24214356.0414   24214357.6574
 -22355510.78044 -17419872.78644  20957709.6884   20957712.0734
  -6297280.75444  -4906959.43544  23924310.6234   23924311.1034
 -26110704.81144 -20345995.47344  20236698.1524   20236699.5694
 96  2 16  4 17 30.0000000  0  6G24G 6G20G 9G 4G 5
 -15256295.49944 -11888014.02444  21099705.9424   21099707.7874
 -12109415.91144  -9435902.22344  23186330.9114   23186333.0724
 -22408965.03244 -17461525.44944  20947537.7244   20947539.9914
  -5497869.01044  -4284048.72944  24231909.1254   24231910.7184
  -6200995.07444  -4831931.63644  23942632.5564   23942633.5254
 -26108439.26744 -20344230.11844  20237129.2994   20237130.7604
 96  2 16  4 18  0.0000000  0  6G24G 6G 9G20G 4G 5
 -15200883.08244 -11844835.52044  21110250.7534   21110252.5524
 -12176394.13044  -9488093.08444  23173585.4614   23173587.2324
  -5405707.32544  -4212234.44744  24249446.8534   24249448.5004
 -22462019.09744 -17502866.27744  20937441.9374   20937444.1724
  -6104730.02844  -4756919.91544  23960949.7864   23960951.6924
 -26105701.28544 -20342096.63244  20237650.1864   20237651.6574
 96  2 16  4 18 30.0000000  0  6G24G 6G 9G20G 4G 5
 -15145442.48444 -11801635.05144  21120800.9324   21120802.6464
 -12243619.62144  -9540476.53744  23160792.7954   23160794.9944
  -5313809.95744  -4140626.11744  24266935.1334   24266936.0464
 -22514843.99244 -17544028.53644  20927389.2864   20927391.9074
  -6008661.61044  -4682061.40744  23979231.2554   23979233.5144
 -26102676.07944 -20339739.33444  20238226.0644   20238227.4544
 96  2 16  4 19  0.0000000  0  6G24G 6G 9G 4G20G 5
 -15089786.76444 -11758266.95844  21131391.6654   21131393.6304
 -12310886.78244  -9592892.48244  23147993.2884   23147994.8844
  -5222002.82044  -4069088.10844  24284405.3754   24284407.4744
  -5912609.48344  -4607215.59544  23997510.7784   23997511.0324
 -22567252.84744 -17584866.60844  20917416.8284   20917418.8664
 -26099195.17544 -20337026.94144  20238888.3804   20238889.8094
 96  2 16  4 19 30.0000000  0  6G24G 6G 9G20G 4G 5
 -15033911.61544 -11714727.87944  21142024.2584   21142026.5204
 -12378192.04844  -9645338.13244  23135184.5024   23135186.2724
  -5130295.05744  -3997627.51944  24301857.1174   24301857.6104
 -22619238.02044 -17625374.52744  20907524.1024   20907526.0964
  -5816568.31144  -4532378.31144  24015788.0414   24015786.7124
 -26095246.72144 -20333950.23044  20239639.8054   20239641.2334
 96  2 16  4 20  0.0000000  0  6G24G 6G 9G 4G20G 5
 -14977758.38744 -11670972.11844  21152709.7944   21152711.7094
 -12445460.56044  -9697755.13544  23122383.8504   23122385.5074
  -5038633.22544  -3926202.73844  24319299.0004   24319301.0554
  -5720475.59044  -4457500.89544  24034072.9624   24034071.3394
 -22670733.03644 -17665500.50844  20897725.1004   20897727.2184
 -26090771.86044 -20330463.33044  20240491.4374   20240492.7804
 96  2 16  4 20 30.0000000  0  6G24G 6G 9G20G 4G 5
 -14921262.85344 -11626949.62744  21163460.2534   21163462.5774
 -12512599.56944  -9750071.23844  23109608.3274   23109609.5474
  -4946942.16944  -3854755.18944  24336747.3384   24336749.8144
 -22721688.78344 -17705206.29544  20888028.4284   20888030.8104
  -5624281.47344  -4382544.41944  24052377.6784   24052377.2834
 -26085698.09744 -20326509.75844  20241456.8054   20241458.3224
 96  2 16  4 21  0.0000000  0  6G24G 6G 9G 4G20G 5
 -14864412.61044 -11582650.73844  21174278.5104   21174280.8974
 -12579606.02744  -9802284.04844  23096856.7624   23096858.9354
  -4855210.59544  -3783276.02744  24354202.6304   24354204.3134
  -5527996.25044  -4307516.98944  24070700.2924   24070701.5284
 -22772111.98644 -17744497.10644  20878433.0324   20878435.0744
 -26079994.30844 -20322065.25444  20242542.2844   20242543.6594
 96  2 16  4 21 30.0000000  0  6G24G 6G 9G20G 4G 5
 -14807169.84544 -11538045.99044  21185171.5974   21185174.0664
 -12646449.95544  -9854370.20744  23084136.7064   23084138.3574
  -4763397.75944  -3711733.55744  24371674.7834   24371675.0724
 -22821965.83244 -17783344.25244  20868946.4524   20868948.3764
  -5431616.20944  -4232415.66244  24089041.0324   24089043.3114
 -26073614.23444 -20317093.76844  20243756.2884   20243757.8924
 96  2 16  4 22  0.0000000  0  6G24G 6G 9G20G 4G 5
 -14749622.85244 -11493204.17444  21196122.6914   21196124.7184
 -12713207.96344  -9906389.42444  23071433.6004   23071435.1854
  -4671586.07344  -3640192.01844  24389145.5764   24389151.0454
 -22871334.42644 -17821813.28144  20859551.7384   20859554.0844
  -5335239.42544  -4157316.87544  24107380.9094   24107382.9574
 -26066637.94044 -20311657.70544  20245083.9174   20245085.4044
 96  2 16  4 22 30.0000000  0  6G24G 6G 9G20G 4G 5
 -14691832.21844 -11448172.51244  21207119.7634   21207121.7204
 -12779960.37844  -9958404.27644  23058730.4554   23058732.7824
  -4579856.17444  -3568714.18144  24406602.5634   24406602.4664
 -22920304.14044 -17859971.50744  20850233.4084   20850235.4534
  -5238931.82144  -4082271.97444  24125707.7794   24125709.8744
 -26059139.01444 -20305814.39044  20246510.8884   20246512.2664
 96  2 16  4 23  0.0000000  0  6G24G 6G 9G 4G20G 5
 -14633783.77344 -11402939.95844  21218165.9974   21218168.1484
 -12846697.53844 -10010407.23044  23046030.9674   23046033.2464
  -4488215.30944  -3497305.73444  24424040.4434   24424041.6714
  -5142674.37744  -4007266.17444  24144025.5754   24144026.2754
 -22968838.21444 -17897790.26544  20840997.2524   20840999.4764
 -26051108.10344 -20299556.54544  20248039.1354   20248040.4634
 96  2 16  4 23 30.0000000  0  6G24G 6G 9G20G 4G 5
 -14575445.31344 -11357481.42044  21229267.4104   21229269.6754
 -12913374.20044 -10062363.05244  23033342.9824   23033344.7504
  -4396628.96644  -3425939.74944  24441468.9584   24441472.0634
 -23016870.01644 -17935217.64244  20831857.1974   20831859.5814
  -5046407.71144  -3932253.19744  24162343.1894   24162344.8134
 -26042519.37844 -20292864.03644  20249673.6184   20249674.9984
 96  2 16  4 24  0.0000000  0  6G24G 6G 9G 4G20G 5
 -14516836.93344 -11311812.55244  21240420.7724   21240422.6104
 -12980008.17844 -10114285.62444  23020663.1284   23020665.0064
  -4305117.46644  -3354632.07544  24458882.3164   24458885.3624
  -4950104.80744  -3857211.97644  24180667.3664   24180668.6374
 -23064406.93244 -17972259.39844  20822811.3004   20822813.6984
 -26033386.05744 -20285747.17244  20251411.4384   20251412.9104
 96  2 16  4 24 30.0000000  0  6G24G 6G 9G20G 4G 5
 -14457942.95144 -11265921.13844  21251627.8264   21251629.4644
 -13046584.15444 -10166163.00244  23007993.3814   23007995.6104
  -4213674.00644  -3283377.42744  24476283.4284   24476287.0124
 -23111429.84244 -18008900.62244  20813862.9884   20813865.2324
  -4853734.98644  -3782118.58544  24199005.9524   24199006.4844
 -26023698.91544 -20278198.75444  20253255.0304   20253256.3454
 96  2 16  4 25  0.0000000  0  6G24G 6G 9G20G 4G 5
 -14398804.02544 -11219838.86444  21262881.6484   21262882.7744
 -13113137.81644 -10218022.98844  22995328.5414   22995331.2984
  -4122316.15344  -3212189.45944  24493667.6704   24493666.9424
 -23157949.97444 -18045150.07344  20805010.5584   20805012.7074
  -4757327.03944  -3706995.51644  24217351.7774   24217353.4794
 -26013483.27444 -20270238.51544  20255198.9384   20255200.4074
 96  2 16  4 25 30.0000000  0  6G24G 6G 9G20G 4G 5
 -14339412.54544 -11173559.79744  21274183.5094   21274184.7264
 -13179670.19144 -10269866.38144  22982668.6694   22982670.0844
  -4031022.95644  -3141051.90644  24511041.2294   24511044.6494
 -23203975.53244 -18081014.14344  20796252.3234   20796254.3854
  -4660876.13244  -3631838.96844  24235706.6474   24235708.2834
 -26002729.92544 -20261859.28744  20257245.1794   20257246.7684
 96  2 16  4 26  0.0000000  0  6G24G 6G 9G20G 4G 5
 -14279753.33444 -11127072.10244  21285536.0244   21285538.1634
 -13246176.77644 -10321689.68044  22970012.8154   22970015.0104
  -3939787.69144  -3069959.52244  24528402.9694   24528404.3674
 -23249508.81644 -18116494.62644  20787587.5304   20787589.8084
  -4564392.99544  -3556657.30544  24254067.8924   24254068.6274
 -25991431.01344 -20253054.94344  20259395.3234   20259396.8224
 96  2 16  4 26 30.0000000  0  6G24G 6G 9G20G 4G 5
 -14219807.07944 -11080360.72944  21296942.9774   21296945.3234
 -13312640.10444 -10373479.27244  22957364.2004   22957366.9834
  -3848584.02244  -2998891.73944  24545758.0534   24545761.1854
 -23294529.96744 -18151576.04544  20779020.1624   20779022.2144
  -4467893.87544  -3481463.17744  24272430.9874   24272432.4214
 -25979567.96844 -20243811.01944  20261652.7094   20261654.2654
 96  2 16  4 27  0.0000000  0  6G24G 6G 9G20G 4G 5
 -14159589.67544 -11033438.07944  21308402.5004   21308403.9614
 -13379070.71844 -10425243.36644  22944723.4914   22944725.1854
  -3757411.12544  -2927847.94144  24563108.3394   24563108.7574
 -23339039.82144 -18186259.04044  20770550.4794   20770552.5244
  -4371400.68444  -3406273.69044  24290792.7194   24290794.4414
 -25967142.16744 -20234128.58044  20264017.4054   20264018.6474
 96  2 16  4 27 30.0000000  0  6G24G 6G20G 9G 4G 5
 -14099080.20844 -10986287.85544  21319916.9924   21319918.2074
 -13445424.43644 -10476947.55344  22932096.9404   22932098.6224
 -23383014.57844 -18220525.09044  20762182.0724   20762184.8864
  -3666260.55644  -2856821.52744  24580453.0484   24580454.8294
  -4274895.69144  -3331075.00344  24309157.5614   24309160.5574
 -25954134.32044 -20223992.59544  20266492.6034   20266493.9294
 96  2 16  4 28  0.0000000  0  6G24G 6G 9G20G 4G 5
 -14038320.13644 -10938942.35044  21331478.7184   21331481.1854
 -13511714.06144 -10528601.79944  22919481.9144   22919484.8384
  -3575172.80344  -2785844.01144  24597785.4514   24597788.4164
 -23426480.18744 -18254394.39644  20753911.0924   20753913.0224
  -4178400.14244  -3255883.67144  24327520.4564   24327522.1634
 -25940578.28044 -20213429.45144  20269072.4314   20269073.7464
 96  2 16  4 28 30.0000000  0  6G24G 6G20G 9G 4G 5
 -13977304.40644 -10891397.61944  21343089.6414   21343092.2294
 -13577904.04344 -10580178.39944  22906886.8584   22906889.0204
 -23469414.17244 -18287849.44244  20745740.8054   20745743.0504
  -3484125.28344  -2714897.93944  24615111.4854   24615111.1374
  -4081868.28044  -3180664.03544  24345889.8004   24345891.0134
 -25926440.32544 -20202412.87044  20271762.7224   20271763.9224
 96  2 16  4 29  0.0000000  0  6G24G 6G 9G20G 4G 5
 -13916143.77844 -10843739.98944  21354728.7074   21354730.3574
 -13644094.22744 -10631755.15144  22894291.1874   22894293.1984
  -3393230.25144  -2644070.63644  24632408.2434   24632408.8904
 -23511921.11944 -18320971.74344  20737652.2434   20737654.6814
  -3985378.15144  -3105476.93844  24364250.0394   24364250.3584
 -25911828.72344 -20191027.20944  20274543.1574   20274544.5324
 96  2 16  4 29 30.0000000  0  6G24G 6G20G 9G 4G 5
 -13854971.06844 -10796072.95544  21366369.4644   21366371.0294
 -13710417.78444 -10683435.83444  22881669.9004   22881672.5764
 -23554151.65544 -18353878.65344  20729616.1334   20729618.1144
  -3302641.33844  -2573481.89944  24649647.3834   24649651.6484
  -3889065.82644  -3030428.37844  24382577.1714   24382578.7634
 -25896878.08144 -20179377.36244  20277388.2604   20277389.6474
 96  2 16  4 30  0.0000000  0  6G24G 6G 9G20G 4G 5
 -13793609.34644 -10748258.62844  21378045.6694   21378048.0324
 -13776714.16544 -10735095.33544  22869054.6964   22869056.9154
  -3212170.33844  -2502984.98844  24666863.7834   24666864.8644
 -23595936.66144 -18386438.39644  20721664.4624   20721666.5164
  -3792757.36744  -2955382.81244  24400904.0434   24400905.7184
 -25881405.09244 -20167320.49444  20280332.5694   20280334.0814
 96  2 16  4 30 30.0000000  0  6G24G 6G20G 9G 4G 5
 -13731931.16944 -10700197.70444  21389782.7114   21389785.1774
 -13842888.12344 -10786659.44844  22856461.8154   22856464.5824
 -23637165.38144 -18418564.67344  20713819.1724   20713821.2844
  -3121704.52344  -2432492.11944  24684079.1634   24684081.6374
  -3696357.40744  -2880265.98444  24419249.0694   24419250.6574
 -25865298.86944 -20154770.19844  20283397.4954   20283399.0884
 96  2 16  4 31  0.0000000  0  6G24G 6G20G 9G 4G 5
 -13669890.67344 -10651854.46244  21401589.2334   21401591.2894
 -13908919.02444 -10838112.08244  22843896.7834   22843899.3444
 -23677800.36544 -18450228.30244  20706086.5564   20706088.7284
  -3031224.31344  -2361988.04144  24701295.4984   24701294.0884
  -3599862.91144  -2805075.48144  24437611.8044   24437612.3164
 -25848529.32144 -20141703.01844  20286588.6564   20286590.1384
 96  2 16  4 31 30.0000000  0  6G24G 6G20G 9G 4G 5
 -13607595.35344 -10603312.66044  21413443.6844   21413445.5284
 -13974918.74044 -10889540.41744  22831337.3254   22831339.5934
 -23717940.57444 -18481506.38844  20698447.9994   20698449.9004
  -2940843.06744  -2291561.11244  24718494.9954   24718495.3474
  -3503406.32644  -2729914.49044  24455967.7404   24455967.7904
 -25831199.60044 -20128199.34044  20289886.3984   20289887.8264
 96  2 16  4 32  0.0000000  0  6G24G 6G20G 9G 4G 5
 -13545066.33244 -10554588.74744  21425342.0184   21425344.1184
 -14040915.79344 -10940966.66744  22818778.2184   22818781.4114
 -23757584.26844 -18512397.58244  20690904.1304   20690906.3844
  -2850574.71744  -2221222.11244  24735672.4494
  -3407012.77344  -2654802.63744  24474310.6594   24474310.8554
 -25813345.69944 -20114287.21344  20293283.8014   20293285.3174
 96  2 16  4 32 30.0000000  0  6G24G 6G20G 9G 4G 5
 -13482319.91844 -10505695.43444  21437282.2204   21437284.2824
 -14106922.85744 -10992400.73244  22806217.6944   22806220.0594
 -23796718.10544 -18542891.47544  20683457.2024   20683459.1024
  -2760447.27544  -2150992.93544  24752823.8104
  -3310701.43044  -2579754.84944  24492636.9834   24492637.9654
 -25794979.37244 -20099975.79744  20296778.9194   20296780.5804
 96  2 16  4 33  0.0000000  0  6G24G 6G20G 9G 4G 5
 -13419398.69244 -10456665.90844  21449256.2194   21449257.9284
 -14172965.17644 -11043862.26544  22793650.6914   22793652.0464
 -23835357.35044 -18572999.98144  20676104.1644   20676106.4314
  -2670501.45744                  24769938.9094
  -3214504.72444  -2504796.38644  24510943.3154   24510945.5424
 -25776125.73244 -20085284.65344  20300366.4784   20300368.0804
 96  2 16  4 33 30.0000000  0  6G24G 6G20G 9G 4G 5
 -13356263.23944 -10407469.45344  21461270.1404   21461272.5384
 -14238998.74444 -11095316.98044  22781084.3174   22781086.2514
 -23873459.56444 -18602690.01944  20668853.9804   20668855.8674
  -2580685.74644                  24787030.5554
  -3118360.09544  -2429878.48944  24529240.0234   24529241.9374
 -25756754.01844 -20070189.81344  20304052.6714   20304054.3684
 96  2 16  4 34  0.0000000  0  6G24G 6G20G 9G 4G 5
 -13292877.55644 -10358078.01444  21473331.6404   21473333.9064
 -14304989.59244 -11146738.39744  22768526.6134   22768528.8084
 -23910991.91244 -18631936.00844  20661711.3234   20661713.5544
  -2490974.46044  -1941014.22244  24804103.8114   24804106.3804
  -3022218.54144  -2354962.99844  24547534.4434   24547535.7954
 -25736827.24344 -20054662.45944  20307844.7064   20307846.3414
 96  2 16  4 34 30.0000000  0  6G24G 6G20G 9G 4G 5
 -13229192.42744 -10308453.23544  21485450.8814   21485452.8984
 -14370864.67244 -11198069.61344  22755991.5274   22755992.8784
 -23947909.83844 -18660703.22844  20654686.4444   20654688.5254
  -2401315.95244  -1871150.41144  24821163.0694
  -2926021.80444  -2280004.50844  24565840.8734   24565841.0604
 -25716276.67544 -20038649.03144  20311755.5164   20311756.9794
 96  2 16  4 35  0.0000000  0  6G24G 6G20G 9G 4G 5
 -13165223.65844 -10258607.44044  21497623.7644   21497625.5444
 -14436618.56144 -11249306.39944  22743479.1104   22743480.8004
 -23984243.06544 -18689014.83044  20647772.4504   20647774.4594
  -2311712.70544  -1801329.69044  24838213.9394
  -2829774.57244  -2205006.66844  24584156.1154   24584155.5254
 -25695115.55044 -20022159.84644  20315782.2734   20315783.7514
 96  2 16  4 35 30.0000000  0  6G24G 6G20G 9G 4G 5
 -13101033.04944 -10208588.78844  21509838.5774   21509840.4494
 -14502292.61944 -11300480.98244  22730980.8994   22730983.2354
 -24020048.16744 -18716914.91544  20640958.9064   20640960.8814
  -2222209.49044                  24855246.6614
  -2733520.17344  -2130003.24744  24602472.2104   24602472.5494
 -25673395.10044 -20005234.82244  20319915.6964   20319917.0694
 96  2 16  4 36  0.0000000  0  6G24G 6G20G 9G 4G 5
 -13036584.08444 -10158368.81644  21522102.9884   21522104.6074
 -14567830.38144 -11351549.35644  22718510.0334   22718512.3674
 -24055275.86444 -18744365.06344  20634255.5374   20634257.3844
  -2132755.48244                  24872270.4744
  -2637223.73844  -2054967.07144  24620796.1704   24620798.5274
 -25651053.99544 -19987826.17244  20324167.2254   20324168.6524
 96  2 16  4 36 30.0000000  0  5G24G 6G 4G20G 5
 -12971987.91544 -10108034.13844  21534395.4774   21534397.1304
 -14633338.75644 -11402594.81944  22706044.3374   22706045.9924
  -2540998.55144  -1979986.41944  24639106.2244   24639107.6224
 -24090043.57644 -18771456.78644  20627639.1764   20627641.4114
 -25628208.85744 -19970024.76744  20328514.2664   20328515.5754
 96  2 16  4 37  0.0000000  0  5G24G 6G20G 4G 5
 -12907194.12244 -10057545.47144  21546725.5784   21546727.2624
 -14698793.64844 -11453598.62044  22693588.5674   22693590.3354
 -24124307.15644 -18798155.68144  20621119.2184   20621120.8864
  -2444794.79544  -1905022.45044  24657412.8194   24657414.6454
 -25604815.54444 -19951796.21344  20332965.9744   20332967.4054
 96  2 16  4 37 30.0000000  0  6G24G 6G20G25G 4G 5
 -12842176.78144 -10006882.61344  21559097.5714   21559099.2714
 -14764205.84844 -11504569.15844  22681140.7084   22681142.4694
 -24158045.76144 -18824445.50044  20614698.8514   20614700.8714
         0.12754                  25217038.5194
  -2348601.55544  -1830066.65944  24675718.5654   24675720.9744
 -25580857.22544 -19933127.40344  20337524.6504   20337526.2804
 96  2 16  4 38  0.0000000  0  6G24G 6G20G25G 4G 5
 -12776921.85644  -9956034.62144  21571514.9264   21571516.9644
 -14829587.71844 -11555516.05744  22668699.3804   22668701.4124
 -24191253.22344 -18850321.44544  20608379.7094   20608381.8274
    -37902.46044                  25209826.5504
  -2252417.75644  -1755118.23544  24694021.0354   24694021.5754
 -25556326.86644 -19914012.84744  20342192.9844   20342194.3434
 96  2 16  4 38 30.0000000  0  6G24G 6G20G25G 4G 5
 -12711496.47844  -9905053.80744  21583965.3584   21583967.0964
 -14895005.56344 -11606490.99244  22656250.7334   22656252.2724
 -24223986.99744 -18875828.28244  20602150.6334   20602152.6964
    -75365.47844                  25202697.2854
  -2156307.60144  -1680227.22344  24712310.9514   24712312.7204
 -25531286.11044 -19894500.56744  20346958.0084   20346959.3324
 96  2 16  4 39  0.0000000  0  6G24G 6G20G25G 4G 5
 -12645882.12144  -9853925.74244  21596451.4774   21596453.4144
 -14960421.98544 -11657464.82044  22643802.5694   22643803.6134
 -24256197.86144 -18900927.65344  20596021.2014   20596023.1484
   -112377.94844                  25195652.6214
  -2060236.76144  -1605366.82444  24730593.4214   24730594.0364
 -25505701.36044 -19874564.40344  20351826.4604   20351828.1214
 96  2 16  4 39 30.0000000  0  6G24G 6G20G25G 4G 5
 -12580136.45644  -9802695.35144  21608962.5174   21608964.7994
 -15025870.23744 -11708463.44644  22631347.4474   22631349.7594
 -24287928.30544 -18925652.67244  20589983.0884   20589985.0044
   -148999.19144                  25188684.9154
  -1964252.30944  -1530573.73944  24748859.0054   24748859.1284
 -25479617.79844 -19854239.56444  20356790.1854   20356791.7104
 96  2 16  4 40  0.0000000  0  6G24G 6G20G25G 4G 5
 -12514246.19644  -9751352.28744  21621500.5914   21621503.3194
 -15091295.03044 -11759443.79644  22618897.5174   22618900.5464
 -24319150.34844 -18949981.53944  20584041.6244   20584043.5794
   -185202.77044                  25181796.2654
  -1868317.41544  -1455819.26244  24767114.7824   24767118.1254
 -25453021.64044 -19833515.28744  20361851.4074   20361852.7044
 96  2 16  4 40 30.0000000  0  6G24G 6G20G25G 4G 5
 -12448208.92144  -9699894.66744  21634066.6534   21634069.5584
 -15156677.17244 -11810390.90544  22606455.9284   22606457.9404
 -24349865.97044 -18973915.78744  20578196.6664   20578198.7314
   -220994.31044                  25174985.0894
  -1772434.06344  -1381104.96644  24785359.9314   24785359.4054
 -25425929.77244 -19812404.74244  20367006.7004   20367008.0564
 96  2 16  4 41  0.0000000  0  6G24G 6G20G25G 4G 5
 -12381967.98244  -9648278.34844  21646672.1104   21646674.4904
 -15221987.74144 -11861282.25644  22594028.1194   22594029.6614
 -24380040.66544 -18997428.54244  20572454.3394   20572456.6334
   -256340.60244                  25168258.6904
  -1676570.78044  -1306406.29544  24803601.9974   24803602.2444
 -25398323.76844 -19790893.58144  20372259.9184   20372261.3774
 96  2 16  4 41 30.0000000  0  6G24G 6G20G25G 4G 5
 -12315539.49644  -9596515.89444  21659313.6794   21659315.5694
 -15287252.46844 -11912137.87944  22581607.8964   22581610.0934
 -24409704.74444 -19020543.40944  20566809.6794   20566811.7914
   -291231.30944                  25161619.1524
  -1580764.32944  -1231751.93444  24821833.6214   24821833.2064
 -25370230.23044 -19769002.51944  20377606.0214   20377607.4124
 96  2 16  4 42  0.0000000  0  6G24G 6G20G25G 4G 5
 -12248939.36844  -9544619.69344  21671986.9674   21671988.8244
 -15352480.41044 -11962964.83244  22569195.4774   22569198.3904
 -24438863.92044 -19043264.85044  20561260.7274   20561263.1264
   -325657.56344                  25155068.4844
  -1485049.74944  -1157169.13644  24840047.4874   24840046.1294
 -25341655.72744 -19746736.67544  20383043.6224   20383044.8184
 96  2 16  4 42 30.0000000  0  6G24G 6G20G25G 4G 5
 -12182139.04844  -9492567.49744  21684698.2814   21684700.9504
 -15417666.52344 -12013759.18844  22556791.4184   22556793.9314
 -24467486.52744 -19065568.19144  20555813.9984   20555816.2214
   -359600.67144   -280208.72944  25148608.0374
  -1389422.45744  -1082654.35144  24858244.6054   24858246.7234
 -25312560.63244 -19724065.17044  20388580.3744   20388581.4634
 96  2 16  4 43  0.0000000  0  6G24G 6G20G25G 4G 5
 -12115090.06244  -9440321.53144  21697457.1484   21697460.1834
 -15482751.44144 -12064474.70444  22544406.5754   22544408.1154
 -24495497.73344 -19087395.10544  20550483.9354   20550486.1324
   -392988.91744                  25142255.4284
  -1293810.17244  -1008151.28844  24876439.4544   24876440.9434
 -25282860.69744 -19700922.37144  20394231.9834   20394233.3434
 96  2 16  4 43 30.0000000  0  6G24G 6G20G25G 4G 5
 -12047886.68344  -9387955.26144  21710246.1144   21710248.8944
 -15547796.65744 -12115159.28444  22532028.2664   22532030.6014
 -24522967.77244 -19108800.33344  20545256.5164   20545258.8964
   -425876.32044                  25135997.8404
  -1198288.60544   -933718.89744  24894616.5534   24894616.2134
 -25252608.99744 -19677349.63544  20399988.5464   20399989.9904
 96  2 16  4 44  0.0000000  0  6G24G 6G20G25G 4G 5
 -11980448.41344  -9335405.95444  21723079.4264   21723081.4594
 -15612730.49444 -12165757.06844  22519671.9364   22519674.2094
 -24549814.00044 -19129719.47244  20540147.8494   20540150.0384
   -458204.98944                  25129846.1174
  -1102780.10144   -859296.71644  24912790.9934   24912792.2434
 -25221729.39444 -19653287.60844  20405864.9134   20405866.0484
 96  2 16  4 44 30.0000000  0  7G24G 6G20G25G 4G 5G17
 -11912777.74644  -9282675.56744  21735956.6424   21735957.9824
 -15677566.29144 -12216278.46344  22507333.8914   22507335.9344
 -24576044.35944 -19150158.71344  20535156.3564   20535158.3084
   -489999.64144                  25123794.1544
  -1007273.56444   -784875.99344  24930964.3464   24930967.8644
 -25190248.25244 -19628756.84344  20411855.3114   20411856.5904
        -0.63354                  25052991.8624
 96  2 16  4 45  0.0000000  0  7G24G 6G20G25G 4G 5G17
 -11844952.39744  -9229824.64944  21748863.1824   21748864.8744
 -15742363.83844 -12266770.04744  22495003.7214   22495005.3734
 -24601731.92644 -19170174.99944  20530268.3234   20530270.4124
   -521316.11444   -406220.77844  25117834.8654
   -911831.87044   -710505.83844  24949126.4204   24949128.6844
 -25158231.30444 -19603808.58444  20417948.2374   20417949.6184
    -95508.94144                  25034817.0704
 96  2 16  4 45 30.0000000  0  7G24G 6G20G25G 4G 5G17
 -11776944.64744  -9176831.59744  21761804.4634   21761806.2384
 -15807102.11244 -12317215.45044  22482684.3514   22482686.0984
 -24626848.65244 -19189746.47844  20525488.5534   20525490.6204
   -552144.65844                  25111968.3554
   -816441.50644   -636175.60744  24967278.3584
 -25125657.86044 -19578426.69044  20424146.7344   20424148.0564
   -190889.10444                  25016668.7014
 96  2 16  4 46  0.0000000  0  7G24G 6G20G25G 4G 5G17
 -11708767.06444  -9123706.20744  21774778.2604   21774780.1504
 -15871802.98344 -12367631.70644  22470371.7704   22470373.4084
 -24651408.44644 -19208883.97944  20520815.1044   20520817.0704
   -582526.79444   -453917.46944  25106187.8724   25106189.4084
   -721106.92844                  24985420.6484
 -25092561.84744 -19552637.59144  20430444.6634   20430445.8924
   -286157.99644                  24998538.2674
 96  2 16  4 46 30.0000000  0  7G24G 6G20G25G 4G 5G17
 -11640417.38644  -9070446.71244  21787784.9484   21787786.7634
 -15936454.39944 -12418009.42144  22458069.2994   22458071.5054
 -24675406.18644 -19227583.51544  20516248.4664   20516250.4844
   -612448.75044   -477233.31344  25100494.2914   25100494.1364
   -625816.89844                  25003554.8574
 -25058936.05944 -19526435.68144  20436843.4184   20436844.5604
   -381287.40544                  24980436.8614
 96  2 16  4 47  0.0000000  0  7G24G 6G20G25G 4G 5G17
 -11571880.37044  -9017041.24144  21800827.2164   21800829.2154
 -16001042.55944 -12468337.84144  22445778.2874   22445780.5574
 -24698831.84444 -19245837.27744  20511790.5714   20511792.6354
   -641880.45144   -500167.13544  25094893.5054   25094894.5614
   -530564.48744   -413414.43544  25021681.3304
 -25024761.41444 -19499806.09544  20443346.6074   20443348.0244
   -476254.14144                  24962366.6134
